| time (UTC) | temp F | wind direction | speed knots | gust knots | rain 1hr in | rain 24hr in | rain mn in | humidity % | barometer mb |
| 20260906095615 | 67 | 196 | 1.7 | 3.5 | 0.00 | 0.00 | 0.00 | 95 | 1018.9 |
| 20260906095540 | 67 | 196 | 1.7 | 3.5 | 0.00 | 0.00 | 0.00 | 95 | 1018.9 |
| 20260906095357 | 68 | 196 | 1.7 | 3.5 | 0.00 | 0.00 | 0.00 | 95 | 1018.8 |
| 20260906095305 | 68 | 196 | 1.7 | 3.5 | 0.00 | 0.00 | 0.00 | 95 | 1018.8 |
| 20260906095206 | 68 | 196 | 1.7 | 3.5 | 0.00 | 0.00 | 0.00 | 95 | 1018.8 |
| 20260906095130 | 68 | 196 | 1.7 | 3.5 | 0.00 | 0.00 | 0.00 | 96 | 1018.8 |
| 20260906094957 | 68 | 196 | 1.7 | 3.5 | 0.00 | 0.00 | 0.00 | 95 | 1018.7 |
| 20260906094921 | 68 | 196 | 1.7 | 3.5 | 0.00 | 0.00 | 0.00 | 95 | 1018.7 |
| 20260906094759 | 68 | 196 | 2.6 | 3.5 | 0.00 | 0.00 | 0.00 | 95 | 1018.5 |
| 20260906094704 | 68 | 196 | 2.6 | 3.5 | 0.00 | 0.00 | 0.00 | 95 | 1018.6 |
| 20260906094609 | 68 | 196 | 2.6 | 3.5 | 0.00 | 0.00 | 0.00 | 95 | 1018.6 |
| 20260906094458 | 68 | 196 | 2.6 | 3.5 | 0.00 | 0.00 | 0.00 | 95 | 1018.5 |
| 20260906094403 | 68 | 196 | 2.6 | 3.5 | 0.00 | 0.00 | 0.00 | 95 | 1018.5 |
| 20260906094308 | 68 | 196 | 2.6 | 3.5 | 0.00 | 0.00 | 0.00 | 95 | 1018.5 |
| 20260906094213 | 68 | 196 | 2.6 | 3.5 | 0.00 | 0.00 | 0.00 | 95 | 1018.5 |
| 20260906094138 | 68 | 196 | 2.6 | 3.5 | 0.00 | 0.00 | 0.00 | 95 | 1018.6 |
| 20260906094042 | 68 | 196 | 1.7 | 3.5 | 0.00 | 0.00 | 0.00 | 95 | 1018.5 |
| 20260906093859 | 68 | 196 | 1.7 | 3.5 | 0.00 | 0.00 | 0.00 | 95 | 1018.6 |
| 20260906093823 | 68 | 196 | 1.7 | 3.5 | 0.00 | 0.00 | 0.00 | 95 | 1018.6 |
| 20260906093711 | 68 | 196 | 1.7 | 3.5 | 0.00 | 0.00 | 0.00 | 95 | 1018.6 |
| 20260906093615 | 68 | 196 | 1.7 | 3.5 | 0.00 | 0.00 | 0.00 | 95 | 1018.7 |
| 20260906093500 | 68 | 196 | 2.6 | 3.5 | 0.00 | 0.00 | 0.00 | 95 | 1018.7 |
| 20260906093404 | 68 | 196 | 2.6 | 3.5 | 0.00 | 0.00 | 0.00 | 95 | 1018.6 |
| 20260906093309 | 68 | 196 | 2.6 | 3.5 | 0.00 | 0.00 | 0.00 | 95 | 1018.6 |
| 20260906093234 | 68 | 196 | 2.6 | 3.5 | 0.00 | 0.00 | 0.00 | 95 | 1018.6 |
| 20260906093121 | 68 | 196 | 2.6 | 3.5 | 0.00 | 0.00 | 0.00 | 95 | 1018.5 |
| 20260906093023 | 68 | 196 | 2.6 | 3.5 | 0.00 | 0.00 | 0.00 | 95 | 1018.5 |
| 20260906092901 | 68 | 196 | 2.6 | 3.5 | 0.00 | 0.00 | 0.00 | 95 | 1018.4 |
| 20260906092805 | 68 | 196 | 1.7 | 3.5 | 0.00 | 0.00 | 0.00 | 96 | 1018.5 |
| 20260906092710 | 68 | 196 | 1.7 | 3.5 | 0.00 | 0.00 | 0.00 | 96 | 1018.5 |
| 20260906092634 | 68 | 196 | 0.9 | 4.3 | 0.00 | 0.00 | 0.00 | 96 | 1018.4 |
| 20260906092458 | 68 | 196 | 1.7 | 4.3 | 0.00 | 0.00 | 0.00 | 96 | 1018.4 |
| 20260906092406 | 68 | 196 | 1.7 | 4.3 | 0.00 | 0.00 | 0.00 | 96 | 1018.4 |
| 20260906092311 | 68 | 196 | 1.7 | 4.3 | 0.00 | 0.00 | 0.00 | 96 | 1018.4 |
| 20260906092216 | 68 | 196 | 2.6 | 4.3 | 0.00 | 0.00 | 0.00 | 96 | 1018.4 |
| 20260906092120 | 68 | 196 | 2.6 | 4.3 | 0.00 | 0.00 | 0.00 | 96 | 1018.3 |
| 20260906092004 | 68 | 196 | 2.6 | 4.3 | 0.00 | 0.00 | 0.00 | 96 | 1018.3 |
| 20260906091908 | 68 | 196 | 3.5 | 4.3 | 0.00 | 0.00 | 0.00 | 96 | 1018.3 |
| 20260906091757 | 68 | 196 | 3.5 | 4.3 | 0.00 | 0.00 | 0.00 | 96 | 1018.3 |
| 20260906091722 | 68 | 196 | 3.5 | 4.3 | 0.00 | 0.00 | 0.00 | 96 | 1018.3 |
| 20260906091605 | 68 | 192 | 3.5 | 4.3 | 0.00 | 0.00 | 0.00 | 96 | 1018.2 |
| 20260906091509 | 68 | 192 | 3.5 | 4.3 | 0.00 | 0.00 | 0.00 | 96 | 1018.2 |
| 20260906091434 | 68 | 191 | 2.6 | 4.3 | 0.00 | 0.00 | 0.00 | 96 | 1018.3 |
| 20260906091258 | 68 | 191 | 2.6 | 4.3 | 0.00 | 0.00 | 0.00 | 96 | 1018.3 |
| 20260906091202 | 68 | 191 | 2.6 | 4.3 | 0.00 | 0.00 | 0.00 | 96 | 1018.3 |
| 20260906091111 | 68 | 191 | 2.6 | 4.3 | 0.00 | 0.00 | 0.00 | 96 | 1018.3 |
| 20260906091016 | 68 | 190 | 2.6 | 4.3 | 0.00 | 0.00 | 0.00 | 96 | 1018.3 |
| 20260906090920 | 68 | 190 | 2.6 | 4.3 | 0.00 | 0.00 | 0.00 | 96 | 1018.3 |
| 20260906090757 | 68 | 190 | 2.6 | 4.3 | 0.00 | 0.00 | 0.00 | 96 | 1018.4 |
| 20260906090722 | 68 | 190 | 2.6 | 4.3 | 0.00 | 0.00 | 0.00 | 96 | 1018.3 |
| 20260906090605 | 68 | 190 | 2.6 | 4.3 | 0.00 | 0.00 | 0.00 | 96 | 1018.4 |
| 20260906090530 | 68 | 190 | 1.7 | 4.3 | 0.00 | 0.00 | 0.00 | 96 | 1018.4 |
| 20260906090418 | 68 | 190 | 2.6 | 4.3 | 0.00 | 0.00 | 0.00 | 96 | 1018.4 |
| 20260906090302 | 68 | 190 | 2.6 | 4.3 | 0.00 | 0.00 | 0.00 | 96 | 1018.4 |
| 20260906090206 | 68 | 190 | 2.6 | 4.3 | 0.00 | 0.00 | 0.00 | 96 | 1018.4 |
| 20260906090111 | 68 | 194 | 2.6 | 4.3 | 0.00 | 0.00 | 0.00 | 96 | 1018.4 |
| 20260906090035 | 68 | 194 | 2.6 | 4.3 | 0.00 | 0.00 | 0.00 | 96 | 1018.5 |
| 20260906085900 | 68 | 194 | 3.5 | 4.3 | 0.00 | 0.00 | 0.00 | 96 | 1018.5 |
| 20260906085809 | 68 | 193 | 2.6 | 4.3 | 0.00 | 0.00 | 0.00 | 96 | 1018.5 |
| 20260906085713 | 68 | 192 | 2.6 | 4.3 | 0.00 | 0.00 | 0.00 | 96 | 1018.4 |
| 20260906085558 | 68 | 192 | 2.6 | 4.3 | 0.00 | 0.00 | 0.00 | 96 | 1018.3 |
| 20260906085522 | 68 | 192 | 2.6 | 4.3 | 0.00 | 0.00 | 0.00 | 96 | 1018.4 |
| 20260906085406 | 68 | 192 | 2.6 | 3.5 | 0.00 | 0.00 | 0.00 | 96 | 1018.4 |
| 20260906085331 | 68 | 192 | 2.6 | 3.5 | 0.00 | 0.00 | 0.00 | 96 | 1018.3 |
| 20260906085234 | 68 | 192 | 2.6 | 3.5 | 0.00 | 0.00 | 0.00 | 96 | 1018.3 |
| 20260906085102 | 68 | 192 | 1.7 | 3.5 | 0.00 | 0.00 | 0.00 | 96 | 1018.3 |
| 20260906085007 | 68 | 192 | 1.7 | 3.5 | 0.00 | 0.00 | 0.00 | 96 | 1018.3 |
| 20260906084931 | 68 | 192 | 1.7 | 3.5 | 0.00 | 0.00 | 0.00 | 96 | 1018.3 |
| 20260906084816 | 67 | 192 | 2.6 | 3.5 | 0.00 | 0.00 | 0.00 | 96 | 1018.3 |
| 20260906084721 | 67 | 192 | 1.7 | 3.5 | 0.00 | 0.00 | 0.00 | 96 | 1018.3 |
| 20260906084558 | 67 | 192 | 1.7 | 3.5 | 0.00 | 0.00 | 0.00 | 96 | 1018.3 |
| 20260906084523 | 67 | 192 | 2.6 | 3.5 | 0.00 | 0.00 | 0.00 | 96 | 1018.3 |
| 20260906084410 | 67 | 192 | 2.6 | 3.5 | 0.00 | 0.00 | 0.00 | 96 | 1018.3 |
| 20260906084315 | 67 | 192 | 2.6 | 3.5 | 0.00 | 0.00 | 0.00 | 96 | 1018.3 |
| 20260906084159 | 67 | 191 | 1.7 | 2.6 | 0.00 | 0.00 | 0.00 | 96 | 1018.2 |
| 20260906084104 | 67 | 191 | 1.7 | 2.6 | 0.00 | 0.00 | 0.00 | 96 | 1018.2 |
| 20260906084009 | 67 | 191 | 1.7 | 2.6 | 0.00 | 0.00 | 0.00 | 96 | 1018.2 |
| 20260906083913 | 67 | 191 | 1.7 | 2.6 | 0.00 | 0.00 | 0.00 | 96 | 1018.3 |
| 20260906083801 | 67 | 191 | 1.7 | 2.6 | 0.00 | 0.00 | 0.00 | 96 | 1018.3 |
| 20260906083706 | 67 | 191 | 1.7 | 2.6 | 0.00 | 0.00 | 0.00 | 96 | 1018.3 |
| 20260906083611 | 67 | 191 | 1.7 | 2.6 | 0.00 | 0.00 | 0.00 | 96 | 1018.3 |
| 20260906083515 | 67 | 191 | 0.9 | 1.7 | 0.00 | 0.00 | 0.00 | 96 | 1018.3 |
| 20260906083419 | 67 | 191 | 0.9 | 1.7 | 0.00 | 0.00 | 0.00 | 95 | 1018.3 |
| 20260906083257 | 67 | 191 | 1.7 | 1.7 | 0.00 | 0.00 | 0.00 | 95 | 1018.4 |
| 20260906083205 | 67 | 191 | 0.9 | 1.7 | 0.00 | 0.00 | 0.00 | 95 | 1018.3 |
| 20260906083110 | 67 | 191 | 0.9 | 1.7 | 0.00 | 0.00 | 0.00 | 95 | 1018.3 |
| 20260906083035 | 67 | 191 | 0.9 | 1.7 | 0.00 | 0.00 | 0.00 | 95 | 1018.4 |
| 20260906082918 | 67 | 191 | 0.9 | 1.7 | 0.00 | 0.00 | 0.00 | 95 | 1018.3 |
| 20260906082801 | 67 | 191 | 0.9 | 1.7 | 0.00 | 0.00 | 0.00 | 95 | 1018.4 |
| 20260906082706 | 67 | 191 | 0.9 | 1.7 | 0.00 | 0.00 | 0.00 | 95 | 1018.4 |
| 20260906082609 | 67 | 191 | 1.7 | 1.7 | 0.00 | 0.00 | 0.00 | 95 | 1018.3 |
| 20260906082518 | 67 | 191 | 1.7 | 1.7 | 0.00 | 0.00 | 0.00 | 95 | 1018.4 |
| 20260906082421 | 67 | 191 | 1.7 | 1.7 | 0.00 | 0.00 | 0.00 | 95 | 1018.4 |
| 20260906082259 | 67 | 191 | 0.9 | 2.6 | 0.00 | 0.00 | 0.00 | 95 | 1018.3 |
| 20260906082204 | 67 | 191 | 0.9 | 2.6 | 0.00 | 0.00 | 0.00 | 95 | 1018.4 |
| 20260906082109 | 67 | 191 | 0.0 | 2.6 | 0.00 | 0.00 | 0.00 | 95 | 1018.4 |
| 20260906082013 | 67 | 191 | 0.0 | 2.6 | 0.00 | 0.00 | 0.00 | 95 | 1018.4 |
| 20260906081916 | 67 | 191 | 0.9 | 2.6 | 0.00 | 0.00 | 0.00 | 95 | 1018.4 |
| 20260906081804 | 67 | 191 | 0.0 | 2.6 | 0.00 | 0.00 | 0.00 | 95 | 1018.4 |
| 20260906081708 | 67 | 191 | 0.9 | 2.6 | 0.00 | 0.00 | 0.00 | 95 | 1018.4 |
| 20260906081611 | 67 | 191 | 0.9 | 2.6 | 0.00 | 0.00 | 0.00 | 95 | 1018.4 |
| 20260906081516 | 67 | 191 | 1.7 | 2.6 | 0.00 | 0.00 | 0.00 | 95 | 1018.5 |
| 20260906081422 | 67 | 191 | 1.7 | 2.6 | 0.00 | 0.00 | 0.00 | 96 | 1018.5 |
| 20260906081259 | 67 | 192 | 1.7 | 2.6 | 0.00 | 0.00 | 0.00 | 96 | 1018.4 |
| 20260906081207 | 67 | 192 | 1.7 | 2.6 | 0.00 | 0.00 | 0.00 | 96 | 1018.4 |
| 20260906081132 | 67 | 192 | 1.7 | 2.6 | 0.00 | 0.00 | 0.00 | 95 | 1018.5 |
| 20260906081016 | 67 | 192 | 1.7 | 2.6 | 0.00 | 0.00 | 0.00 | 95 | 1018.4 |
| 20260906080920 | 67 | 192 | 1.7 | 2.6 | 0.00 | 0.00 | 0.00 | 95 | 1018.4 |
| 20260906080825 | 67 | 192 | 1.7 | 2.6 | 0.00 | 0.00 | 0.00 | 95 | 1018.3 |
| 20260906080708 | 67 | 192 | 1.7 | 2.6 | 0.00 | 0.00 | 0.00 | 95 | 1018.3 |
| 20260906080613 | 67 | 192 | 1.7 | 2.6 | 0.00 | 0.00 | 0.00 | 95 | 1018.3 |
| 20260906080518 | 67 | 192 | 1.7 | 2.6 | 0.00 | 0.00 | 0.00 | 95 | 1018.4 |
| 20260906080406 | 67 | 192 | 1.7 | 2.6 | 0.00 | 0.00 | 0.00 | 95 | 1018.4 |
| 20260906080311 | 67 | 192 | 1.7 | 2.6 | 0.00 | 0.00 | 0.00 | 95 | 1018.4 |
| 20260906080215 | 67 | 192 | 0.9 | 2.6 | 0.00 | 0.00 | 0.00 | 95 | 1018.4 |
| 20260906080120 | 67 | 192 | 1.7 | 2.6 | 0.00 | 0.00 | 0.00 | 95 | 1018.4 |
| 20260906080004 | 67 | 192 | 1.7 | 2.6 | 0.00 | 0.00 | 0.00 | 95 | 1018.4 |
| 20260906075909 | 67 | 192 | 0.9 | 2.6 | 0.00 | 0.00 | 0.00 | 95 | 1018.4 |
| 20260906075819 | 67 | 192 | 1.7 | 2.6 | 0.00 | 0.00 | 0.00 | 95 | 1018.4 |
| 20260906075657 | 67 | 192 | 1.7 | 2.6 | 0.00 | 0.00 | 0.00 | 95 | 1018.4 |
| 20260906075602 | 67 | 192 | 1.7 | 2.6 | 0.00 | 0.00 | 0.00 | 94 | 1018.4 |
| 20260906075507 | 67 | 192 | 1.7 | 2.6 | 0.00 | 0.00 | 0.00 | 94 | 1018.4 |
| 20260906075412 | 67 | 192 | 1.7 | 2.6 | 0.00 | 0.00 | 0.00 | 94 | 1018.3 |
| 20260906075316 | 67 | 192 | 1.7 | 2.6 | 0.00 | 0.00 | 0.00 | 94 | 1018.3 |
| 20260906075203 | 67 | 192 | 1.7 | 2.6 | 0.00 | 0.00 | 0.00 | 94 | 1018.4 |
| 20260906075128 | 67 | 192 | 1.7 | 2.6 | 0.00 | 0.00 | 0.00 | 94 | 1018.4 |
| 20260906075012 | 67 | 192 | 0.9 | 2.6 | 0.00 | 0.00 | 0.00 | 94 | 1018.4 |
| 20260906074914 | 67 | 192 | 0.9 | 2.6 | 0.00 | 0.00 | 0.00 | 94 | 1018.4 |
| 20260906074819 | 67 | 192 | 0.9 | 2.6 | 0.00 | 0.00 | 0.00 | 94 | 1018.5 |
| 20260906074657 | 67 | 192 | 1.7 | 2.6 | 0.00 | 0.00 | 0.00 | 95 | 1018.4 |
| 20260906074606 | 67 | 192 | 1.7 | 2.6 | 0.00 | 0.00 | 0.00 | 94 | 1018.4 |
| 20260906074531 | 67 | 192 | 1.7 | 2.6 | 0.00 | 0.00 | 0.00 | 95 | 1018.5 |
| 20260906074434 | 67 | 192 | 0.9 | 2.6 | 0.00 | 0.00 | 0.00 | 94 | 1018.4 |
| 20260906074258 | 67 | 192 | 1.7 | 2.6 | 0.00 | 0.00 | 0.00 | 95 | 1018.4 |
| 20260906074203 | 68 | 192 | 1.7 | 2.6 | 0.00 | 0.00 | 0.00 | 95 | 1018.4 |
| 20260906074107 | 68 | 192 | 1.7 | 2.6 | 0.00 | 0.00 | 0.00 | 95 | 1018.4 |
| 20260906074011 | 68 | 192 | 1.7 | 2.6 | 0.00 | 0.00 | 0.00 | 94 | 1018.5 |
| 20260906073921 | 68 | 192 | 1.7 | 2.6 | 0.00 | 0.00 | 0.00 | 94 | 1018.4 |
| 20260906073803 | 68 | 192 | 1.7 | 2.6 | 0.00 | 0.00 | 0.00 | 94 | 1018.4 |
| 20260906073727 | 68 | 192 | 0.9 | 2.6 | 0.00 | 0.00 | 0.00 | 94 | 1018.4 |
| 20260906073610 | 68 | 192 | 0.9 | 2.6 | 0.00 | 0.00 | 0.00 | 94 | 1018.5 |
| 20260906073515 | 68 | 192 | 1.7 | 2.6 | 0.00 | 0.00 | 0.00 | 94 | 1018.4 |
| 20260906073421 | 68 | 192 | 1.7 | 2.6 | 0.00 | 0.00 | 0.00 | 94 | 1018.4 |
| 20260906073258 | 68 | 192 | 1.7 | 2.6 | 0.00 | 0.00 | 0.00 | 94 | 1018.4 |
| 20260906073207 | 68 | 192 | 0.9 | 2.6 | 0.00 | 0.00 | 0.00 | 94 | 1018.4 |
| 20260906073111 | 68 | 192 | 0.9 | 1.7 | 0.00 | 0.00 | 0.00 | 94 | 1018.5 |
| 20260906073016 | 68 | 192 | 0.9 | 1.7 | 0.00 | 0.00 | 0.00 | 94 | 1018.4 |
| 20260906072942 | 68 | 192 | 1.7 | 1.7 | 0.00 | 0.00 | 0.00 | 94 | 1018.4 |
| 20260906072759 | 68 | 192 | 0.9 | 1.7 | 0.00 | 0.00 | 0.00 | 94 | 1018.4 |
| 20260906072704 | 68 | 192 | 1.7 | 1.7 | 0.00 | 0.00 | 0.00 | 94 | 1018.5 |
| 20260906072609 | 68 | 192 | 0.9 | 1.7 | 0.00 | 0.00 | 0.00 | 94 | 1018.5 |
| 20260906072457 | 68 | 192 | 0.9 | 1.7 | 0.00 | 0.00 | 0.00 | 94 | 1018.6 |
| 20260906072421 | 68 | 192 | 0.9 | 1.7 | 0.00 | 0.00 | 0.00 | 94 | 1018.6 |
| 20260906072259 | 68 | 192 | 0.0 | 0.9 | 0.00 | 0.00 | 0.00 | 94 | 1018.6 |
| 20260906072204 | 68 | 192 | 0.0 | 1.7 | 0.00 | 0.00 | 0.00 | 94 | 1018.6 |
| 20260906072108 | 68 | 192 | 0.0 | 1.7 | 0.00 | 0.00 | 0.00 | 94 | 1018.6 |
| 20260906071957 | 68 | 192 | 0.0 | 1.7 | 0.00 | 0.00 | 0.00 | 94 | 1018.6 |
| 20260906071901 | 68 | 192 | 0.0 | 2.6 | 0.00 | 0.00 | 0.00 | 94 | 1018.6 |
| 20260906071807 | 68 | 192 | 0.0 | 2.6 | 0.00 | 0.00 | 0.00 | 94 | 1018.6 |
| 20260906071712 | 68 | 192 | 0.0 | 2.6 | 0.00 | 0.00 | 0.00 | 94 | 1018.6 |
| 20260906071637 | 68 | 192 | 0.0 | 2.6 | 0.00 | 0.00 | 0.00 | 94 | 1018.6 |
| 20260906071520 | 68 | 192 | 0.0 | 2.6 | 0.00 | 0.00 | 0.00 | 94 | 1018.6 |
| 20260906071404 | 68 | 192 | 0.9 | 2.6 | 0.00 | 0.00 | 0.00 | 94 | 1018.6 |
| 20260906071313 | 68 | 192 | 1.7 | 2.6 | 0.00 | 0.00 | 0.00 | 94 | 1018.6 |
| 20260906071157 | 68 | 192 | 1.7 | 2.6 | 0.00 | 0.00 | 0.00 | 94 | 1018.6 |
| 20260906071102 | 68 | 192 | 1.7 | 2.6 | 0.00 | 0.00 | 0.00 | 94 | 1018.6 |
| 20260906071007 | 68 | 192 | 1.7 | 2.6 | 0.00 | 0.00 | 0.00 | 94 | 1018.6 |
| 20260906070911 | 68 | 192 | 1.7 | 2.6 | 0.00 | 0.00 | 0.00 | 94 | 1018.6 |
| 20260906070815 | 68 | 192 | 1.7 | 2.6 | 0.00 | 0.00 | 0.00 | 94 | 1018.6 |
| 20260906070704 | 68 | 192 | 1.7 | 2.6 | 0.00 | 0.00 | 0.00 | 94 | 1018.6 |
| 20260906070628 | 68 | 192 | 0.9 | 2.6 | 0.00 | 0.00 | 0.00 | 94 | 1018.6 |
| 20260906070533 | 68 | 192 | 1.7 | 2.6 | 0.00 | 0.00 | 0.00 | 94 | 1018.6 |
| 20260906070417 | 68 | 192 | 1.7 | 2.6 | 0.00 | 0.00 | 0.00 | 94 | 1018.6 |
| 20260906070342 | 68 | 192 | 1.7 | 2.6 | 0.00 | 0.00 | 0.00 | 94 | 1018.7 |
| 20260906070158 | 68 | 192 | 1.7 | 2.6 | 0.00 | 0.00 | 0.00 | 94 | 1018.6 |
| 20260906070123 | 68 | 192 | 1.7 | 2.6 | 0.00 | 0.00 | 0.00 | 94 | 1018.7 |
| 20260906070006 | 68 | 192 | 1.7 | 2.6 | 0.00 | 0.00 | 0.00 | 94 | 1018.7 |
| 20260906065932 | 68 | 192 | 2.6 | 2.6 | 0.00 | 0.00 | 0.00 | 94 | 1018.8 |
| 20260906065819 | 68 | 192 | 1.7 | 2.6 | 0.00 | 0.00 | 0.00 | 94 | 1018.8 |
| 20260906065723 | 68 | 192 | 1.7 | 2.6 | 0.00 | 0.00 | 0.00 | 94 | 1018.8 |
| 20260906065607 | 68 | 192 | 0.9 | 2.6 | 0.00 | 0.00 | 0.00 | 94 | 1018.8 |
| 20260906065512 | 68 | 192 | 0.9 | 2.6 | 0.00 | 0.00 | 0.00 | 94 | 1018.9 |
| 20260906065416 | 68 | 192 | 0.9 | 2.6 | 0.00 | 0.00 | 0.00 | 94 | 1018.8 |
| 20260906065342 | 68 | 192 | 0.9 | 2.6 | 0.00 | 0.00 | 0.00 | 94 | 1018.8 |
| 20260906065158 | 68 | 192 | 1.7 | 2.6 | 0.00 | 0.00 | 0.00 | 94 | 1018.9 |
| 20260906065106 | 68 | 192 | 1.7 | 2.6 | 0.00 | 0.00 | 0.00 | 94 | 1018.9 |
| 20260906065010 | 68 | 192 | 1.7 | 2.6 | 0.00 | 0.00 | 0.00 | 94 | 1018.8 |
| 20260906064915 | 68 | 192 | 1.7 | 2.6 | 0.00 | 0.00 | 0.00 | 94 | 1018.8 |
| 20260906064821 | 68 | 192 | 1.7 | 3.5 | 0.00 | 0.00 | 0.00 | 93 | 1018.9 |
| 20260906064659 | 68 | 192 | 0.9 | 3.5 | 0.00 | 0.00 | 0.00 | 94 | 1018.8 |
| 20260906064604 | 68 | 192 | 0.9 | 3.5 | 0.00 | 0.00 | 0.00 | 94 | 1018.9 |
| 20260906064532 | 68 | 192 | 0.9 | 3.5 | 0.00 | 0.00 | 0.00 | 94 | 1018.9 |
| 20260906064415 | 68 | 192 | 0.0 | 3.5 | 0.00 | 0.00 | 0.00 | 94 | 1018.8 |
| 20260906064320 | 68 | 192 | 0.0 | 3.5 | 0.00 | 0.00 | 0.00 | 94 | 1018.8 |
| 20260906064203 | 68 | 192 | 0.9 | 3.5 | 0.00 | 0.00 | 0.00 | 94 | 1018.9 |
| 20260906064127 | 68 | 192 | 1.7 | 3.5 | 0.00 | 0.00 | 0.00 | 94 | 1018.9 |
| 20260906064031 | 68 | 192 | 1.7 | 3.5 | 0.00 | 0.00 | 0.00 | 94 | 1018.8 |
| 20260906063915 | 68 | 192 | 1.7 | 3.5 | 0.00 | 0.00 | 0.00 | 94 | 1018.8 |
| 20260906063819 | 68 | 192 | 0.9 | 3.5 | 0.00 | 0.00 | 0.00 | 94 | 1018.8 |
| 20260906063705 | 68 | 192 | 1.7 | 3.5 | 0.00 | 0.00 | 0.00 | 94 | 1018.8 |
| 20260906063610 | 68 | 192 | 1.7 | 3.5 | 0.00 | 0.00 | 0.00 | 94 | 1018.8 |
| 20260906063515 | 68 | 192 | 2.6 | 3.5 | 0.00 | 0.00 | 0.00 | 94 | 1018.8 |
| 20260906063419 | 68 | 192 | 2.6 | 3.5 | 0.00 | 0.00 | 0.00 | 94 | 1018.8 |
| 20260906063322 | 68 | 192 | 2.6 | 3.5 | 0.00 | 0.00 | 0.00 | 93 | 1018.8 |
| 20260906063158 | 68 | 192 | 2.6 | 3.5 | 0.00 | 0.00 | 0.00 | 93 | 1018.8 |
| 20260906063108 | 68 | 192 | 2.6 | 3.5 | 0.00 | 0.00 | 0.00 | 93 | 1018.8 |
| 20260906063012 | 68 | 192 | 2.6 | 3.5 | 0.00 | 0.00 | 0.00 | 93 | 1018.8 |
| 20260906062857 | 68 | 192 | 3.5 | 3.5 | 0.00 | 0.00 | 0.00 | 93 | 1018.8 |
| 20260906062822 | 68 | 192 | 3.5 | 3.5 | 0.00 | 0.00 | 0.00 | 93 | 1018.8 |
| 20260906062706 | 68 | 192 | 2.6 | 3.5 | 0.00 | 0.00 | 0.00 | 93 | 1018.8 |
| 20260906062610 | 68 | 192 | 3.5 | 3.5 | 0.00 | 0.00 | 0.00 | 93 | 1018.8 |
| 20260906062458 | 68 | 192 | 2.6 | 3.5 | 0.00 | 0.00 | 0.00 | 94 | 1018.7 |
| 20260906062421 | 68 | 192 | 3.5 | 3.5 | 0.00 | 0.00 | 0.00 | 94 | 1018.7 |
| 20260906062259 | 68 | 192 | 2.6 | 3.5 | 0.00 | 0.00 | 0.00 | 94 | 1018.8 |
| 20260906062223 | 68 | 192 | 2.6 | 3.5 | 0.00 | 0.00 | 0.00 | 94 | 1018.8 |
| 20260906062105 | 68 | 192 | 2.6 | 3.5 | 0.00 | 0.00 | 0.00 | 93 | 1018.7 |
| 20260906062010 | 68 | 192 | 2.6 | 3.5 | 0.00 | 0.00 | 0.00 | 93 | 1018.7 |
| 20260906061915 | 68 | 192 | 2.6 | 3.5 | 0.00 | 0.00 | 0.00 | 93 | 1018.8 |
| 20260906061804 | 68 | 192 | 2.6 | 3.5 | 0.00 | 0.00 | 0.00 | 93 | 1018.8 |
| 20260906061708 | 68 | 191 | 2.6 | 3.5 | 0.00 | 0.00 | 0.00 | 92 | 1018.8 |
| 20260906061614 | 68 | 191 | 2.6 | 3.5 | 0.00 | 0.00 | 0.00 | 92 | 1018.7 |
| 20260906061457 | 68 | 191 | 2.6 | 3.5 | 0.00 | 0.00 | 0.00 | 92 | 1018.8 |
| 20260906061401 | 68 | 191 | 2.6 | 3.5 | 0.00 | 0.00 | 0.00 | 93 | 1018.8 |
| 20260906061326 | 69 | 191 | 1.7 | 3.5 | 0.00 | 0.00 | 0.00 | 93 | 1018.8 |
| 20260906061209 | 69 | 191 | 1.7 | 2.6 | 0.00 | 0.00 | 0.00 | 93 | 1018.8 |
| 20260906061138 | 69 | 191 | 1.7 | 2.6 | 0.00 | 0.00 | 0.00 | 93 | 1018.8 |
| 20260906061041 | 69 | 191 | 1.7 | 2.6 | 0.00 | 0.00 | 0.00 | 94 | 1018.8 |
| 20260906060859 | 69 | 191 | 1.7 | 2.6 | 0.00 | 0.00 | 0.00 | 93 | 1018.9 |
| 20260906060823 | 69 | 191 | 1.7 | 2.6 | 0.00 | 0.00 | 0.00 | 93 | 1018.9 |
| 20260906060701 | 69 | 191 | 1.7 | 3.5 | 0.00 | 0.00 | 0.00 | 93 | 1018.9 |
| 20260906060626 | 69 | 191 | 1.7 | 3.5 | 0.00 | 0.00 | 0.00 | 93 | 1018.9 |
| 20260906060509 | 69 | 191 | 1.7 | 3.5 | 0.00 | 0.00 | 0.00 | 93 | 1018.9 |
| 20260906060419 | 69 | 191 | 1.7 | 3.5 | 0.00 | 0.00 | 0.00 | 93 | 1018.9 |
| 20260906060257 | 69 | 191 | 1.7 | 3.5 | 0.00 | 0.00 | 0.00 | 94 | 1018.8 |
| 20260906060221 | 69 | 191 | 1.7 | 3.5 | 0.00 | 0.00 | 0.00 | 94 | 1018.8 |
| 20260906060059 | 69 | 191 | 1.7 | 3.5 | 0.00 | 0.00 | 0.00 | 93 | 1018.8 |
| 20260906060003 | 69 | 191 | 1.7 | 3.5 | 0.00 | 0.00 | 0.00 | 93 | 1018.8 |
| 20260906055906 | 69 | 191 | 2.6 | 3.5 | 0.00 | 0.00 | 0.00 | 93 | 1018.8 |
| 20260906055831 | 69 | 191 | 2.6 | 2.6 | 0.00 | 0.00 | 0.00 | 93 | 1018.8 |
| 20260906055718 | 69 | 191 | 1.7 | 2.6 | 0.00 | 0.00 | 0.00 | 93 | 1018.8 |
| 20260906055622 | 69 | 191 | 1.7 | 2.6 | 0.00 | 0.00 | 0.00 | 93 | 1018.8 |
| 20260906055501 | 69 | 191 | 1.7 | 2.6 | 0.00 | 0.00 | 0.00 | 93 | 1018.7 |
| 20260906055426 | 69 | 191 | 1.7 | 2.6 | 0.00 | 0.00 | 0.00 | 93 | 1018.9 |
| 20260906055329 | 69 | 191 | 1.7 | 2.6 | 0.00 | 0.00 | 0.00 | 93 | 1018.9 |
| 20260906055235 | 69 | 191 | 1.7 | 2.6 | 0.00 | 0.00 | 0.00 | 93 | 1018.8 |
| 20260906055119 | 69 | 191 | 0.9 | 2.6 | 0.00 | 0.00 | 0.00 | 93 | 1018.8 |
| 20260906055003 | 69 | 191 | 0.9 | 2.6 | 0.00 | 0.00 | 0.00 | 93 | 1018.8 |
| 20260906054912 | 69 | 191 | 0.9 | 2.6 | 0.00 | 0.00 | 0.00 | 94 | 1018.8 |
| 20260906054837 | 69 | 191 | 0.9 | 2.6 | 0.00 | 0.00 | 0.00 | 94 | 1018.8 |
| 20260906054720 | 69 | 191 | 0.9 | 2.6 | 0.00 | 0.00 | 0.00 | 94 | 1018.9 |
| 20260906054558 | 69 | 191 | 1.7 | 2.6 | 0.00 | 0.00 | 0.00 | 94 | 1018.8 |
| 20260906054503 | 69 | 191 | 1.7 | 2.6 | 0.00 | 0.00 | 0.00 | 94 | 1018.8 |
| 20260906054407 | 69 | 191 | 0.9 | 2.6 | 0.00 | 0.00 | 0.00 | 94 | 1018.8 |
| 20260906054333 | 69 | 191 | 1.7 | 2.6 | 0.00 | 0.00 | 0.00 | 94 | 1018.8 |
| 20260906054219 | 69 | 191 | 1.7 | 2.6 | 0.00 | 0.00 | 0.00 | 94 | 1018.8 |
| 20260906054057 | 69 | 191 | 0.9 | 2.6 | 0.00 | 0.00 | 0.00 | 94 | 1018.8 |
| 20260906054001 | 69 | 192 | 0.9 | 1.7 | 0.00 | 0.00 | 0.00 | 94 | 1018.8 |
| 20260906053926 | 69 | 191 | 0.9 | 1.7 | 0.00 | 0.00 | 0.00 | 94 | 1018.8 |
| 20260906053809 | 69 | 191 | 0.0 | 1.7 | 0.00 | 0.00 | 0.00 | 94 | 1018.8 |
| 20260906053714 | 69 | 191 | 0.0 | 0.0 | 0.00 | 0.00 | 0.00 | 94 | 1018.8 |
| 20260906053603 | 69 | 191 | 0.0 | 0.0 | 0.00 | 0.00 | 0.00 | 94 | 1018.8 |
| 20260906053507 | 69 | 191 | 0.0 | 0.0 | 0.00 | 0.00 | 0.00 | 94 | 1018.8 |
| 20260906053412 | 69 | 191 | 0.0 | 0.0 | 0.00 | 0.00 | 0.00 | 94 | 1018.8 |
| 20260906053257 | 69 | 191 | 0.0 | 0.0 | 0.00 | 0.00 | 0.00 | 94 | 1018.8 |
| 20260906053201 | 69 | 191 | 0.0 | 0.0 | 0.00 | 0.00 | 0.00 | 94 | 1018.8 |
| 20260906053107 | 69 | 191 | 0.0 | 0.0 | 0.00 | 0.00 | 0.00 | 94 | 1018.8 |
| 20260906053031 | 69 | 191 | 0.0 | 0.0 | 0.00 | 0.00 | 0.00 | 94 | 1018.7 |
| 20260906052919 | 69 | 191 | 0.0 | 0.0 | 0.00 | 0.00 | 0.00 | 94 | 1018.8 |
| 20260906052757 | 69 | 191 | 0.0 | 0.0 | 0.00 | 0.00 | 0.00 | 93 | 1018.8 |
| 20260906052721 | 69 | 191 | 0.0 | 0.9 | 0.00 | 0.00 | 0.00 | 93 | 1018.8 |
| 20260906052558 | 69 | 191 | 0.0 | 0.9 | 0.00 | 0.00 | 0.00 | 93 | 1018.8 |
| 20260906052504 | 69 | 191 | 0.0 | 1.7 | 0.00 | 0.00 | 0.00 | 93 | 1018.9 |
| 20260906052409 | 69 | 191 | 0.0 | 1.7 | 0.00 | 0.00 | 0.00 | 93 | 1018.9 |
| 20260906052257 | 69 | 191 | 0.0 | 1.7 | 0.00 | 0.00 | 0.00 | 94 | 1018.8 |
| 20260906052221 | 69 | 191 | 0.0 | 2.6 | 0.00 | 0.00 | 0.00 | 94 | 1018.8 |
| 20260906052058 | 69 | 191 | 0.0 | 2.6 | 0.00 | 0.00 | 0.00 | 94 | 1018.9 |
| 20260906052004 | 69 | 191 | 0.0 | 2.6 | 0.00 | 0.00 | 0.00 | 94 | 1018.9 |
| 20260906051909 | 69 | 191 | 0.0 | 2.6 | 0.00 | 0.00 | 0.00 | 94 | 1018.9 |
| 20260906051833 | 69 | 191 | 0.9 | 2.6 | 0.00 | 0.00 | 0.00 | 94 | 1018.9 |
| 20260906051721 | 69 | 191 | 0.9 | 2.6 | 0.00 | 0.00 | 0.00 | 94 | 1018.9 |
| 20260906051559 | 69 | 191 | 0.9 | 2.6 | 0.00 | 0.00 | 0.00 | 94 | 1018.8 |
| 20260906051523 | 69 | 191 | 1.7 | 2.6 | 0.00 | 0.00 | 0.00 | 94 | 1018.8 |
| 20260906051401 | 69 | 191 | 1.7 | 2.6 | 0.00 | 0.00 | 0.00 | 94 | 1018.8 |
| 20260906051305 | 69 | 191 | 1.7 | 2.6 | 0.00 | 0.00 | 0.00 | 94 | 1018.8 |
| 20260906051231 | 69 | 191 | 1.7 | 2.6 | 0.00 | 0.00 | 0.00 | 94 | 1018.8 |
| 20260906051135 | 69 | 192 | 1.7 | 2.6 | 0.00 | 0.00 | 0.00 | 94 | 1018.8 |
| 20260906051001 | 69 | 192 | 1.7 | 2.6 | 0.00 | 0.00 | 0.00 | 94 | 1018.7 |
| 20260906050906 | 69 | 192 | 0.9 | 1.7 | 0.00 | 0.00 | 0.00 | 94 | 1018.7 |
| 20260906050831 | 69 | 192 | 0.9 | 1.7 | 0.00 | 0.00 | 0.00 | 94 | 1018.7 |
| 20260906050735 | 69 | 192 | 0.0 | 0.9 | 0.00 | 0.00 | 0.00 | 94 | 1018.8 |
| 20260906050618 | 69 | 192 | 0.0 | 1.7 | 0.00 | 0.00 | 0.00 | 94 | 1018.7 |
| 20260906050542 | 69 | 192 | 0.0 | 1.7 | 0.00 | 0.00 | 0.00 | 94 | 1018.7 |
| 20260906050358 | 69 | 192 | 0.0 | 1.7 | 0.00 | 0.00 | 0.00 | 94 | 1018.7 |
| 20260906050302 | 69 | 192 | 0.0 | 1.7 | 0.00 | 0.00 | 0.00 | 94 | 1018.7 |
| 20260906050211 | 69 | 192 | 0.0 | 1.7 | 0.00 | 0.00 | 0.00 | 94 | 1018.7 |
| 20260906050107 | 69 | 192 | 0.0 | 1.7 | 0.00 | 0.00 | 0.00 | 94 | 1018.8 |
| 20260906050012 | 69 | 192 | 0.9 | 1.7 | 0.00 | 0.00 | 0.00 | 94 | 1018.8 |
| 20260906045937 | 69 | 192 | 0.9 | 1.7 | 0.00 | 0.00 | 0.00 | 94 | 1018.7 |
| 20260906045800 | 68 | 192 | 0.9 | 1.7 | 0.00 | 0.00 | 0.00 | 94 | 1018.7 |
| 20260906045705 | 69 | 192 | 0.0 | 1.7 | 0.00 | 0.00 | 0.00 | 94 | 1018.7 |
| 20260906045614 | 68 | 192 | 0.0 | 1.7 | 0.00 | 0.00 | 0.00 | 94 | 1018.7 |
| 20260906045458 | 68 | 192 | 0.0 | 1.7 | 0.00 | 0.00 | 0.00 | 94 | 1018.8 |
| 20260906045424 | 68 | 192 | 0.0 | 1.7 | 0.00 | 0.00 | 0.00 | 93 | 1018.7 |
| 20260906045326 | 68 | 192 | 0.0 | 1.7 | 0.00 | 0.00 | 0.00 | 94 | 1018.7 |
| 20260906045209 | 68 | 192 | 0.0 | 1.7 | 0.00 | 0.00 | 0.00 | 93 | 1018.7 |
| 20260906045112 | 68 | 192 | 0.9 | 1.7 | 0.00 | 0.00 | 0.00 | 93 | 1018.8 |
| 20260906045016 | 68 | 192 | 0.9 | 1.7 | 0.00 | 0.00 | 0.00 | 94 | 1018.8 |
| 20260906044905 | 68 | 192 | 0.9 | 1.7 | 0.00 | 0.00 | 0.00 | 93 | 1018.8 |
| 20260906044809 | 68 | 192 | 0.9 | 1.7 | 0.00 | 0.00 | 0.00 | 93 | 1018.8 |
| 20260906044713 | 68 | 192 | 0.9 | 1.7 | 0.00 | 0.00 | 0.00 | 93 | 1018.8 |
| 20260906044618 | 68 | 192 | 0.0 | 1.7 | 0.00 | 0.00 | 0.00 | 93 | 1018.8 |
| 20260906044521 | 68 | 192 | 0.0 | 1.7 | 0.00 | 0.00 | 0.00 | 93 | 1018.8 |
| 20260906044400 | 68 | 192 | 0.0 | 1.7 | 0.00 | 0.00 | 0.00 | 93 | 1018.8 |
| 20260906044304 | 68 | 192 | 0.9 | 1.7 | 0.00 | 0.00 | 0.00 | 93 | 1018.9 |
| 20260906044213 | 68 | 192 | 0.9 | 1.7 | 0.00 | 0.00 | 0.00 | 93 | 1018.9 |
| 20260906044117 | 68 | 192 | 0.9 | 1.7 | 0.00 | 0.00 | 0.00 | 93 | 1018.8 |
| 20260906044042 | 68 | 192 | 0.9 | 1.7 | 0.00 | 0.00 | 0.00 | 93 | 1018.8 |
| 20260906043859 | 68 | 192 | 0.9 | 1.7 | 0.00 | 0.00 | 0.00 | 93 | 1018.8 |
| 20260906043805 | 68 | 192 | 0.9 | 1.7 | 0.00 | 0.00 | 0.00 | 93 | 1018.8 |
| 20260906043709 | 68 | 192 | 0.9 | 1.7 | 0.00 | 0.00 | 0.00 | 93 | 1018.8 |
| 20260906043558 | 68 | 192 | 0.9 | 1.7 | 0.00 | 0.00 | 0.00 | 93 | 1018.8 |
| 20260906043523 | 68 | 192 | 0.9 | 1.7 | 0.00 | 0.00 | 0.00 | 93 | 1018.8 |
| 20260906043426 | 68 | 192 | 0.9 | 1.7 | 0.00 | 0.00 | 0.00 | 93 | 1018.8 |
| 20260906043309 | 68 | 192 | 0.9 | 1.7 | 0.00 | 0.00 | 0.00 | 93 | 1018.8 |
| 20260906043215 | 68 | 192 | 0.9 | 0.9 | 0.00 | 0.00 | 0.00 | 93 | 1018.9 |
| 20260906043058 | 68 | 192 | 0.9 | 0.9 | 0.00 | 0.00 | 0.00 | 93 | 1018.9 |
| 20260906043023 | 68 | 192 | 0.0 | 0.9 | 0.00 | 0.00 | 0.00 | 93 | 1018.9 |
| 20260906042906 | 68 | 192 | 0.0 | 0.0 | 0.00 | 0.00 | 0.00 | 93 | 1018.9 |
| 20260906042814 | 68 | 192 | 0.0 | 0.0 | 0.00 | 0.00 | 0.00 | 93 | 1018.9 |
| 20260906042659 | 68 | 192 | 0.0 | 0.0 | 0.00 | 0.00 | 0.00 | 93 | 1018.9 |
| 20260906042603 | 68 | 192 | 0.0 | 0.0 | 0.00 | 0.00 | 0.00 | 93 | 1018.9 |
| 20260906042527 | 68 | 192 | 0.0 | 0.0 | 0.00 | 0.00 | 0.00 | 93 | 1018.9 |
| 20260906042411 | 68 | 192 | 0.0 | 0.0 | 0.00 | 0.00 | 0.00 | 93 | 1018.9 |
| 20260906042315 | 68 | 192 | 0.0 | 0.0 | 0.00 | 0.00 | 0.00 | 93 | 1018.9 |
| 20260906042205 | 68 | 192 | 0.0 | 0.0 | 0.00 | 0.00 | 0.00 | 92 | 1018.9 |
| 20260906042109 | 68 | 192 | 0.0 | 0.9 | 0.00 | 0.00 | 0.00 | 92 | 1018.9 |
| 20260906042014 | 68 | 192 | 0.0 | 0.9 | 0.00 | 0.00 | 0.00 | 92 | 1018.9 |
| 20260906041858 | 68 | 192 | 0.0 | 1.7 | 0.00 | 0.00 | 0.00 | 92 | 1018.9 |
| 20260906041804 | 68 | 192 | 0.0 | 1.7 | 0.00 | 0.00 | 0.00 | 92 | 1018.9 |
| 20260906041707 | 68 | 192 | 0.0 | 1.7 | 0.00 | 0.00 | 0.00 | 92 | 1018.9 |
| 20260906041631 | 68 | 192 | 0.0 | 1.7 | 0.00 | 0.00 | 0.00 | 92 | 1018.9 |
| 20260906041520 | 68 | 192 | 0.0 | 1.7 | 0.00 | 0.00 | 0.00 | 92 | 1018.9 |
| 20260906041358 | 68 | 192 | 0.0 | 1.7 | 0.00 | 0.00 | 0.00 | 92 | 1018.9 |
| 20260906041302 | 68 | 192 | 0.9 | 1.7 | 0.00 | 0.00 | 0.00 | 92 | 1018.9 |
| 20260906041228 | 68 | 192 | 0.9 | 1.7 | 0.00 | 0.00 | 0.00 | 92 | 1018.9 |
| 20260906041111 | 69 | 192 | 0.9 | 1.7 | 0.00 | 0.00 | 0.00 | 92 | 1018.9 |
| 20260906041015 | 69 | 192 | 0.9 | 1.7 | 0.00 | 0.00 | 0.00 | 92 | 1018.9 |
| 20260906040904 | 69 | 192 | 0.9 | 1.7 | 0.00 | 0.00 | 0.00 | 92 | 1018.9 |
| 20260906040809 | 69 | 192 | 0.9 | 1.7 | 0.00 | 0.00 | 0.00 | 92 | 1018.9 |
| 20260906040713 | 69 | 192 | 0.0 | 1.7 | 0.00 | 0.00 | 0.00 | 92 | 1018.9 |
| 20260906040618 | 69 | 192 | 0.9 | 1.7 | 0.00 | 0.00 | 0.00 | 92 | 1018.9 |
| 20260906040502 | 69 | 192 | 0.9 | 1.7 | 0.00 | 0.00 | 0.00 | 92 | 1018.8 |
| 20260906040408 | 69 | 192 | 0.9 | 1.7 | 0.00 | 0.00 | 0.00 | 92 | 1018.8 |
| 20260906040311 | 69 | 192 | 0.9 | 1.7 | 0.00 | 0.00 | 0.00 | 92 | 1018.8 |
| 20260906040220 | 69 | 192 | 0.9 | 1.7 | 0.00 | 0.00 | 0.00 | 92 | 1018.9 |
| 20260906040057 | 69 | 192 | 0.0 | 1.7 | 0.00 | 0.00 | 0.00 | 92 | 1018.9 |
| 20260906040002 | 69 | 192 | 0.0 | 1.7 | 0.00 | 0.00 | 0.00 | 92 | 1018.9 |
| 20260906035906 | 69 | 192 | 0.0 | 1.7 | 0.00 | 0.00 | 0.00 | 92 | 1018.9 |
| 20260906035811 | 69 | 192 | 0.0 | 1.7 | 0.00 | 0.00 | 0.00 | 92 | 1018.9 |
| 20260906035700 | 69 | 192 | 0.9 | 1.7 | 0.00 | 0.00 | 0.00 | 92 | 1018.9 |
| 20260906035603 | 69 | 192 | 0.9 | 1.7 | 0.00 | 0.00 | 0.00 | 92 | 1018.9 |
| 20260906035508 | 69 | 192 | 0.9 | 1.7 | 0.00 | 0.00 | 0.00 | 92 | 1018.9 |
| 20260906035432 | 69 | 192 | 0.9 | 1.7 | 0.00 | 0.00 | 0.00 | 92 | 1018.9 |
| 20260906035315 | 69 | 192 | 0.9 | 1.7 | 0.00 | 0.00 | 0.00 | 92 | 1018.8 |
| 20260906035220 | 69 | 192 | 0.9 | 1.7 | 0.00 | 0.00 | 0.00 | 92 | 1018.9 |
| 20260906035057 | 69 | 192 | 0.9 | 0.9 | 0.00 | 0.00 | 0.00 | 92 | 1018.8 |
| 20260906035026 | 69 | 192 | 0.0 | 0.9 | 0.00 | 0.00 | 0.00 | 92 | 1018.9 |
| 20260906034909 | 69 | 192 | 0.0 | 0.0 | 0.00 | 0.00 | 0.00 | 92 | 1018.9 |
| 20260906034813 | 69 | 192 | 0.0 | 0.0 | 0.00 | 0.00 | 0.00 | 92 | 1018.8 |
| 20260906034736 | 69 | 192 | 0.0 | 0.0 | 0.00 | 0.00 | 0.00 | 92 | 1018.9 |
| 20260906034601 | 69 | 192 | 0.0 | 0.0 | 0.00 | 0.00 | 0.00 | 91 | 1018.9 |
| 20260906034505 | 69 | 192 | 0.0 | 0.9 | 0.00 | 0.00 | 0.00 | 91 | 1018.9 |
| 20260906034430 | 69 | 192 | 0.0 | 1.7 | 0.00 | 0.00 | 0.00 | 91 | 1018.9 |
| 20260906034258 | 69 | 192 | 0.0 | 1.7 | 0.00 | 0.00 | 0.00 | 91 | 1018.9 |
| 20260906034203 | 69 | 192 | 0.0 | 1.7 | 0.00 | 0.00 | 0.00 | 91 | 1018.9 |
| 20260906034106 | 69 | 192 | 0.0 | 1.7 | 0.00 | 0.00 | 0.00 | 91 | 1018.9 |
| 20260906034012 | 69 | 192 | 0.0 | 1.7 | 0.00 | 0.00 | 0.00 | 91 | 1018.9 |
| 20260906033936 | 69 | 192 | 0.0 | 1.7 | 0.00 | 0.00 | 0.00 | 91 | 1018.9 |
| 20260906033800 | 69 | 192 | 0.9 | 1.7 | 0.00 | 0.00 | 0.00 | 91 | 1018.9 |
| 20260906033708 | 69 | 192 | 0.9 | 1.7 | 0.00 | 0.00 | 0.00 | 91 | 1018.9 |
| 20260906033612 | 69 | 192 | 0.9 | 1.7 | 0.00 | 0.00 | 0.00 | 91 | 1018.9 |
| 20260906033517 | 69 | 192 | 1.7 | 1.7 | 0.00 | 0.00 | 0.00 | 91 | 1019.0 |
| 20260906033402 | 69 | 192 | 1.7 | 1.7 | 0.00 | 0.00 | 0.00 | 91 | 1018.9 |
| 20260906033327 | 69 | 192 | 1.7 | 1.7 | 0.00 | 0.00 | 0.00 | 91 | 1018.9 |
| 20260906033209 | 69 | 192 | 1.7 | 1.7 | 0.00 | 0.00 | 0.00 | 91 | 1018.9 |
| 20260906033113 | 69 | 192 | 1.7 | 1.7 | 0.00 | 0.00 | 0.00 | 90 | 1018.9 |
| 20260906033021 | 69 | 192 | 0.9 | 1.7 | 0.00 | 0.00 | 0.00 | 90 | 1018.9 |
| 20260906032926 | 69 | 192 | 0.9 | 1.7 | 0.00 | 0.00 | 0.00 | 90 | 1019.0 |
| 20260906032809 | 69 | 192 | 0.9 | 1.7 | 0.00 | 0.00 | 0.00 | 90 | 1019.0 |
| 20260906032713 | 69 | 192 | 0.0 | 1.7 | 0.00 | 0.00 | 0.00 | 90 | 1019.0 |
| 20260906032558 | 69 | 192 | 0.0 | 0.0 | 0.00 | 0.00 | 0.00 | 90 | 1019.0 |
| 20260906032504 | 69 | 192 | 0.0 | 0.0 | 0.00 | 0.00 | 0.00 | 90 | 1019.0 |
| 20260906032428 | 69 | 192 | 0.0 | 0.9 | 0.00 | 0.00 | 0.00 | 90 | 1019.0 |
| 20260906032256 | 69 | 192 | 0.0 | 0.9 | 0.00 | 0.00 | 0.00 | 90 | 1019.1 |
| 20260906032202 | 69 | 192 | 0.0 | 0.9 | 0.00 | 0.00 | 0.00 | 89 | 1019.0 |
| 20260906032107 | 69 | 192 | 0.0 | 0.9 | 0.00 | 0.00 | 0.00 | 89 | 1019.1 |
| 20260906032011 | 69 | 192 | 0.0 | 0.9 | 0.00 | 0.00 | 0.00 | 89 | 1019.1 |
| 20260906031936 | 69 | 192 | 0.0 | 0.9 | 0.00 | 0.00 | 0.00 | 89 | 1019.1 |
| 20260906031800 | 69 | 192 | 0.0 | 0.9 | 0.00 | 0.00 | 0.00 | 89 | 1019.1 |
| 20260906031708 | 69 | 192 | 0.0 | 0.9 | 0.00 | 0.00 | 0.00 | 89 | 1019.1 |
| 20260906031613 | 69 | 192 | 0.0 | 0.9 | 0.00 | 0.00 | 0.00 | 89 | 1019.2 |
| 20260906031519 | 70 | 192 | 0.0 | 0.9 | 0.00 | 0.00 | 0.00 | 89 | 1019.1 |
| 20260906031444 | 70 | 192 | 0.0 | 0.9 | 0.00 | 0.00 | 0.00 | 89 | 1019.1 |
| 20260906031300 | 70 | 192 | 0.0 | 0.9 | 0.00 | 0.00 | 0.00 | 89 | 1019.0 |
| 20260906031204 | 70 | 192 | 0.0 | 1.7 | 0.00 | 0.00 | 0.00 | 89 | 1019.1 |
| 20260906031109 | 70 | 192 | 0.0 | 1.7 | 0.00 | 0.00 | 0.00 | 89 | 1019.1 |
| 20260906031017 | 70 | 192 | 0.0 | 1.7 | 0.00 | 0.00 | 0.00 | 89 | 1019.0 |
| 20260906030942 | 70 | 192 | 0.0 | 1.7 | 0.00 | 0.00 | 0.00 | 88 | 1019.1 |
| 20260906030759 | 70 | 192 | 0.0 | 1.7 | 0.00 | 0.00 | 0.00 | 89 | 1019.1 |
| 20260906030704 | 70 | 192 | 0.0 | 1.7 | 0.00 | 0.00 | 0.00 | 89 | 1019.0 |
| 20260906030608 | 70 | 192 | 0.9 | 1.7 | 0.00 | 0.00 | 0.00 | 89 | 1019.0 |
| 20260906030514 | 70 | 192 | 0.9 | 1.7 | 0.00 | 0.00 | 0.00 | 89 | 1019.1 |
| 20260906030422 | 70 | 192 | 0.9 | 1.7 | 0.00 | 0.00 | 0.00 | 89 | 1019.0 |
| 20260906030258 | 70 | 192 | 0.9 | 1.7 | 0.00 | 0.00 | 0.00 | 89 | 1019.1 |
| 20260906030202 | 70 | 192 | 0.9 | 1.7 | 0.00 | 0.00 | 0.00 | 89 | 1019.1 |
| 20260906030108 | 70 | 192 | 0.9 | 1.7 | 0.00 | 0.00 | 0.00 | 89 | 1019.0 |
| 20260906030012 | 70 | 192 | 0.9 | 1.7 | 0.00 | 0.00 | 0.00 | 89 | 1019.0 |
| 20260906025916 | 70 | 192 | 0.9 | 1.7 | 0.00 | 0.00 | 0.00 | 88 | 1019.1 |
| 20260906025804 | 70 | 192 | 0.9 | 0.9 | 0.00 | 0.00 | 0.00 | 88 | 1019.1 |
| 20260906025706 | 70 | 192 | 0.9 | 0.9 | 0.00 | 0.00 | 0.00 | 87 | 1019.1 |
| 20260906025609 | 70 | 192 | 0.0 | 0.9 | 0.00 | 0.00 | 0.00 | 87 | 1019.1 |
| 20260906025514 | 70 | 192 | 0.0 | 0.9 | 0.00 | 0.00 | 0.00 | 87 | 1019.1 |
| 20260906025401 | 70 | 192 | 0.0 | 0.9 | 0.00 | 0.00 | 0.00 | 87 | 1019.2 |
| 20260906025324 | 70 | 192 | 0.0 | 0.9 | 0.00 | 0.00 | 0.00 | 87 | 1019.2 |
| 20260906025208 | 70 | 192 | 0.0 | 0.9 | 0.00 | 0.00 | 0.00 | 87 | 1019.2 |
| 20260906025057 | 70 | 192 | 0.0 | 0.9 | 0.00 | 0.00 | 0.00 | 87 | 1019.3 |
| 20260906025022 | 70 | 192 | 0.0 | 0.9 | 0.00 | 0.00 | 0.00 | 87 | 1019.3 |
| 20260906024859 | 70 | 192 | 0.0 | 0.0 | 0.00 | 0.00 | 0.00 | 87 | 1019.4 |
| 20260906024803 | 70 | 192 | 0.0 | 0.0 | 0.00 | 0.00 | 0.00 | 87 | 1019.3 |
| 20260906024729 | 70 | 192 | 0.0 | 0.0 | 0.00 | 0.00 | 0.00 | 87 | 1019.3 |
| 20260906024632 | 70 | 192 | 0.0 | 0.0 | 0.00 | 0.00 | 0.00 | 87 | 1019.3 |
| 20260906024500 | 70 | 192 | 0.0 | 0.0 | 0.00 | 0.00 | 0.00 | 87 | 1019.2 |
| 20260906024405 | 70 | 192 | 0.0 | 0.0 | 0.00 | 0.00 | 0.00 | 87 | 1019.2 |
| 20260906024329 | 70 | 192 | 0.0 | 0.0 | 0.00 | 0.00 | 0.00 | 87 | 1019.2 |
| 20260906024213 | 70 | 192 | 0.0 | 0.0 | 0.00 | 0.00 | 0.00 | 86 | 1019.1 |
| 20260906024058 | 71 | 192 | 0.0 | 0.0 | 0.00 | 0.00 | 0.00 | 86 | 1019.1 |
| 20260906024004 | 71 | 192 | 0.0 | 0.0 | 0.00 | 0.00 | 0.00 | 86 | 1019.1 |
| 20260906023908 | 71 | 192 | 0.0 | 0.0 | 0.00 | 0.00 | 0.00 | 86 | 1019.1 |
| 20260906023837 | 71 | 192 | 0.0 | 0.0 | 0.00 | 0.00 | 0.00 | 86 | 1019.1 |
| 20260906023700 | 71 | 192 | 0.0 | 0.0 | 0.00 | 0.00 | 0.00 | 86 | 1019.0 |
| 20260906023624 | 71 | 192 | 0.0 | 0.0 | 0.00 | 0.00 | 0.00 | 86 | 1019.0 |
| 20260906023528 | 71 | 192 | 0.0 | 0.0 | 0.00 | 0.00 | 0.00 | 86 | 1018.9 |
| 20260906023412 | 71 | 192 | 0.0 | 0.0 | 0.00 | 0.00 | 0.00 | 86 | 1018.9 |
| 20260906023257 | 71 | 192 | 0.0 | 0.0 | 0.00 | 0.00 | 0.00 | 86 | 1018.9 |
| 20260906023201 | 71 | 192 | 0.0 | 0.0 | 0.00 | 0.00 | 0.00 | 86 | 1018.9 |
| 20260906023110 | 71 | 192 | 0.0 | 0.0 | 0.00 | 0.00 | 0.00 | 86 | 1018.9 |
| 20260906023014 | 71 | 192 | 0.0 | 0.0 | 0.00 | 0.00 | 0.00 | 85 | 1018.9 |
| 20260906022920 | 71 | 192 | 0.0 | 0.9 | 0.00 | 0.00 | 0.00 | 85 | 1018.8 |
| 20260906022757 | 71 | 192 | 0.0 | 0.9 | 0.00 | 0.00 | 0.00 | 85 | 1018.8 |
| 20260906022721 | 71 | 192 | 0.0 | 0.9 | 0.00 | 0.00 | 0.00 | 85 | 1018.9 |
| 20260906022604 | 71 | 192 | 0.0 | 0.9 | 0.00 | 0.00 | 0.00 | 85 | 1018.8 |
| 20260906022513 | 71 | 192 | 0.0 | 0.9 | 0.00 | 0.00 | 0.00 | 85 | 1018.8 |
| 20260906022417 | 71 | 192 | 0.0 | 1.7 | 0.00 | 0.00 | 0.00 | 84 | 1018.8 |
| 20260906022301 | 71 | 192 | 0.0 | 1.7 | 0.00 | 0.00 | 0.00 | 84 | 1018.9 |
| 20260906022206 | 71 | 192 | 0.0 | 1.7 | 0.00 | 0.00 | 0.00 | 84 | 1018.8 |
| 20260906022130 | 72 | 192 | 0.0 | 1.7 | 0.00 | 0.00 | 0.00 | 84 | 1018.7 |
| 20260906022032 | 72 | 192 | 0.9 | 1.7 | 0.00 | 0.00 | 0.00 | 84 | 1018.7 |
| 20260906021915 | 72 | 192 | 0.9 | 1.7 | 0.00 | 0.00 | 0.00 | 84 | 1018.7 |
| 20260906021805 | 72 | 192 | 0.9 | 1.7 | 0.00 | 0.00 | 0.00 | 84 | 1018.6 |
| 20260906021709 | 72 | 192 | 0.9 | 2.6 | 0.00 | 0.00 | 0.00 | 84 | 1018.6 |
| 20260906021614 | 72 | 192 | 0.9 | 2.6 | 0.00 | 0.00 | 0.00 | 84 | 1018.7 |
| 20260906021519 | 72 | 192 | 0.9 | 2.6 | 0.00 | 0.00 | 0.00 | 84 | 1018.5 |
| 20260906021357 | 72 | 192 | 0.9 | 2.6 | 0.00 | 0.00 | 0.00 | 84 | 1018.5 |
| 20260906021321 | 72 | 192 | 0.9 | 2.6 | 0.00 | 0.00 | 0.00 | 85 | 1018.5 |
| 20260906021205 | 72 | 192 | 1.7 | 2.6 | 0.00 | 0.00 | 0.00 | 85 | 1018.4 |
| 20260906021113 | 72 | 192 | 1.7 | 2.6 | 0.00 | 0.00 | 0.00 | 84 | 1018.4 |
| 20260906021016 | 72 | 192 | 1.7 | 2.6 | 0.00 | 0.00 | 0.00 | 84 | 1018.4 |
| 20260906020920 | 72 | 192 | 1.7 | 2.6 | 0.00 | 0.00 | 0.00 | 84 | 1018.4 |
| 20260906020757 | 73 | 192 | 1.7 | 2.6 | 0.00 | 0.00 | 0.00 | 84 | 1018.4 |
| 20260906020702 | 73 | 192 | 2.6 | 2.6 | 0.00 | 0.00 | 0.00 | 84 | 1018.3 |
| 20260906020627 | 73 | 192 | 1.7 | 2.6 | 0.00 | 0.00 | 0.00 | 83 | 1018.3 |
| 20260906020510 | 73 | 192 | 1.7 | 2.6 | 0.00 | 0.00 | 0.00 | 83 | 1018.3 |
| 20260906020420 | 73 | 192 | 1.7 | 1.7 | 0.00 | 0.00 | 0.00 | 83 | 1018.3 |
| 20260906020257 | 73 | 192 | 0.9 | 1.7 | 0.00 | 0.00 | 0.00 | 83 | 1018.1 |
| 20260906020221 | 73 | 192 | 0.9 | 1.7 | 0.00 | 0.00 | 0.00 | 83 | 1018.1 |
| 20260906020059 | 73 | 192 | 0.9 | 1.7 | 0.00 | 0.00 | 0.00 | 83 | 1018.0 |
| 20260906020004 | 73 | 192 | 0.0 | 0.9 | 0.00 | 0.00 | 0.00 | 82 | 1018.0 |
| 20260906015909 | 73 | 192 | 0.0 | 0.9 | 0.00 | 0.00 | 0.00 | 82 | 1018.0 |
| 20260906015757 | 73 | 192 | 0.0 | 0.0 | 0.00 | 0.00 | 0.00 | 82 | 1017.9 |
| 20260906015702 | 73 | 192 | 0.0 | 0.0 | 0.00 | 0.00 | 0.00 | 82 | 1017.9 |
| 20260906015628 | 73 | 192 | 0.0 | 0.0 | 0.00 | 0.00 | 0.00 | 82 | 1017.9 |
| 20260906015511 | 74 | 192 | 0.0 | 0.9 | 0.00 | 0.00 | 0.00 | 82 | 1017.9 |
| 20260906015357 | 74 | 192 | 0.0 | 0.9 | 0.00 | 0.00 | 0.00 | 82 | 1017.8 |
| 20260906015301 | 74 | 192 | 0.0 | 0.9 | 0.00 | 0.00 | 0.00 | 82 | 1017.8 |
| 20260906015208 | 74 | 192 | 0.0 | 0.9 | 0.00 | 0.00 | 0.00 | 82 | 1017.7 |
| 20260906015112 | 74 | 192 | 0.0 | 0.9 | 0.00 | 0.00 | 0.00 | 81 | 1017.7 |
| 20260906015018 | 74 | 192 | 0.0 | 0.9 | 0.00 | 0.00 | 0.00 | 81 | 1017.7 |
| 20260906014901 | 74 | 192 | 0.0 | 0.9 | 0.00 | 0.00 | 0.00 | 81 | 1017.7 |
| 20260906014807 | 74 | 192 | 0.0 | 0.9 | 0.00 | 0.00 | 0.00 | 81 | 1017.7 |
| 20260906014711 | 74 | 192 | 0.0 | 0.9 | 0.00 | 0.00 | 0.00 | 81 | 1017.7 |
| 20260906014600 | 74 | 192 | 0.0 | 0.9 | 0.00 | 0.00 | 0.00 | 81 | 1017.6 |
| 20260906014504 | 74 | 192 | 0.0 | 0.9 | 0.00 | 0.00 | 0.00 | 80 | 1017.6 |
| 20260906014408 | 74 | 192 | 0.0 | 0.9 | 0.00 | 0.00 | 0.00 | 80 | 1017.5 |
| 20260906014311 | 75 | 192 | 0.0 | 0.9 | 0.00 | 0.00 | 0.00 | 80 | 1017.5 |
| 20260906014215 | 75 | 192 | 0.9 | 0.9 | 0.00 | 0.00 | 0.00 | 80 | 1017.5 |
| 20260906014101 | 75 | 192 | 0.0 | 1.7 | 0.00 | 0.00 | 0.00 | 80 | 1017.4 |
| 20260906014010 | 75 | 192 | 0.0 | 1.7 | 0.00 | 0.00 | 0.00 | 80 | 1017.4 |
| 20260906013935 | 75 | 192 | 0.0 | 1.7 | 0.00 | 0.00 | 0.00 | 79 | 1017.4 |
| 20260906013759 | 75 | 192 | 0.0 | 1.7 | 0.00 | 0.00 | 0.00 | 79 | 1017.4 |
| 20260906013702 | 75 | 192 | 0.0 | 2.6 | 0.00 | 0.00 | 0.00 | 79 | 1017.3 |
| 20260906013608 | 75 | 192 | 0.0 | 2.6 | 0.00 | 0.00 | 0.00 | 79 | 1017.3 |
| 20260906013512 | 75 | 192 | 0.0 | 3.5 | 0.00 | 0.00 | 0.00 | 79 | 1017.3 |
| 20260906013422 | 75 | 192 | 0.0 | 3.5 | 0.00 | 0.00 | 0.00 | 79 | 1017.4 |
| 20260906013259 | 76 | 192 | 0.9 | 3.5 | 0.00 | 0.00 | 0.00 | 79 | 1017.2 |
| 20260906013203 | 76 | 192 | 0.9 | 3.5 | 0.00 | 0.00 | 0.00 | 79 | 1017.2 |
| 20260906013107 | 76 | 192 | 0.9 | 3.5 | 0.00 | 0.00 | 0.00 | 78 | 1017.2 |
| 20260906013011 | 76 | 192 | 0.9 | 3.5 | 0.00 | 0.00 | 0.00 | 78 | 1017.2 |
| 20260906012915 | 76 | 192 | 1.7 | 3.5 | 0.00 | 0.00 | 0.00 | 78 | 1017.2 |
| 20260906012804 | 76 | 192 | 1.7 | 3.5 | 0.00 | 0.00 | 0.00 | 78 | 1017.2 |
| 20260906012729 | 76 | 192 | 1.7 | 3.5 | 0.00 | 0.00 | 0.00 | 78 | 1017.1 |
| 20260906012612 | 76 | 215 | 1.7 | 3.5 | 0.00 | 0.00 | 0.00 | 78 | 1017.1 |
| 20260906012456 | 76 | 215 | 2.6 | 3.5 | 0.00 | 0.00 | 0.00 | 77 | 1017.1 |
| 20260906012422 | 76 | 215 | 2.6 | 3.5 | 0.00 | 0.00 | 0.00 | 77 | 1017.1 |
| 20260906012306 | 76 | 216 | 2.6 | 3.5 | 0.00 | 0.00 | 0.00 | 77 | 1017.1 |
| 20260906012210 | 76 | 216 | 2.6 | 3.5 | 0.00 | 0.00 | 0.00 | 77 | 1017.1 |
| 20260906012058 | 76 | 216 | 2.6 | 3.5 | 0.00 | 0.00 | 0.00 | 77 | 1017.1 |
| 20260906012003 | 76 | 216 | 1.7 | 3.5 | 0.00 | 0.00 | 0.00 | 77 | 1017.1 |
| 20260906011928 | 76 | 216 | 1.7 | 3.5 | 0.00 | 0.00 | 0.00 | 77 | 1017.1 |
| 20260906011811 | 76 | 216 | 1.7 | 3.5 | 0.00 | 0.00 | 0.00 | 77 | 1017.1 |
| 20260906011716 | 77 | 216 | 1.7 | 3.5 | 0.00 | 0.00 | 0.00 | 76 | 1017.1 |
| 20260906011600 | 77 | 216 | 1.7 | 4.3 | 0.00 | 0.00 | 0.00 | 76 | 1017.1 |
| 20260906011509 | 77 | 216 | 1.7 | 5.2 | 0.00 | 0.00 | 0.00 | 76 | 1017.1 |
| 20260906011414 | 77 | 216 | 2.6 | 5.2 | 0.00 | 0.00 | 0.00 | 76 | 1017.1 |
| 20260906011259 | 77 | 216 | 2.6 | 5.2 | 0.00 | 0.00 | 0.00 | 76 | 1017.1 |
| 20260906011204 | 77 | 216 | 2.6 | 5.2 | 0.00 | 0.00 | 0.00 | 76 | 1017.1 |
| 20260906011107 | 77 | 216 | 2.6 | 5.2 | 0.00 | 0.00 | 0.00 | 76 | 1017.0 |
| 20260906011011 | 77 | 216 | 2.6 | 5.2 | 0.00 | 0.00 | 0.00 | 76 | 1017.0 |
| 20260906010920 | 77 | 216 | 2.6 | 5.2 | 0.00 | 0.00 | 0.00 | 76 | 1017.1 |
| 20260906010756 | 77 | 216 | 3.5 | 5.2 | 0.00 | 0.00 | 0.00 | 76 | 1016.9 |
| 20260906010700 | 77 | 215 | 2.6 | 5.2 | 0.00 | 0.00 | 0.00 | 76 | 1016.9 |
| 20260906010605 | 77 | 217 | 2.6 | 6.1 | 0.00 | 0.00 | 0.00 | 75 | 1016.9 |
| 20260906010509 | 77 | 204 | 2.6 | 6.1 | 0.00 | 0.00 | 0.00 | 75 | 1016.9 |
| 20260906010358 | 78 | 204 | 2.6 | 6.1 | 0.00 | 0.00 | 0.00 | 75 | 1016.8 |
| 20260906010302 | 78 | 204 | 3.5 | 6.1 | 0.00 | 0.00 | 0.00 | 75 | 1016.7 |
| 20260906010207 | 78 | 203 | 2.6 | 6.1 | 0.00 | 0.00 | 0.00 | 75 | 1016.7 |
| 20260906010111 | 78 | 178 | 2.6 | 6.1 | 0.00 | 0.00 | 0.00 | 75 | 1016.7 |
| 20260906005956 | 78 | 198 | 2.6 | 6.1 | 0.00 | 0.00 | 0.00 | 75 | 1016.6 |
| 20260906005902 | 78 | 198 | 3.5 | 6.1 | 0.00 | 0.00 | 0.00 | 75 | 1016.6 |
| 20260906005810 | 78 | 199 | 4.3 | 6.1 | 0.00 | 0.00 | 0.00 | 75 | 1016.6 |
| 20260906005714 | 78 | 192 | 3.5 | 6.1 | 0.00 | 0.00 | 0.00 | 74 | 1016.6 |
| 20260906005558 | 78 | 194 | 2.6 | 6.1 | 0.00 | 0.00 | 0.00 | 74 | 1016.6 |
| 20260906005503 | 78 | 220 | 2.6 | 7.8 | 0.00 | 0.00 | 0.00 | 74 | 1016.6 |
| 20260906005407 | 78 | 221 | 2.6 | 7.8 | 0.00 | 0.00 | 0.00 | 74 | 1016.6 |
| 20260906005330 | 79 | 236 | 0.9 | 7.8 | 0.00 | 0.00 | 0.00 | 74 | 1016.6 |
| 20260906005235 | 79 | 240 | 1.7 | 7.8 | 0.00 | 0.00 | 0.00 | 74 | 1016.6 |
| 20260906005122 | 79 | 240 | 2.6 | 7.8 | 0.00 | 0.00 | 0.00 | 74 | 1016.6 |
| 20260906005005 | 79 | 213 | 3.5 | 9.6 | 0.00 | 0.00 | 0.00 | 74 | 1016.5 |
| 20260906004908 | 79 | 212 | 5.2 | 9.6 | 0.00 | 0.00 | 0.00 | 74 | 1016.5 |
| 20260906004812 | 79 | 231 | 5.2 | 9.6 | 0.00 | 0.00 | 0.00 | 74 | 1016.5 |
| 20260906004737 | 79 | 242 | 5.2 | 11.3 | 0.00 | 0.00 | 0.00 | 74 | 1016.5 |
| 20260906004601 | 79 | 260 | 6.1 | 11.3 | 0.00 | 0.00 | 0.00 | 74 | 1016.5 |
| 20260906004504 | 79 | 218 | 5.2 | 11.3 | 0.00 | 0.00 | 0.00 | 74 | 1016.4 |
| 20260906004434 | 79 | 205 | 5.2 | 11.3 | 0.00 | 0.00 | 0.00 | 74 | 1016.4 |
| 20260906004318 | 79 | 234 | 5.2 | 11.3 | 0.00 | 0.00 | 0.00 | 74 | 1016.4 |
| 20260906004240 | 79 | 224 | 5.2 | 11.3 | 0.00 | 0.00 | 0.00 | 74 | 1016.3 |
| 20260906004057 | 79 | 224 | 4.3 | 11.3 | 0.00 | 0.00 | 0.00 | 74 | 1016.2 |
| 20260906004001 | 79 | 213 | 6.1 | 11.3 | 0.00 | 0.00 | 0.00 | 74 | 1016.2 |
| 20260906003905 | 79 | 198 | 7.0 | 11.3 | 0.00 | 0.00 | 0.00 | 74 | 1016.1 |
| 20260906003830 | 79 | 207 | 6.1 | 12.2 | 0.00 | 0.00 | 0.00 | 74 | 1016.1 |
| 20260906003659 | 79 | 211 | 5.2 | 8.7 | 0.00 | 0.00 | 0.00 | 74 | 1016.0 |
| 20260906003603 | 79 | 197 | 6.1 | 8.7 | 0.00 | 0.00 | 0.00 | 74 | 1016.0 |
| 20260906003507 | 79 | 195 | 6.1 | 8.7 | 0.00 | 0.00 | 0.00 | 74 | 1016.1 |
| 20260906003431 | 79 | 193 | 6.1 | 8.7 | 0.00 | 0.00 | 0.00 | 74 | 1016.1 |
| 20260906003316 | 79 | 211 | 6.1 | 8.7 | 0.00 | 0.00 | 0.00 | 74 | 1016.1 |
| 20260906003221 | 79 | 201 | 6.1 | 8.7 | 0.00 | 0.00 | 0.00 | 73 | 1016.2 |
| 20260906003105 | 79 | 219 | 6.1 | 8.7 | 0.00 | 0.00 | 0.00 | 74 | 1016.1 |
| 20260906003013 | 79 | 207 | 7.0 | 8.7 | 0.00 | 0.00 | 0.00 | 74 | 1016.1 |
| 20260906002858 | 79 | 197 | 6.1 | 7.8 | 0.00 | 0.00 | 0.00 | 74 | 1016.1 |
| 20260906002823 | 79 | 206 | 6.1 | 7.8 | 0.00 | 0.00 | 0.00 | 74 | 1016.1 |
| 20260906002706 | 79 | 202 | 6.1 | 7.8 | 0.00 | 0.00 | 0.00 | 74 | 1016.1 |
| 20260906002610 | 80 | 218 | 5.2 | 7.8 | 0.00 | 0.00 | 0.00 | 74 | 1016.1 |
| 20260906002534 | 80 | 209 | 5.2 | 7.0 | 0.00 | 0.00 | 0.00 | 74 | 1016.1 |
| 20260906002400 | 80 | 209 | 4.3 | 7.0 | 0.00 | 0.00 | 0.00 | 73 | 1016.2 |
| 20260906002306 | 80 | 209 | 4.3 | 7.8 | 0.00 | 0.00 | 0.00 | 73 | 1016.1 |
| 20260906002229 | 80 | 213 | 4.3 | 8.7 | 0.00 | 0.00 | 0.00 | 73 | 1016.1 |
| 20260906002132 | 80 | 208 | 5.2 | 8.7 | 0.00 | 0.00 | 0.00 | 73 | 1016.1 |
| 20260906002017 | 80 | 194 | 5.2 | 8.7 | 0.00 | 0.00 | 0.00 | 73 | 1016.1 |
| 20260906001942 | 80 | 206 | 5.2 | 8.7 | 0.00 | 0.00 | 0.00 | 73 | 1016.1 |
| 20260906001758 | 80 | 202 | 5.2 | 8.7 | 0.00 | 0.00 | 0.00 | 73 | 1016.0 |
| 20260906001703 | 80 | 196 | 6.1 | 8.7 | 0.00 | 0.00 | 0.00 | 73 | 1016.0 |
| 20260906001612 | 80 | 190 | 6.1 | 8.7 | 0.00 | 0.00 | 0.00 | 73 | 1016.0 |
| 20260906001458 | 80 | 220 | 6.1 | 8.7 | 0.00 | 0.00 | 0.00 | 73 | 1016.1 |
| 20260906001401 | 80 | 205 | 7.0 | 8.7 | 0.00 | 0.00 | 0.00 | 73 | 1016.1 |
| 20260906001230 | 81 | 206 | 5.2 | 9.6 | 0.00 | 0.00 | 0.00 | 73 | 1016.1 |
| 20260906001114 | 81 | 212 | 5.2 | 8.7 | 0.00 | 0.00 | 0.00 | 73 | 1016.2 |
| 20260906001023 | 81 | 196 | 6.1 | 8.7 | 0.00 | 0.00 | 0.00 | 73 | 1016.2 |
| 20260906000900 | 81 | 201 | 5.2 | 8.7 | 0.00 | 0.00 | 0.00 | 73 | 1016.2 |
| 20260906000804 | 81 | 190 | 4.3 | 7.0 | 0.00 | 0.00 | 0.00 | 72 | 1016.2 |
| 20260906000708 | 81 | 166 | 4.3 | 7.0 | 0.00 | 0.00 | 0.00 | 73 | 1016.2 |
| 20260906000614 | 81 | 189 | 4.3 | 7.0 | 0.00 | 0.00 | 0.00 | 72 | 1016.3 |
| 20260906000519 | 81 | 193 | 4.3 | 7.0 | 0.00 | 0.00 | 0.00 | 72 | 1016.3 |
| 20260906000422 | 81 | 196 | 4.3 | 7.0 | 0.00 | 0.00 | 0.00 | 72 | 1016.2 |
| 20260906000311 | 81 | 196 | 4.3 | 7.0 | 0.00 | 0.00 | 0.00 | 72 | 1016.2 |
| 20260906000216 | 81 | 209 | 4.3 | 7.0 | 0.00 | 0.00 | 0.00 | 72 | 1016.2 |
| 20260906000121 | 81 | 224 | 4.3 | 7.0 | 0.00 | 0.00 | 0.00 | 72 | 1016.3 |
| 20260905235958 | 81 | 209 | 5.2 | 7.0 | 0.00 | 0.00 | 0.00 | 72 | 1016.3 |
| 20260905235903 | 81 | 205 | 5.2 | 7.0 | 0.00 | 0.00 | 0.00 | 72 | 1016.3 |
| 20260905235828 | 81 | 204 | 5.2 | 7.0 | 0.00 | 0.00 | 0.00 | 72 | 1016.3 |
| 20260905235716 | 81 | 198 | 4.3 | 7.0 | 0.00 | 0.00 | 0.00 | 72 | 1016.3 |
| 20260905235619 | 81 | 222 | 3.5 | 7.0 | 0.00 | 0.00 | 0.00 | 72 | 1016.4 |
| 20260905235457 | 81 | 196 | 3.5 | 9.6 | 0.00 | 0.00 | 0.00 | 72 | 1016.4 |
| 20260905235400 | 81 | 196 | 4.3 | 9.6 | 0.00 | 0.00 | 0.00 | 72 | 1016.4 |
| 20260905235306 | 81 | 178 | 4.3 | 9.6 | 0.00 | 0.00 | 0.00 | 72 | 1016.4 |
| 20260905235208 | 81 | 197 | 3.5 | 9.6 | 0.00 | 0.00 | 0.00 | 72 | 1016.4 |
| 20260905235116 | 82 | 196 | 4.3 | 9.6 | 0.00 | 0.00 | 0.00 | 72 | 1016.4 |
| 20260905235019 | 82 | 142 | 4.3 | 9.6 | 0.00 | 0.00 | 0.00 | 72 | 1016.4 |
| 20260905234856 | 82 | 171 | 4.3 | 9.6 | 0.00 | 0.00 | 0.00 | 71 | 1016.2 |
| 20260905234823 | 82 | 158 | 6.1 | 9.6 | 0.00 | 0.00 | 0.00 | 71 | 1016.2 |
| 20260905234700 | 82 | 188 | 6.1 | 9.6 | 0.00 | 0.00 | 0.00 | 71 | 1016.3 |
| 20260905234624 | 82 | 194 | 5.2 | 8.7 | 0.00 | 0.00 | 0.00 | 71 | 1016.3 |
| 20260905234508 | 82 | 183 | 5.2 | 10.4 | 0.00 | 0.00 | 0.00 | 71 | 1016.3 |
| 20260905234416 | 82 | 199 | 5.2 | 10.4 | 0.00 | 0.00 | 0.00 | 71 | 1016.3 |
| 20260905234321 | 82 | 194 | 6.1 | 10.4 | 0.00 | 0.00 | 0.00 | 71 | 1016.3 |
| 20260905234158 | 82 | 170 | 5.2 | 10.4 | 0.00 | 0.00 | 0.00 | 71 | 1016.3 |
| 20260905234104 | 82 | 161 | 4.3 | 10.4 | 0.00 | 0.00 | 0.00 | 71 | 1016.3 |
| 20260905234009 | 82 | 157 | 4.3 | 10.4 | 0.00 | 0.00 | 0.00 | 71 | 1016.3 |
| 20260905233857 | 82 | 142 | 5.2 | 10.4 | 0.00 | 0.00 | 0.00 | 71 | 1016.2 |
| 20260905233822 | 82 | 194 | 6.1 | 10.4 | 0.00 | 0.00 | 0.00 | 71 | 1016.2 |
| 20260905233659 | 82 | 159 | 6.1 | 10.4 | 0.00 | 0.00 | 0.00 | 71 | 1016.2 |
| 20260905233603 | 82 | 169 | 4.3 | 9.6 | 0.00 | 0.00 | 0.00 | 71 | 1016.2 |
| 20260905233505 | 82 | 169 | 4.3 | 7.0 | 0.00 | 0.00 | 0.00 | 71 | 1016.2 |
| 20260905233429 | 82 | 170 | 4.3 | 7.0 | 0.00 | 0.00 | 0.00 | 70 | 1016.2 |
| 20260905233313 | 82 | 187 | 5.2 | 7.0 | 0.00 | 0.00 | 0.00 | 70 | 1016.3 |
| 20260905233201 | 82 | 163 | 5.2 | 7.8 | 0.00 | 0.00 | 0.00 | 70 | 1016.3 |
| 20260905233126 | 82 | 161 | 4.3 | 7.8 | 0.00 | 0.00 | 0.00 | 70 | 1016.2 |
| 20260905233010 | 82 | 155 | 5.2 | 7.8 | 0.00 | 0.00 | 0.00 | 70 | 1016.2 |
| 20260905232914 | 82 | 165 | 5.2 | 7.0 | 0.00 | 0.00 | 0.00 | 70 | 1016.3 |
| 20260905232759 | 82 | 171 | 3.5 | 7.8 | 0.00 | 0.00 | 0.00 | 70 | 1016.2 |
| 20260905232725 | 82 | 148 | 3.5 | 7.8 | 0.00 | 0.00 | 0.00 | 70 | 1016.2 |
| 20260905232628 | 82 | 143 | 4.3 | 10.4 | 0.00 | 0.00 | 0.00 | 70 | 1016.2 |
| 20260905232511 | 82 | 186 | 4.3 | 10.4 | 0.00 | 0.00 | 0.00 | 70 | 1016.2 |
| 20260905232359 | 82 | 150 | 3.5 | 10.4 | 0.00 | 0.00 | 0.00 | 70 | 1016.1 |
| 20260905232306 | 82 | 192 | 4.3 | 10.4 | 0.00 | 0.00 | 0.00 | 70 | 1016.1 |
| 20260905232228 | 82 | 142 | 4.3 | 10.4 | 0.00 | 0.00 | 0.00 | 70 | 1016.1 |
| 20260905232111 | 82 | 186 | 4.3 | 13.0 | 0.00 | 0.00 | 0.00 | 70 | 1016.1 |
| 20260905232016 | 82 | 162 | 4.3 | 13.0 | 0.00 | 0.00 | 0.00 | 70 | 1016.1 |
| 20260905231920 | 83 | 162 | 7.0 | 13.0 | 0.00 | 0.00 | 0.00 | 70 | 1016.0 |
| 20260905231824 | 83 | 165 | 7.8 | 13.0 | 0.00 | 0.00 | 0.00 | 69 | 1016.0 |
| 20260905231711 | 83 | 160 | 7.0 | 13.0 | 0.00 | 0.00 | 0.00 | 69 | 1016.0 |
| 20260905231616 | 83 | 180 | 7.0 | 13.0 | 0.00 | 0.00 | 0.00 | 69 | 1016.0 |
| 20260905231522 | 83 | 163 | 7.8 | 13.0 | 0.00 | 0.00 | 0.00 | 69 | 1016.0 |
| 20260905231404 | 83 | 196 | 7.8 | 13.0 | 0.00 | 0.00 | 0.00 | 69 | 1016.0 |
| 20260905231307 | 83 | 216 | 5.2 | 12.2 | 0.00 | 0.00 | 0.00 | 69 | 1016.0 |
| 20260905231212 | 83 | 167 | 3.5 | 11.3 | 0.00 | 0.00 | 0.00 | 69 | 1016.0 |
| 20260905231123 | 83 | 169 | 4.3 | 11.3 | 0.00 | 0.00 | 0.00 | 69 | 1016.0 |
| 20260905231001 | 83 | 196 | 6.1 | 11.3 | 0.00 | 0.00 | 0.00 | 69 | 1016.0 |
| 20260905230906 | 83 | 207 | 6.1 | 11.3 | 0.00 | 0.00 | 0.00 | 69 | 1016.0 |
| 20260905230830 | 83 | 177 | 7.0 | 11.3 | 0.00 | 0.00 | 0.00 | 69 | 1016.0 |
| 20260905230714 | 83 | 171 | 7.0 | 11.3 | 0.00 | 0.00 | 0.00 | 69 | 1015.9 |
| 20260905230600 | 83 | 219 | 7.8 | 12.2 | 0.00 | 0.00 | 0.00 | 69 | 1016.0 |
| 20260905230508 | 83 | 207 | 7.8 | 12.2 | 0.00 | 0.00 | 0.00 | 69 | 1016.0 |
| 20260905230414 | 83 | 192 | 7.0 | 12.2 | 0.00 | 0.00 | 0.00 | 69 | 1016.0 |
| 20260905230318 | 83 | 197 | 5.2 | 12.2 | 0.00 | 0.00 | 0.00 | 69 | 1015.9 |
| 20260905230221 | 83 | 194 | 5.2 | 12.2 | 0.00 | 0.00 | 0.00 | 69 | 1015.9 |
| 20260905230058 | 83 | 168 | 6.1 | 12.2 | 0.00 | 0.00 | 0.00 | 69 | 1015.8 |
| 20260905230002 | 83 | 174 | 5.2 | 12.2 | 0.00 | 0.00 | 0.00 | 69 | 1015.8 |
| 20260905225928 | 83 | 192 | 5.2 | 12.2 | 0.00 | 0.00 | 0.00 | 69 | 1015.8 |
| 20260905225815 | 83 | 192 | 7.8 | 12.2 | 0.00 | 0.00 | 0.00 | 68 | 1015.8 |
| 20260905225720 | 83 | 168 | 9.6 | 11.3 | 0.00 | 0.00 | 0.00 | 68 | 1015.7 |
| 20260905225604 | 83 | 202 | 8.7 | 11.3 | 0.00 | 0.00 | 0.00 | 68 | 1015.7 |
| 20260905225507 | 83 | 190 | 8.7 | 11.3 | 0.00 | 0.00 | 0.00 | 68 | 1015.8 |
| 20260905225411 | 83 | 205 | 7.8 | 13.0 | 0.00 | 0.00 | 0.00 | 68 | 1015.8 |
| 20260905225314 | 83 | 198 | 7.8 | 13.0 | 0.00 | 0.00 | 0.00 | 68 | 1015.7 |
| 20260905225159 | 83 | 201 | 7.0 | 13.0 | 0.00 | 0.00 | 0.00 | 68 | 1015.8 |
| 20260905225107 | 83 | 184 | 7.0 | 13.0 | 0.00 | 0.00 | 0.00 | 68 | 1015.7 |
| 20260905225011 | 83 | 186 | 7.0 | 13.0 | 0.00 | 0.00 | 0.00 | 68 | 1015.7 |
| 20260905224915 | 83 | 196 | 7.0 | 13.0 | 0.00 | 0.00 | 0.00 | 67 | 1015.7 |
| 20260905224800 | 83 | 195 | 7.0 | 13.0 | 0.00 | 0.00 | 0.00 | 68 | 1015.8 |
| 20260905224705 | 83 | 179 | 7.8 | 13.0 | 0.00 | 0.00 | 0.00 | 68 | 1015.8 |
| 20260905224629 | 83 | 205 | 7.8 | 13.0 | 0.00 | 0.00 | 0.00 | 68 | 1015.8 |
| 20260905224516 | 83 | 213 | 7.0 | 9.6 | 0.00 | 0.00 | 0.00 | 68 | 1015.8 |
| 20260905224421 | 83 | 161 | 7.0 | 9.6 | 0.00 | 0.00 | 0.00 | 68 | 1015.8 |
| 20260905224258 | 83 | 192 | 7.0 | 10.4 | 0.00 | 0.00 | 0.00 | 68 | 1015.8 |
| 20260905224204 | 83 | 170 | 7.0 | 12.2 | 0.00 | 0.00 | 0.00 | 68 | 1015.9 |
| 20260905224108 | 83 | 194 | 7.0 | 9.6 | 0.00 | 0.00 | 0.00 | 68 | 1015.9 |
| 20260905224032 | 83 | 141 | 7.0 | 13.0 | 0.00 | 0.00 | 0.00 | 68 | 1015.9 |
| 20260905223900 | 83 | 192 | 6.1 | 13.0 | 0.00 | 0.00 | 0.00 | 68 | 1015.9 |
| 20260905223804 | 83 | 136 | 6.1 | 13.0 | 0.00 | 0.00 | 0.00 | 68 | 1016.0 |
| 20260905223709 | 83 | 180 | 7.0 | 13.0 | 0.00 | 0.00 | 0.00 | 68 | 1016.0 |
| 20260905223615 | 83 | 188 | 6.1 | 13.0 | 0.00 | 0.00 | 0.00 | 68 | 1015.9 |
| 20260905223519 | 83 | 161 | 4.3 | 13.0 | 0.00 | 0.00 | 0.00 | 68 | 1015.9 |
| 20260905223444 | 83 | 154 | 5.2 | 13.0 | 0.00 | 0.00 | 0.00 | 68 | 1016.0 |
| 20260905223300 | 83 | 196 | 8.7 | 11.3 | 0.00 | 0.00 | 0.00 | 67 | 1016.1 |
| 20260905223208 | 83 | 144 | 7.8 | 13.0 | 0.00 | 0.00 | 0.00 | 67 | 1016.1 |
| 20260905223112 | 83 | 148 | 5.2 | 11.3 | 0.00 | 0.00 | 0.00 | 68 | 1016.1 |
| 20260905223037 | 83 | 157 | 5.2 | 11.3 | 0.00 | 0.00 | 0.00 | 67 | 1016.1 |
| 20260905222922 | 83 | 163 | 7.8 | 11.3 | 0.00 | 0.00 | 0.00 | 68 | 1016.1 |
| 20260905222824 | 83 | 196 | 7.8 | 11.3 | 0.00 | 0.00 | 0.00 | 68 | 1016.1 |
| 20260905222707 | 83 | 166 | 8.7 | 11.3 | 0.00 | 0.00 | 0.00 | 68 | 1016.1 |
| 20260905222610 | 83 | 202 | 7.8 | 11.3 | 0.00 | 0.00 | 0.00 | 68 | 1016.2 |
| 20260905222514 | 83 | 191 | 7.0 | 12.2 | 0.00 | 0.00 | 0.00 | 68 | 1016.2 |
| 20260905222419 | 83 | 166 | 6.1 | 12.2 | 0.00 | 0.00 | 0.00 | 67 | 1016.1 |
| 20260905222256 | 83 | 148 | 5.2 | 12.2 | 0.00 | 0.00 | 0.00 | 67 | 1016.2 |
| 20260905222202 | 83 | 138 | 3.5 | 12.2 | 0.00 | 0.00 | 0.00 | 68 | 1016.2 |
| 20260905222105 | 83 | 165 | 4.3 | 12.2 | 0.00 | 0.00 | 0.00 | 67 | 1016.2 |
| 20260905222010 | 83 | 187 | 5.2 | 12.2 | 0.00 | 0.00 | 0.00 | 67 | 1016.2 |
| 20260905221858 | 83 | 182 | 7.0 | 12.2 | 0.00 | 0.00 | 0.00 | 67 | 1016.2 |
| 20260905221823 | 83 | 140 | 7.8 | 12.2 | 0.00 | 0.00 | 0.00 | 67 | 1016.2 |
| 20260905221701 | 83 | 200 | 7.0 | 12.2 | 0.00 | 0.00 | 0.00 | 67 | 1016.3 |
| 20260905221624 | 83 | 190 | 5.2 | 9.6 | 0.00 | 0.00 | 0.00 | 67 | 1016.3 |
| 20260905221508 | 83 | 169 | 5.2 | 8.7 | 0.00 | 0.00 | 0.00 | 67 | 1016.3 |
| 20260905221412 | 83 | 143 | 6.1 | 8.7 | 0.00 | 0.00 | 0.00 | 67 | 1016.3 |
| 20260905221300 | 83 | 149 | 6.1 | 8.7 | 0.00 | 0.00 | 0.00 | 67 | 1016.4 |
| 20260905221206 | 83 | 152 | 6.1 | 8.7 | 0.00 | 0.00 | 0.00 | 67 | 1016.4 |
| 20260905221110 | 83 | 180 | 6.1 | 8.7 | 0.00 | 0.00 | 0.00 | 67 | 1016.4 |
| 20260905221034 | 83 | 148 | 6.1 | 10.4 | 0.00 | 0.00 | 0.00 | 67 | 1016.4 |
| 20260905220857 | 83 | 200 | 6.1 | 11.3 | 0.00 | 0.00 | 0.00 | 67 | 1016.4 |
| 20260905220823 | 83 | 172 | 6.1 | 11.3 | 0.00 | 0.00 | 0.00 | 67 | 1016.4 |
| 20260905220659 | 83 | 173 | 5.2 | 11.3 | 0.00 | 0.00 | 0.00 | 67 | 1016.4 |
| 20260905220609 | 83 | 186 | 6.1 | 11.3 | 0.00 | 0.00 | 0.00 | 66 | 1016.4 |
| 20260905220533 | 83 | 150 | 6.1 | 11.3 | 0.00 | 0.00 | 0.00 | 67 | 1016.4 |
| 20260905220436 | 83 | 164 | 6.1 | 11.3 | 0.00 | 0.00 | 0.00 | 66 | 1016.4 |
| 20260905220321 | 83 | 178 | 7.8 | 11.3 | 0.00 | 0.00 | 0.00 | 66 | 1016.3 |
| 20260905220158 | 83 | 142 | 7.0 | 11.3 | 0.00 | 0.00 | 0.00 | 66 | 1016.3 |
| 20260905220007 | 83 | 165 | 5.2 | 13.0 | 0.00 | 0.00 | 0.00 | 65 | 1016.2 |
| 20260905215916 | 83 | 173 | 4.3 | 13.0 | 0.00 | 0.00 | 0.00 | 67 | 1016.3 |
| 20260905215819 | 83 | 149 | 5.2 | 13.0 | 0.00 | 0.00 | 0.00 | 66 | 1016.3 |
| 20260905215744 | 83 | 146 | 6.1 | 13.0 | 0.00 | 0.00 | 0.00 | 66 | 1016.2 |
| 20260905215600 | 83 | 161 | 7.0 | 13.0 | 0.00 | 0.00 | 0.00 | 66 | 1016.3 |
| 20260905215504 | 83 | 165 | 8.7 | 13.0 | 0.00 | 0.00 | 0.00 | 66 | 1016.3 |
| 20260905215428 | 83 | 175 | 7.8 | 13.0 | 0.00 | 0.00 | 0.00 | 66 | 1016.3 |
| 20260905215312 | 83 | 153 | 5.2 | 13.0 | 0.00 | 0.00 | 0.00 | 68 | 1016.2 |
| 20260905215221 | 83 | 134 | 3.5 | 12.2 | 0.00 | 0.00 | 0.00 | 69 | 1016.2 |
| 20260905215058 | 83 | 149 | 5.2 | 12.2 | 0.00 | 0.00 | 0.00 | 68 | 1016.2 |
| 20260905215023 | 83 | 180 | 6.1 | 12.2 | 0.00 | 0.00 | 0.00 | 68 | 1016.2 |
| 20260905214901 | 83 | 155 | 6.1 | 12.2 | 0.00 | 0.00 | 0.00 | 68 | 1016.2 |
| 20260905214805 | 83 | 137 | 6.1 | 12.2 | 0.00 | 0.00 | 0.00 | 68 | 1016.2 |
| 20260905214709 | 83 | 156 | 7.0 | 12.2 | 0.00 | 0.00 | 0.00 | 67 | 1016.2 |
| 20260905214558 | 83 | 169 | 6.1 | 10.4 | 0.00 | 0.00 | 0.00 | 68 | 1016.2 |
| 20260905214503 | 83 | 126 | 6.1 | 10.4 | 0.00 | 0.00 | 0.00 | 68 | 1016.2 |
| 20260905214428 | 83 | 155 | 6.1 | 10.4 | 0.00 | 0.00 | 0.00 | 68 | 1016.1 |
| 20260905214310 | 83 | 165 | 6.1 | 10.4 | 0.00 | 0.00 | 0.00 | 68 | 1016.1 |
| 20260905214215 | 83 | 172 | 6.1 | 10.4 | 0.00 | 0.00 | 0.00 | 67 | 1016.1 |
| 20260905214059 | 83 | 155 | 7.8 | 10.4 | 0.00 | 0.00 | 0.00 | 67 | 1016.1 |
| 20260905214007 | 83 | 160 | 7.0 | 10.4 | 0.00 | 0.00 | 0.00 | 68 | 1016.2 |
| 20260905213911 | 83 | 187 | 6.1 | 10.4 | 0.00 | 0.00 | 0.00 | 69 | 1016.2 |
| 20260905213816 | 83 | 144 | 6.1 | 11.3 | 0.00 | 0.00 | 0.00 | 69 | 1016.1 |
| 20260905213720 | 83 | 169 | 5.2 | 8.7 | 0.00 | 0.00 | 0.00 | 69 | 1016.2 |
| 20260905213604 | 83 | 158 | 5.2 | 8.7 | 0.00 | 0.00 | 0.00 | 70 | 1016.3 |
| 20260905213509 | 83 | 155 | 6.1 | 12.2 | 0.00 | 0.00 | 0.00 | 69 | 1016.3 |
| 20260905213433 | 83 | 146 | 7.0 | 12.2 | 0.00 | 0.00 | 0.00 | 69 | 1016.2 |
| 20260905213301 | 83 | 165 | 6.1 | 12.2 | 0.00 | 0.00 | 0.00 | 70 | 1016.3 |
| 20260905213205 | 83 | 202 | 7.0 | 12.2 | 0.00 | 0.00 | 0.00 | 70 | 1016.3 |
| 20260905213110 | 83 | 164 | 7.0 | 12.2 | 0.00 | 0.00 | 0.00 | 70 | 1016.3 |
| 20260905213014 | 83 | 153 | 7.0 | 12.2 | 0.00 | 0.00 | 0.00 | 70 | 1016.2 |
| 20260905212859 | 83 | 139 | 7.8 | 12.2 | 0.00 | 0.00 | 0.00 | 70 | 1016.3 |
| 20260905212823 | 83 | 131 | 8.7 | 12.2 | 0.00 | 0.00 | 0.00 | 70 | 1016.3 |
| 20260905212727 | 83 | 151 | 7.8 | 12.2 | 0.00 | 0.00 | 0.00 | 70 | 1016.3 |
| 20260905212614 | 83 | 193 | 7.0 | 11.3 | 0.00 | 0.00 | 0.00 | 70 | 1016.3 |
| 20260905212459 | 83 | 152 | 5.2 | 13.0 | 0.00 | 0.00 | 0.00 | 70 | 1016.4 |
| 20260905212402 | 83 | 184 | 4.3 | 13.0 | 0.00 | 0.00 | 0.00 | 70 | 1016.4 |
| 20260905212306 | 83 | 142 | 6.1 | 13.0 | 0.00 | 0.00 | 0.00 | 70 | 1016.5 |
| 20260905212209 | 83 | 169 | 7.8 | 13.0 | 0.00 | 0.00 | 0.00 | 70 | 1016.5 |
| 20260905212114 | 83 | 176 | 7.8 | 13.0 | 0.00 | 0.00 | 0.00 | 69 | 1016.5 |
| 20260905212003 | 83 | 156 | 7.0 | 12.2 | 0.00 | 0.00 | 0.00 | 70 | 1016.6 |
| 20260905211928 | 83 | 171 | 7.8 | 11.3 | 0.00 | 0.00 | 0.00 | 70 | 1016.6 |
| 20260905211812 | 83 | 136 | 7.0 | 11.3 | 0.00 | 0.00 | 0.00 | 71 | 1016.5 |
| 20260905211657 | 83 | 192 | 7.0 | 11.3 | 0.00 | 0.00 | 0.00 | 70 | 1016.6 |
| 20260905211602 | 83 | 169 | 6.1 | 11.3 | 0.00 | 0.00 | 0.00 | 70 | 1016.7 |
| 20260905211527 | 83 | 194 | 7.0 | 11.3 | 0.00 | 0.00 | 0.00 | 71 | 1016.7 |
| 20260905211410 | 83 | 142 | 5.2 | 11.3 | 0.00 | 0.00 | 0.00 | 71 | 1016.7 |
| 20260905211259 | 83 | 134 | 4.3 | 9.6 | 0.00 | 0.00 | 0.00 | 71 | 1016.8 |
| 20260905211223 | 83 | 153 | 6.1 | 9.6 | 0.00 | 0.00 | 0.00 | 71 | 1016.8 |
| 20260905211100 | 83 | 173 | 7.0 | 9.6 | 0.00 | 0.00 | 0.00 | 71 | 1016.9 |
| 20260905211005 | 83 | 144 | 7.0 | 9.6 | 0.00 | 0.00 | 0.00 | 71 | 1017.0 |
| 20260905210909 | 83 | 165 | 6.1 | 9.6 | 0.00 | 0.00 | 0.00 | 71 | 1017.0 |
| 20260905210813 | 83 | 196 | 6.1 | 9.6 | 0.00 | 0.00 | 0.00 | 71 | 1017.0 |
| 20260905210702 | 83 | 175 | 7.0 | 9.6 | 0.00 | 0.00 | 0.00 | 70 | 1017.1 |
| 20260905210607 | 83 | 178 | 7.0 | 9.6 | 0.00 | 0.00 | 0.00 | 70 | 1017.1 |
| 20260905210512 | 83 | 146 | 6.1 | 9.6 | 0.00 | 0.00 | 0.00 | 70 | 1017.1 |
| 20260905210417 | 83 | 200 | 5.2 | 9.6 | 0.00 | 0.00 | 0.00 | 70 | 1017.1 |
| 20260905210321 | 83 | 159 | 5.2 | 9.6 | 0.00 | 0.00 | 0.00 | 71 | 1017.1 |
| 20260905210205 | 83 | 165 | 6.1 | 9.6 | 0.00 | 0.00 | 0.00 | 71 | 1017.1 |
| 20260905210109 | 83 | 153 | 5.2 | 7.8 | 0.00 | 0.00 | 0.00 | 71 | 1017.1 |
| 20260905205957 | 83 | 147 | 3.5 | 8.7 | 0.00 | 0.00 | 0.00 | 71 | 1017.2 |
| 20260905205923 | 83 | 197 | 3.5 | 8.7 | 0.00 | 0.00 | 0.00 | 71 | 1017.2 |
| 20260905205800 | 83 | 123 | 4.3 | 9.6 | 0.00 | 0.00 | 0.00 | 71 | 1017.1 |
| 20260905205704 | 83 | 186 | 4.3 | 9.6 | 0.00 | 0.00 | 0.00 | 71 | 1017.1 |
| 20260905205609 | 83 | 157 | 5.2 | 9.6 | 0.00 | 0.00 | 0.00 | 71 | 1017.1 |
| 20260905205459 | 83 | 138 | 4.3 | 9.6 | 0.00 | 0.00 | 0.00 | 70 | 1017.1 |
| 20260905205423 | 83 | 142 | 4.3 | 9.6 | 0.00 | 0.00 | 0.00 | 70 | 1017.1 |
| 20260905205300 | 83 | 175 | 6.1 | 9.6 | 0.00 | 0.00 | 0.00 | 70 | 1017.2 |
| 20260905205205 | 83 | 173 | 6.1 | 9.6 | 0.00 | 0.00 | 0.00 | 70 | 1017.2 |
| 20260905205109 | 83 | 153 | 6.1 | 10.4 | 0.00 | 0.00 | 0.00 | 70 | 1017.2 |
| 20260905205014 | 83 | 191 | 5.2 | 10.4 | 0.00 | 0.00 | 0.00 | 71 | 1017.1 |
| 20260905204920 | 83 | 135 | 4.3 | 9.6 | 0.00 | 0.00 | 0.00 | 70 | 1017.2 |
| 20260905204827 | 83 | 180 | 6.1 | 9.6 | 0.00 | 0.00 | 0.00 | 70 | 1017.1 |
| 20260905204728 | 83 | 189 | 7.0 | 9.6 | 0.00 | 0.00 | 0.00 | 70 | 1017.2 |
| 20260905204611 | 83 | 197 | 7.0 | 10.4 | 0.00 | 0.00 | 0.00 | 70 | 1017.2 |
| 20260905204516 | 83 | 188 | 5.2 | 10.4 | 0.00 | 0.00 | 0.00 | 71 | 1017.2 |
| 20260905204440 | 83 | 148 | 4.3 | 7.8 | 0.00 | 0.00 | 0.00 | 71 | 1017.2 |
| 20260905204257 | 83 | 161 | 5.2 | 8.7 | 0.00 | 0.00 | 0.00 | 71 | 1017.2 |
| 20260905204202 | 83 | 163 | 5.2 | 8.7 | 0.00 | 0.00 | 0.00 | 70 | 1017.2 |
| 20260905204110 | 83 | 165 | 4.3 | 8.7 | 0.00 | 0.00 | 0.00 | 70 | 1017.2 |
| 20260905204035 | 83 | 187 | 3.5 | 8.7 | 0.00 | 0.00 | 0.00 | 70 | 1017.2 |
| 20260905203917 | 83 | 178 | 3.5 | 8.7 | 0.00 | 0.00 | 0.00 | 71 | 1017.2 |
| 20260905203842 | 83 | 182 | 3.5 | 8.7 | 0.00 | 0.00 | 0.00 | 70 | 1017.2 |
| 20260905203658 | 83 | 186 | 6.1 | 8.7 | 0.00 | 0.00 | 0.00 | 69 | 1017.3 |
| 20260905203602 | 83 | 178 | 6.1 | 8.7 | 0.00 | 0.00 | 0.00 | 70 | 1017.3 |
| 20260905203507 | 83 | 188 | 6.1 | 8.7 | 0.00 | 0.00 | 0.00 | 70 | 1017.4 |
| 20260905203415 | 83 | 164 | 6.1 | 8.7 | 0.00 | 0.00 | 0.00 | 70 | 1017.4 |
| 20260905203320 | 83 | 185 | 5.2 | 8.7 | 0.00 | 0.00 | 0.00 | 70 | 1017.5 |
| 20260905203204 | 83 | 184 | 5.2 | 8.7 | 0.00 | 0.00 | 0.00 | 71 | 1017.5 |
| 20260905203129 | 83 | 183 | 6.1 | 8.7 | 0.00 | 0.00 | 0.00 | 71 | 1017.5 |
| 20260905203012 | 83 | 197 | 5.2 | 8.7 | 0.00 | 0.00 | 0.00 | 72 | 1017.5 |
| 20260905202857 | 82 | 187 | 3.5 | 6.1 | 0.00 | 0.00 | 0.00 | 71 | 1017.5 |
| 20260905202801 | 82 | 207 | 2.6 | 6.1 | 0.00 | 0.00 | 0.00 | 72 | 1017.6 |
| 20260905202709 | 82 | 142 | 2.6 | 7.0 | 0.00 | 0.00 | 0.00 | 72 | 1017.6 |
| 20260905202614 | 82 | 160 | 2.6 | 7.0 | 0.00 | 0.00 | 0.00 | 71 | 1017.6 |
| 20260905202518 | 82 | 136 | 3.5 | 7.0 | 0.00 | 0.00 | 0.00 | 72 | 1017.6 |
| 20260905202444 | 82 | 180 | 4.3 | 7.0 | 0.00 | 0.00 | 0.00 | 71 | 1017.6 |
| 20260905202300 | 82 | 163 | 4.3 | 7.0 | 0.00 | 0.00 | 0.00 | 71 | 1017.7 |
| 20260905202204 | 82 | 171 | 4.3 | 7.0 | 0.00 | 0.00 | 0.00 | 71 | 1017.7 |
| 20260905202113 | 82 | 171 | 4.3 | 7.0 | 0.00 | 0.00 | 0.00 | 71 | 1017.7 |
| 20260905202019 | 82 | 191 | 4.3 | 7.8 | 0.00 | 0.00 | 0.00 | 71 | 1017.8 |
| 20260905201856 | 82 | 190 | 4.3 | 7.8 | 0.00 | 0.00 | 0.00 | 72 | 1017.8 |
| 20260905201801 | 82 | 164 | 4.3 | 7.8 | 0.00 | 0.00 | 0.00 | 71 | 1017.8 |
| 20260905201706 | 82 | 177 | 3.5 | 7.8 | 0.00 | 0.00 | 0.00 | 72 | 1017.9 |
| 20260905201610 | 82 | 132 | 4.3 | 7.8 | 0.00 | 0.00 | 0.00 | 71 | 1017.9 |
| 20260905201459 | 82 | 190 | 4.3 | 7.8 | 0.00 | 0.00 | 0.00 | 72 | 1017.8 |
| 20260905201423 | 82 | 190 | 4.3 | 7.8 | 0.00 | 0.00 | 0.00 | 72 | 1017.8 |
| 20260905201300 | 82 | 190 | 6.1 | 7.8 | 0.00 | 0.00 | 0.00 | 71 | 1017.8 |
| 20260905201223 | 82 | 173 | 5.2 | 7.8 | 0.00 | 0.00 | 0.00 | 72 | 1017.8 |
| 20260905201101 | 82 | 217 | 3.5 | 5.2 | 0.00 | 0.00 | 0.00 | 72 | 1017.8 |
| 20260905201005 | 82 | 228 | 3.5 | 6.1 | 0.00 | 0.00 | 0.00 | 73 | 1017.8 |
| 20260905200914 | 82 | 218 | 3.5 | 6.1 | 0.00 | 0.00 | 0.00 | 72 | 1017.8 |
| 20260905200818 | 82 | 254 | 3.5 | 6.1 | 0.00 | 0.00 | 0.00 | 73 | 1017.9 |
| 20260905200722 | 82 | 255 | 2.6 | 6.1 | 0.00 | 0.00 | 0.00 | 73 | 1017.9 |
| 20260905200601 | 82 | 258 | 3.5 | 6.1 | 0.00 | 0.00 | 0.00 | 73 | 1018.0 |
| 20260905200505 | 82 | 257 | 4.3 | 6.1 | 0.00 | 0.00 | 0.00 | 73 | 1018.0 |
| 20260905200410 | 82 | 252 | 3.5 | 6.1 | 0.00 | 0.00 | 0.00 | 74 | 1018.0 |
| 20260905200259 | 82 | 262 | 2.6 | 6.1 | 0.00 | 0.00 | 0.00 | 74 | 1018.0 |
| 20260905200224 | 82 | 268 | 2.6 | 6.1 | 0.00 | 0.00 | 0.00 | 73 | 1018.2 |
| 20260905200129 | 82 | 217 | 2.6 | 6.1 | 0.00 | 0.00 | 0.00 | 73 | 1018.2 |
| 20260905200012 | 82 | 217 | 3.5 | 6.1 | 0.00 | 0.00 | 0.00 | 73 | 1018.1 |
| 20260905195857 | 82 | 221 | 4.3 | 6.1 | 0.00 | 0.00 | 0.00 | 74 | 1018.2 |
| 20260905195822 | 82 | 229 | 4.3 | 7.0 | 0.00 | 0.00 | 0.00 | 73 | 1018.2 |
| 20260905195700 | 82 | 223 | 4.3 | 7.0 | 0.00 | 0.00 | 0.00 | 73 | 1018.2 |
| 20260905195609 | 82 | 245 | 5.2 | 7.0 | 0.00 | 0.00 | 0.00 | 73 | 1018.2 |
| 20260905195533 | 82 | 223 | 3.5 | 7.0 | 0.00 | 0.00 | 0.00 | 74 | 1018.2 |
| 20260905195417 | 82 | 234 | 2.6 | 7.0 | 0.00 | 0.00 | 0.00 | 73 | 1018.1 |
| 20260905195301 | 82 | 234 | 3.5 | 7.0 | 0.00 | 0.00 | 0.00 | 73 | 1018.0 |
| 20260905195206 | 82 | 235 | 3.5 | 7.0 | 0.00 | 0.00 | 0.00 | 73 | 1018.2 |
| 20260905195111 | 82 | 198 | 2.6 | 7.0 | 0.00 | 0.00 | 0.00 | 73 | 1018.2 |
| 20260905195015 | 82 | 196 | 3.5 | 7.0 | 0.00 | 0.00 | 0.00 | 74 | 1018.1 |
| 20260905194924 | 82 | 197 | 4.3 | 7.8 | 0.00 | 0.00 | 0.00 | 75 | 1018.0 |
| 20260905194808 | 81 | 233 | 2.6 | 7.8 | 0.00 | 0.00 | 0.00 | 74 | 1018.0 |
| 20260905194712 | 81 | 232 | 3.5 | 7.8 | 0.00 | 0.00 | 0.00 | 74 | 1018.1 |
| 20260905194557 | 81 | 217 | 4.3 | 7.8 | 0.00 | 0.00 | 0.00 | 74 | 1018.1 |
| 20260905194503 | 81 | 219 | 3.5 | 7.8 | 0.00 | 0.00 | 0.00 | 74 | 1018.1 |
| 20260905194427 | 81 | 212 | 2.6 | 7.8 | 0.00 | 0.00 | 0.00 | 74 | 1018.1 |
| 20260905194310 | 81 | 250 | 4.3 | 7.8 | 0.00 | 0.00 | 0.00 | 73 | 1018.1 |
| 20260905194159 | 81 | 249 | 5.2 | 7.8 | 0.00 | 0.00 | 0.00 | 74 | 1018.2 |
| 20260905194123 | 81 | 233 | 5.2 | 7.0 | 0.00 | 0.00 | 0.00 | 74 | 1018.2 |
| 20260905194001 | 81 | 200 | 4.3 | 7.8 | 0.00 | 0.00 | 0.00 | 75 | 1018.2 |
| 20260905193905 | 81 | 236 | 5.2 | 7.8 | 0.00 | 0.00 | 0.00 | 74 | 1018.2 |
| 20260905193810 | 81 | 259 | 5.2 | 7.8 | 0.00 | 0.00 | 0.00 | 73 | 1018.2 |
| 20260905193714 | 81 | 267 | 5.2 | 7.8 | 0.00 | 0.00 | 0.00 | 74 | 1018.1 |
| 20260905193603 | 81 | 223 | 4.3 | 7.0 | 0.00 | 0.00 | 0.00 | 73 | 1018.2 |
| 20260905193508 | 81 | 219 | 4.3 | 7.0 | 0.00 | 0.00 | 0.00 | 74 | 1018.2 |
| 20260905193433 | 81 | 225 | 3.5 | 7.0 | 0.00 | 0.00 | 0.00 | 75 | 1018.2 |
| 20260905193315 | 81 | 296 | 3.5 | 6.1 | 0.00 | 0.00 | 0.00 | 75 | 1018.2 |
| 20260905193218 | 81 | 209 | 1.7 | 6.1 | 0.00 | 0.00 | 0.00 | 75 | 1018.3 |
| 20260905193122 | 81 | 215 | 0.9 | 6.1 | 0.00 | 0.00 | 0.00 | 75 | 1018.3 |
| 20260905193000 | 80 | 215 | 2.6 | 6.1 | 0.00 | 0.00 | 0.00 | 75 | 1018.3 |
| 20260905192909 | 80 | 215 | 3.5 | 6.1 | 0.00 | 0.00 | 0.00 | 75 | 1018.3 |
| 20260905192833 | 81 | 214 | 3.5 | 6.1 | 0.00 | 0.00 | 0.00 | 75 | 1018.3 |
| 20260905192657 | 81 | 211 | 3.5 | 6.1 | 0.00 | 0.00 | 0.00 | 75 | 1018.3 |
| 20260905192601 | 81 | 205 | 2.6 | 6.1 | 0.00 | 0.00 | 0.00 | 75 | 1018.3 |
| 20260905192507 | 81 | 192 | 2.6 | 6.1 | 0.00 | 0.00 | 0.00 | 75 | 1018.4 |
| 20260905192411 | 81 | 199 | 3.5 | 6.1 | 0.00 | 0.00 | 0.00 | 75 | 1018.4 |
| 20260905192320 | 81 | 198 | 3.5 | 6.1 | 0.00 | 0.00 | 0.00 | 75 | 1018.3 |
| 20260905192158 | 80 | 182 | 1.7 | 6.1 | 0.00 | 0.00 | 0.00 | 75 | 1018.4 |
| 20260905192103 | 80 | 179 | 1.7 | 6.1 | 0.00 | 0.00 | 0.00 | 75 | 1018.3 |
| 20260905192008 | 80 | 179 | 2.6 | 6.1 | 0.00 | 0.00 | 0.00 | 75 | 1018.3 |
| 20260905191933 | 80 | 179 | 4.3 | 6.1 | 0.00 | 0.00 | 0.00 | 75 | 1018.3 |
| 20260905191757 | 81 | 192 | 4.3 | 6.1 | 0.00 | 0.00 | 0.00 | 75 | 1018.3 |
| 20260905191705 | 80 | 205 | 3.5 | 7.0 | 0.00 | 0.00 | 0.00 | 75 | 1018.3 |
| 20260905191610 | 80 | 229 | 3.5 | 7.0 | 0.00 | 0.00 | 0.00 | 75 | 1018.3 |
| 20260905191514 | 80 | 234 | 4.3 | 7.0 | 0.00 | 0.00 | 0.00 | 76 | 1018.3 |
| 20260905191359 | 80 | 251 | 4.3 | 7.0 | 0.00 | 0.00 | 0.00 | 76 | 1018.3 |
| 20260905191302 | 80 | 228 | 3.5 | 6.1 | 0.00 | 0.00 | 0.00 | 76 | 1018.4 |
| 20260905191207 | 80 | 169 | 3.5 | 6.1 | 0.00 | 0.00 | 0.00 | 76 | 1018.4 |
| 20260905191116 | 80 | 196 | 3.5 | 6.1 | 0.00 | 0.00 | 0.00 | 76 | 1018.3 |
| 20260905191020 | 80 | 214 | 2.6 | 5.2 | 0.00 | 0.00 | 0.00 | 76 | 1018.3 |
| 20260905190857 | 80 | 190 | 3.5 | 6.1 | 0.00 | 0.00 | 0.00 | 77 | 1018.3 |
| 20260905190800 | 80 | 182 | 1.7 | 6.1 | 0.00 | 0.00 | 0.00 | 78 | 1018.3 |
| 20260905190705 | 80 | 218 | 0.9 | 7.8 | 0.00 | 0.00 | 0.00 | 77 | 1018.3 |
| 20260905190610 | 80 | 218 | 2.6 | 7.8 | 0.00 | 0.00 | 0.00 | 77 | 1018.3 |
| 20260905190459 | 79 | 218 | 2.6 | 7.8 | 0.00 | 0.00 | 0.00 | 76 | 1018.4 |
| 20260905190404 | 79 | 217 | 2.6 | 7.8 | 0.00 | 0.00 | 0.00 | 77 | 1018.3 |
| 20260905190310 | 79 | 216 | 3.5 | 7.8 | 0.00 | 0.00 | 0.00 | 77 | 1018.3 |
| 20260905190214 | 79 | 213 | 3.5 | 7.8 | 0.00 | 0.00 | 0.00 | 77 | 1018.3 |
| 20260905190100 | 79 | 211 | 4.3 | 7.8 | 0.00 | 0.00 | 0.00 | 77 | 1018.3 |
| 20260905190024 | 79 | 224 | 5.2 | 7.8 | 0.00 | 0.00 | 0.00 | 77 | 1018.3 |
| 20260905185911 | 79 | 204 | 4.3 | 7.8 | 0.00 | 0.00 | 0.00 | 78 | 1018.3 |
| 20260905185757 | 79 | 198 | 2.6 | 8.7 | 0.00 | 0.00 | 0.00 | 78 | 1018.3 |
| 20260905185721 | 79 | 254 | 2.6 | 8.7 | 0.00 | 0.00 | 0.00 | 78 | 1018.3 |
| 20260905185604 | 79 | 244 | 3.5 | 8.7 | 0.00 | 0.00 | 0.00 | 77 | 1018.3 |
| 20260905185509 | 79 | 244 | 4.3 | 8.7 | 0.00 | 0.00 | 0.00 | 77 | 1018.3 |
| 20260905185414 | 79 | 248 | 5.2 | 8.7 | 0.00 | 0.00 | 0.00 | 77 | 1018.3 |
| 20260905185305 | 79 | 250 | 6.1 | 8.7 | 0.00 | 0.00 | 0.00 | 77 | 1018.3 |
| 20260905185207 | 79 | 243 | 6.1 | 8.7 | 0.00 | 0.00 | 0.00 | 77 | 1018.3 |
| 20260905185112 | 79 | 208 | 6.1 | 8.7 | 0.00 | 0.00 | 0.00 | 77 | 1018.3 |
| 20260905184957 | 79 | 257 | 7.0 | 8.7 | 0.00 | 0.00 | 0.00 | 77 | 1018.4 |
| 20260905184902 | 79 | 250 | 7.0 | 8.7 | 0.00 | 0.00 | 0.00 | 78 | 1018.3 |
| 20260905184826 | 79 | 263 | 4.3 | 8.7 | 0.00 | 0.00 | 0.00 | 79 | 1018.3 |
| 20260905184710 | 79 | 254 | 2.6 | 7.0 | 0.00 | 0.00 | 0.00 | 81 | 1018.3 |
| 20260905184618 | 79 | 274 | 1.7 | 5.2 | 0.00 | 0.00 | 0.00 | 80 | 1018.3 |
| 20260905184543 | 78 | 96 | 1.7 | 5.2 | 0.00 | 0.00 | 0.00 | 79 | 1018.3 |
| 20260905184401 | 78 | 114 | 2.6 | 5.2 | 0.00 | 0.00 | 0.00 | 78 | 1018.3 |
| 20260905184305 | 78 | 119 | 1.7 | 7.0 | 0.00 | 0.00 | 0.00 | 78 | 1018.3 |
| 20260905184210 | 78 | 165 | 1.7 | 7.0 | 0.00 | 0.00 | 0.00 | 79 | 1018.3 |
| 20260905184003 | 78 | 166 | 2.6 | 7.0 | 0.00 | 0.00 | 0.00 | 79 | 1018.4 |
| 20260905183908 | 78 | 200 | 3.5 | 7.0 | 0.00 | 0.00 | 0.00 | 79 | 1018.4 |
| 20260905183813 | 78 | 200 | 4.3 | 7.0 | 0.00 | 0.00 | 0.00 | 79 | 1018.3 |
| 20260905183659 | 78 | 190 | 3.5 | 7.0 | 0.00 | 0.00 | 0.00 | 80 | 1018.4 |
| 20260905183604 | 78 | 202 | 3.5 | 7.0 | 0.00 | 0.00 | 0.00 | 79 | 1018.4 |
| 20260905183508 | 78 | 180 | 3.5 | 7.0 | 0.00 | 0.00 | 0.00 | 79 | 1018.4 |
| 20260905183357 | 78 | 175 | 2.6 | 6.1 | 0.00 | 0.00 | 0.00 | 79 | 1018.5 |
| 20260905183321 | 78 | 173 | 3.5 | 6.1 | 0.00 | 0.00 | 0.00 | 80 | 1018.5 |
| 20260905183225 | 78 | 172 | 3.5 | 6.1 | 0.00 | 0.00 | 0.00 | 80 | 1018.5 |
| 20260905183109 | 78 | 177 | 2.6 | 6.1 | 0.00 | 0.00 | 0.00 | 81 | 1018.5 |
| 20260905183014 | 78 | 175 | 3.5 | 7.0 | 0.00 | 0.00 | 0.00 | 80 | 1018.5 |
| 20260905182859 | 78 | 176 | 5.2 | 7.8 | 0.00 | 0.00 | 0.00 | 80 | 1018.5 |
| 20260905182808 | 78 | 184 | 5.2 | 7.8 | 0.00 | 0.00 | 0.00 | 81 | 1018.5 |
| 20260905182733 | 78 | 219 | 5.2 | 7.8 | 0.00 | 0.00 | 0.00 | 80 | 1018.5 |
| 20260905182556 | 77 | 215 | 4.3 | 7.8 | 0.00 | 0.00 | 0.00 | 80 | 1018.5 |
| 20260905182522 | 77 | 180 | 4.3 | 7.8 | 0.00 | 0.00 | 0.00 | 80 | 1018.6 |
| 20260905182405 | 77 | 188 | 4.3 | 7.8 | 0.00 | 0.00 | 0.00 | 80 | 1018.6 |
| 20260905182310 | 77 | 191 | 5.2 | 7.8 | 0.00 | 0.00 | 0.00 | 81 | 1018.6 |
| 20260905182215 | 77 | 182 | 4.3 | 7.8 | 0.00 | 0.00 | 0.00 | 81 | 1018.6 |
| 20260905182102 | 77 | 198 | 1.7 | 6.1 | 0.00 | 0.00 | 0.00 | 81 | 1018.5 |
| 20260905182007 | 77 | 200 | 2.6 | 6.1 | 0.00 | 0.00 | 0.00 | 81 | 1018.5 |
| 20260905181913 | 77 | 200 | 4.3 | 6.1 | 0.00 | 0.00 | 0.00 | 81 | 1018.6 |
| 20260905181817 | 77 | 211 | 2.6 | 6.1 | 0.00 | 0.00 | 0.00 | 82 | 1018.7 |
| 20260905181701 | 77 | 198 | 1.7 | 4.3 | 0.00 | 0.00 | 0.00 | 82 | 1018.6 |
| 20260905181606 | 77 | 197 | 0.9 | 4.3 | 0.00 | 0.00 | 0.00 | 82 | 1018.5 |
| 20260905181511 | 77 | 197 | 0.9 | 7.0 | 0.00 | 0.00 | 0.00 | 81 | 1018.5 |
| 20260905181400 | 77 | 197 | 0.9 | 7.0 | 0.00 | 0.00 | 0.00 | 81 | 1018.6 |
| 20260905181304 | 77 | 197 | 0.9 | 7.0 | 0.00 | 0.00 | 0.00 | 81 | 1018.6 |
| 20260905181209 | 77 | 197 | 0.9 | 9.6 | 0.00 | 0.00 | 0.00 | 81 | 1018.6 |
| 20260905181113 | 77 | 197 | 0.9 | 9.6 | 0.00 | 0.00 | 0.00 | 81 | 1018.6 |
| 20260905180959 | 77 | 197 | 1.7 | 9.6 | 0.00 | 0.00 | 0.00 | 81 | 1018.7 |
| 20260905180907 | 77 | 197 | 1.7 | 9.6 | 0.00 | 0.00 | 0.00 | 81 | 1018.7 |
| 20260905180812 | 77 | 197 | 3.5 | 9.6 | 0.00 | 0.00 | 0.00 | 81 | 1018.7 |
| 20260905180715 | 77 | 197 | 4.3 | 9.6 | 0.00 | 0.00 | 0.00 | 81 | 1018.7 |
| 20260905180601 | 77 | 167 | 5.2 | 9.6 | 0.00 | 0.00 | 0.00 | 82 | 1018.7 |
| 20260905180505 | 77 | 173 | 6.1 | 9.6 | 0.00 | 0.00 | 0.00 | 82 | 1018.7 |
| 20260905180410 | 77 | 167 | 6.1 | 9.6 | 0.00 | 0.00 | 0.00 | 82 | 1018.7 |
| 20260905180258 | 77 | 196 | 6.1 | 7.8 | 0.00 | 0.00 | 0.00 | 83 | 1018.7 |
| 20260905180222 | 77 | 178 | 5.2 | 7.8 | 0.00 | 0.00 | 0.00 | 83 | 1018.7 |
| 20260905180100 | 77 | 186 | 4.3 | 7.0 | 0.00 | 0.00 | 0.00 | 83 | 1018.8 |
| 20260905180023 | 76 | 188 | 2.6 | 6.1 | 0.00 | 0.00 | 0.00 | 83 | 1018.8 |
| 20260905175900 | 76 | 211 | 2.6 | 6.1 | 0.00 | 0.00 | 0.00 | 83 | 1018.8 |
| 20260905175806 | 76 | 211 | 4.3 | 6.1 | 0.00 | 0.00 | 0.00 | 83 | 1018.8 |
| 20260905175710 | 76 | 201 | 4.3 | 6.1 | 0.00 | 0.00 | 0.00 | 83 | 1018.8 |
| 20260905175618 | 76 | 240 | 3.5 | 7.0 | 0.00 | 0.00 | 0.00 | 84 | 1018.8 |
| 20260905175522 | 76 | 236 | 3.5 | 7.0 | 0.00 | 0.00 | 0.00 | 84 | 1018.8 |
| 20260905175406 | 76 | 196 | 2.6 | 7.0 | 0.00 | 0.00 | 0.00 | 84 | 1018.8 |
| 20260905175311 | 76 | 161 | 1.7 | 7.0 | 0.00 | 0.00 | 0.00 | 84 | 1018.8 |
| 20260905175216 | 76 | 161 | 0.9 | 7.0 | 0.00 | 0.00 | 0.00 | 84 | 1018.8 |
| 20260905175101 | 76 | 180 | 1.7 | 7.0 | 0.00 | 0.00 | 0.00 | 84 | 1018.8 |
| 20260905175009 | 76 | 180 | 3.5 | 7.0 | 0.00 | 0.00 | 0.00 | 84 | 1018.8 |
| 20260905174934 | 76 | 180 | 4.3 | 7.0 | 0.00 | 0.00 | 0.00 | 85 | 1018.8 |
| 20260905174818 | 76 | 196 | 4.3 | 7.0 | 0.00 | 0.00 | 0.00 | 85 | 1018.8 |
| 20260905174721 | 76 | 202 | 3.5 | 7.8 | 0.00 | 0.00 | 0.00 | 85 | 1018.8 |
| 20260905174603 | 76 | 209 | 3.5 | 7.8 | 0.00 | 0.00 | 0.00 | 85 | 1018.8 |
| 20260905174508 | 75 | 155 | 2.6 | 7.8 | 0.00 | 0.00 | 0.00 | 85 | 1018.8 |
| 20260905174413 | 75 | 155 | 3.5 | 7.8 | 0.00 | 0.00 | 0.00 | 85 | 1018.8 |
| 20260905174318 | 75 | 146 | 4.3 | 7.8 | 0.00 | 0.00 | 0.00 | 85 | 1018.8 |
| 20260905174206 | 75 | 154 | 4.3 | 10.4 | 0.00 | 0.00 | 0.00 | 85 | 1018.8 |
| 20260905174110 | 75 | 171 | 4.3 | 10.4 | 0.00 | 0.00 | 0.00 | 85 | 1018.8 |
| 20260905174015 | 75 | 129 | 3.5 | 10.4 | 0.00 | 0.00 | 0.00 | 86 | 1018.8 |
| 20260905173920 | 75 | 178 | 3.5 | 10.4 | 0.00 | 0.00 | 0.00 | 85 | 1018.9 |
| 20260905173823 | 75 | 165 | 5.2 | 10.4 | 0.00 | 0.00 | 0.00 | 85 | 1018.9 |
| 20260905173727 | 75 | 193 | 5.2 | 10.4 | 0.00 | 0.00 | 0.00 | 86 | 1018.9 |
| 20260905173611 | 75 | 188 | 5.2 | 10.4 | 0.00 | 0.00 | 0.00 | 86 | 1018.9 |
| 20260905173535 | 75 | 184 | 7.0 | 10.4 | 0.00 | 0.00 | 0.00 | 86 | 1018.9 |
| 20260905173422 | 75 | 195 | 6.1 | 10.4 | 0.00 | 0.00 | 0.00 | 87 | 1018.9 |
| 20260905173300 | 75 | 198 | 5.2 | 7.0 | 0.00 | 0.00 | 0.00 | 87 | 1018.8 |
| 20260905173205 | 75 | 205 | 5.2 | 7.0 | 0.00 | 0.00 | 0.00 | 86 | 1018.8 |
| 20260905173109 | 75 | 202 | 3.5 | 6.1 | 0.00 | 0.00 | 0.00 | 87 | 1018.8 |
| 20260905173034 | 75 | 221 | 3.5 | 7.0 | 0.00 | 0.00 | 0.00 | 87 | 1018.8 |
| 20260905172857 | 75 | 173 | 3.5 | 6.1 | 0.00 | 0.00 | 0.00 | 88 | 1018.8 |
| 20260905172802 | 75 | 165 | 1.7 | 6.1 | 0.00 | 0.00 | 0.00 | 89 | 1018.7 |
| 20260905172730 | 74 | 120 | 1.7 | 6.1 | 0.00 | 0.00 | 0.00 | 88 | 1018.7 |
| 20260905172634 | 74 | 119 | 2.6 | 6.1 | 0.00 | 0.00 | 0.00 | 88 | 1018.7 |
| 20260905172518 | 74 | 118 | 4.3 | 6.1 | 0.00 | 0.00 | 0.00 | 88 | 1018.7 |
| 20260905172442 | 74 | 158 | 4.3 | 6.1 | 0.00 | 0.00 | 0.00 | 88 | 1018.7 |
| 20260905172257 | 74 | 180 | 3.5 | 7.8 | 0.00 | 0.00 | 0.00 | 88 | 1018.7 |
| 20260905172220 | 74 | 161 | 3.5 | 7.8 | 0.00 | 0.00 | 0.00 | 88 | 1018.7 |
| 20260905172057 | 74 | 166 | 3.5 | 7.8 | 0.00 | 0.00 | 0.00 | 88 | 1018.7 |
| 20260905172022 | 74 | 158 | 2.6 | 7.8 | 0.00 | 0.00 | 0.00 | 88 | 1018.8 |
| 20260905171929 | 74 | 169 | 4.3 | 7.8 | 0.00 | 0.00 | 0.00 | 88 | 1018.8 |
| 20260905171812 | 74 | 178 | 5.2 | 11.3 | 0.00 | 0.00 | 0.00 | 88 | 1018.8 |
| 20260905171716 | 74 | 164 | 5.2 | 11.3 | 0.00 | 0.00 | 0.00 | 88 | 1018.8 |
| 20260905171642 | 74 | 172 | 5.2 | 11.3 | 0.00 | 0.00 | 0.00 | 88 | 1018.8 |
| 20260905171457 | 74 | 163 | 5.2 | 11.3 | 0.00 | 0.00 | 0.00 | 88 | 1018.9 |
| 20260905171402 | 74 | 158 | 6.1 | 11.3 | 0.00 | 0.00 | 0.00 | 88 | 1018.8 |
| 20260905171307 | 74 | 198 | 6.1 | 11.3 | 0.00 | 0.00 | 0.00 | 88 | 1018.8 |
| 20260905171216 | 74 | 192 | 6.1 | 11.3 | 0.00 | 0.00 | 0.00 | 88 | 1018.8 |
| 20260905171118 | 74 | 175 | 7.0 | 11.3 | 0.00 | 0.00 | 0.00 | 88 | 1018.8 |
| 20260905171043 | 74 | 178 | 7.0 | 11.3 | 0.00 | 0.00 | 0.00 | 89 | 1018.8 |
| 20260905170859 | 74 | 205 | 5.2 | 7.8 | 0.00 | 0.00 | 0.00 | 89 | 1018.8 |
| 20260905170803 | 74 | 168 | 5.2 | 7.8 | 0.00 | 0.00 | 0.00 | 89 | 1018.8 |
| 20260905170727 | 74 | 178 | 6.1 | 7.8 | 0.00 | 0.00 | 0.00 | 89 | 1018.8 |
| 20260905170610 | 74 | 188 | 5.2 | 7.8 | 0.00 | 0.00 | 0.00 | 90 | 1018.8 |
| 20260905170459 | 73 | 209 | 4.3 | 6.1 | 0.00 | 0.00 | 0.00 | 89 | 1018.9 |
| 20260905170404 | 73 | 223 | 4.3 | 7.8 | 0.00 | 0.00 | 0.00 | 90 | 1018.9 |
| 20260905170309 | 73 | 221 | 3.5 | 7.8 | 0.00 | 0.00 | 0.00 | 90 | 1018.9 |
| 20260905170234 | 73 | 222 | 2.6 | 7.8 | 0.00 | 0.00 | 0.00 | 90 | 1019.0 |
| 20260905170118 | 73 | 217 | 3.5 | 7.8 | 0.00 | 0.00 | 0.00 | 90 | 1019.1 |
| 20260905165956 | 73 | 218 | 4.3 | 7.8 | 0.00 | 0.00 | 0.00 | 90 | 1019.2 |
| 20260905165921 | 73 | 219 | 3.5 | 7.8 | 0.00 | 0.00 | 0.00 | 90 | 1019.2 |
| 20260905165808 | 73 | 222 | 3.5 | 7.8 | 0.00 | 0.00 | 0.00 | 90 | 1019.2 |
| 20260905165733 | 73 | 224 | 4.3 | 7.8 | 0.00 | 0.00 | 0.00 | 90 | 1019.1 |
| 20260905165616 | 73 | 226 | 6.1 | 7.8 | 0.00 | 0.00 | 0.00 | 90 | 1019.2 |
| 20260905165520 | 73 | 248 | 6.1 | 7.8 | 0.00 | 0.00 | 0.00 | 90 | 1019.2 |
| 20260905165356 | 73 | 224 | 3.5 | 7.8 | 0.00 | 0.00 | 0.00 | 91 | 1019.2 |
| 20260905165302 | 73 | 223 | 3.5 | 7.8 | 0.00 | 0.00 | 0.00 | 91 | 1019.2 |
| 20260905165210 | 73 | 174 | 3.5 | 7.8 | 0.00 | 0.00 | 0.00 | 91 | 1019.2 |
| 20260905165114 | 73 | 168 | 4.3 | 7.8 | 0.00 | 0.00 | 0.00 | 91 | 1019.1 |
| 20260905164959 | 73 | 152 | 4.3 | 7.8 | 0.00 | 0.00 | 0.00 | 91 | 1019.0 |
| 20260905164904 | 73 | 167 | 5.2 | 7.8 | 0.00 | 0.00 | 0.00 | 91 | 1019.1 |
| 20260905164807 | 73 | 152 | 4.3 | 7.8 | 0.00 | 0.00 | 0.00 | 92 | 1019.0 |
| 20260905164711 | 73 | 167 | 3.5 | 7.0 | 0.00 | 0.00 | 0.00 | 92 | 1019.0 |
| 20260905164559 | 73 | 181 | 4.3 | 7.0 | 0.00 | 0.00 | 0.00 | 92 | 1019.1 |
| 20260905164524 | 73 | 185 | 5.2 | 7.0 | 0.00 | 0.00 | 0.00 | 92 | 1019.0 |
| 20260905164407 | 73 | 184 | 5.2 | 7.0 | 0.00 | 0.00 | 0.00 | 93 | 1019.0 |
| 20260905164312 | 72 | 180 | 5.2 | 7.0 | 0.00 | 0.00 | 0.00 | 93 | 1019.1 |
| 20260905164157 | 72 | 192 | 4.3 | 7.0 | 0.00 | 0.00 | 0.00 | 93 | 1019.1 |
| 20260905164103 | 72 | 200 | 5.2 | 7.0 | 0.00 | 0.00 | 0.00 | 93 | 1019.2 |
| 20260905164011 | 72 | 197 | 5.2 | 7.0 | 0.00 | 0.00 | 0.00 | 93 | 1019.2 |
| 20260905163856 | 72 | 197 | 5.2 | 7.0 | 0.00 | 0.00 | 0.00 | 93 | 1019.2 |
| 20260905163821 | 72 | 196 | 4.3 | 6.1 | 0.00 | 0.00 | 0.00 | 93 | 1019.2 |
| 20260905163658 | 72 | 180 | 2.6 | 5.2 | 0.00 | 0.00 | 0.00 | 94 | 1019.1 |
| 20260905163623 | 72 | 175 | 2.6 | 5.2 | 0.00 | 0.00 | 0.00 | 94 | 1019.2 |
| 20260905163506 | 72 | 150 | 1.7 | 5.2 | 0.00 | 0.00 | 0.00 | 94 | 1019.1 |
| 20260905163408 | 72 | 149 | 1.7 | 5.2 | 0.00 | 0.00 | 0.00 | 94 | 1019.1 |
| 20260905163257 | 72 | 149 | 2.6 | 5.2 | 0.00 | 0.00 | 0.00 | 94 | 1019.2 |
| 20260905163202 | 71 | 148 | 3.5 | 5.2 | 0.00 | 0.00 | 0.00 | 94 | 1019.1 |
| 20260905163106 | 71 | 149 | 3.5 | 5.2 | 0.00 | 0.00 | 0.00 | 94 | 1019.1 |
| 20260905163010 | 71 | 170 | 2.6 | 4.3 | 0.00 | 0.00 | 0.00 | 94 | 1019.1 |
| 20260905162915 | 71 | 175 | 2.6 | 4.3 | 0.00 | 0.00 | 0.00 | 94 | 1019.1 |
| 20260905162820 | 71 | 176 | 2.6 | 3.5 | 0.00 | 0.00 | 0.00 | 95 | 1019.2 |
| 20260905162708 | 71 | 177 | 2.6 | 3.5 | 0.00 | 0.00 | 0.00 | 95 | 1019.2 |
| 20260905162614 | 71 | 178 | 1.7 | 3.5 | 0.00 | 0.00 | 0.00 | 95 | 1019.1 |
| 20260905162518 | 71 | 178 | 1.7 | 3.5 | 0.00 | 0.00 | 0.00 | 95 | 1019.2 |
| 20260905162356 | 71 | 178 | 1.7 | 2.6 | 0.00 | 0.00 | 0.00 | 95 | 1019.3 |
| 20260905162300 | 71 | 178 | 1.7 | 2.6 | 0.00 | 0.00 | 0.00 | 95 | 1019.3 |
| 20260905162204 | 71 | 178 | 1.7 | 2.6 | 0.00 | 0.00 | 0.00 | 95 | 1019.4 |
| 20260905162109 | 71 | 178 | 1.7 | 2.6 | 0.00 | 0.00 | 0.00 | 95 | 1019.4 |
| 20260905162017 | 71 | 178 | 2.6 | 2.6 | 0.00 | 0.00 | 0.00 | 95 | 1019.4 |
| 20260905161901 | 71 | 178 | 1.7 | 2.6 | 0.00 | 0.00 | 0.00 | 95 | 1019.4 |
| 20260905161806 | 71 | 178 | 1.7 | 2.6 | 0.00 | 0.00 | 0.00 | 95 | 1019.5 |
| 20260905161730 | 71 | 178 | 0.9 | 2.6 | 0.00 | 0.00 | 0.00 | 95 | 1019.5 |
| 20260905161614 | 71 | 178 | 0.9 | 2.6 | 0.00 | 0.00 | 0.00 | 95 | 1019.5 |
| 20260905161459 | 71 | 178 | 0.9 | 2.6 | 0.00 | 0.00 | 0.00 | 95 | 1019.5 |
| 20260905161407 | 71 | 178 | 0.0 | 2.6 | 0.00 | 0.00 | 0.00 | 96 | 1019.5 |
| 20260905161312 | 71 | 178 | 0.9 | 3.5 | 0.00 | 0.00 | 0.00 | 95 | 1019.5 |
| 20260905161237 | 71 | 178 | 0.9 | 3.5 | 0.00 | 0.00 | 0.00 | 96 | 1019.4 |
| 20260905161101 | 71 | 178 | 1.7 | 3.5 | 0.00 | 0.00 | 0.00 | 96 | 1019.4 |
| 20260905161004 | 71 | 178 | 1.7 | 3.5 | 0.00 | 0.00 | 0.00 | 96 | 1019.5 |
| 20260905160928 | 71 | 178 | 1.7 | 3.5 | 0.00 | 0.00 | 0.00 | 96 | 1019.4 |
| 20260905160811 | 71 | 178 | 1.7 | 3.5 | 0.00 | 0.00 | 0.00 | 96 | 1019.4 |
| 20260905160721 | 71 | 179 | 1.7 | 3.5 | 0.00 | 0.00 | 0.00 | 96 | 1019.3 |
| 20260905160557 | 71 | 180 | 2.6 | 4.3 | 0.00 | 0.00 | 0.00 | 96 | 1019.3 |
| 20260905160522 | 71 | 180 | 2.6 | 4.3 | 0.00 | 0.00 | 0.00 | 97 | 1019.3 |
| 20260905160400 | 70 | 190 | 1.7 | 4.3 | 0.00 | 0.00 | 0.00 | 97 | 1019.4 |
| 20260905160325 | 71 | 190 | 1.7 | 4.3 | 0.00 | 0.00 | 0.00 | 97 | 1019.4 |
| 20260905160208 | 70 | 190 | 0.9 | 4.3 | 0.00 | 0.00 | 0.00 | 97 | 1019.5 |
| 20260905160131 | 70 | 190 | 0.9 | 4.3 | 0.00 | 0.00 | 0.00 | 97 | 1019.5 |
| 20260905160020 | 70 | 190 | 2.6 | 4.3 | 0.00 | 0.00 | 0.00 | 97 | 1019.4 |
| 20260905155904 | 70 | 190 | 2.6 | 4.3 | 0.00 | 0.00 | 0.00 | 97 | 1019.4 |
| 20260905155828 | 70 | 190 | 2.6 | 4.3 | 0.00 | 0.00 | 0.00 | 97 | 1019.4 |
| 20260905155732 | 70 | 190 | 2.6 | 4.3 | 0.00 | 0.00 | 0.00 | 97 | 1019.4 |
| 20260905155615 | 70 | 189 | 3.5 | 4.3 | 0.00 | 0.00 | 0.00 | 97 | 1019.3 |
| 20260905155521 | 70 | 188 | 3.5 | 5.2 | 0.00 | 0.00 | 0.00 | 97 | 1019.3 |
| 20260905155404 | 70 | 188 | 2.6 | 5.2 | 0.00 | 0.00 | 0.00 | 97 | 1019.3 |
| 20260905155309 | 70 | 188 | 1.7 | 5.2 | 0.00 | 0.00 | 0.00 | 97 | 1019.3 |
| 20260905155159 | 70 | 188 | 2.6 | 5.2 | 0.00 | 0.00 | 0.00 | 97 | 1019.5 |
| 20260905155123 | 70 | 189 | 1.7 | 6.1 | 0.00 | 0.00 | 0.00 | 97 | 1019.4 |
| 20260905155007 | 70 | 189 | 0.9 | 6.1 | 0.00 | 0.00 | 0.00 | 97 | 1019.4 |
| 20260905154912 | 70 | 189 | 0.9 | 8.7 | 0.00 | 0.00 | 0.00 | 97 | 1019.4 |
| 20260905154757 | 70 | 189 | 2.6 | 8.7 | 0.00 | 0.00 | 0.00 | 98 | 1019.3 |
| 20260905154702 | 70 | 189 | 3.5 | 8.7 | 0.00 | 0.00 | 0.00 | 98 | 1019.2 |
| 20260905154611 | 70 | 188 | 4.3 | 8.7 | 0.00 | 0.00 | 0.00 | 98 | 1019.2 |
| 20260905154514 | 70 | 200 | 4.3 | 8.7 | 0.00 | 0.00 | 0.00 | 98 | 1019.1 |
| 20260905154400 | 70 | 233 | 4.3 | 8.7 | 0.00 | 0.00 | 0.00 | 98 | 1019.0 |
| 20260905154304 | 70 | 221 | 4.3 | 8.7 | 0.00 | 0.00 | 0.00 | 98 | 1019.0 |
| 20260905154208 | 70 | 171 | 5.2 | 8.7 | 0.00 | 0.00 | 0.00 | 98 | 1019.0 |
| 20260905154057 | 70 | 189 | 5.2 | 8.7 | 0.00 | 0.00 | 0.00 | 98 | 1018.9 |
| 20260905154019 | 70 | 205 | 4.3 | 7.0 | 0.00 | 0.00 | 0.00 | 98 | 1018.9 |
| 20260905153922 | 70 | 175 | 3.5 | 7.0 | 0.00 | 0.00 | 0.00 | 98 | 1018.9 |
| 20260905153759 | 70 | 164 | 2.6 | 7.0 | 0.00 | 0.00 | 0.00 | 98 | 1018.8 |
| 20260905153723 | 70 | 165 | 3.5 | 7.0 | 0.00 | 0.00 | 0.00 | 98 | 1018.7 |
| 20260905153608 | 70 | 167 | 4.3 | 8.7 | 0.00 | 0.00 | 0.00 | 98 | 1018.7 |
| 20260905153512 | 70 | 188 | 4.3 | 8.7 | 0.00 | 0.00 | 0.00 | 98 | 1018.7 |
| 20260905153417 | 69 | 175 | 3.5 | 8.7 | 0.00 | 0.00 | 0.00 | 98 | 1018.7 |
| 20260905153325 | 69 | 199 | 4.3 | 8.7 | 0.00 | 0.00 | 0.00 | 98 | 1018.7 |
| 20260905153209 | 69 | 181 | 4.3 | 8.7 | 0.00 | 0.00 | 0.00 | 98 | 1018.7 |
| 20260905153113 | 69 | 155 | 4.3 | 8.7 | 0.00 | 0.00 | 0.00 | 98 | 1018.7 |
| 20260905152958 | 69 | 158 | 3.5 | 8.7 | 0.00 | 0.00 | 0.00 | 98 | 1018.7 |
| 20260905152903 | 69 | 193 | 4.3 | 8.7 | 0.00 | 0.00 | 0.00 | 98 | 1018.7 |
| 20260905152828 | 69 | 173 | 4.3 | 8.7 | 0.00 | 0.00 | 0.00 | 98 | 1018.7 |
| 20260905152712 | 69 | 151 | 3.5 | 7.8 | 0.00 | 0.00 | 0.00 | 98 | 1018.7 |
| 20260905152620 | 69 | 170 | 1.7 | 7.8 | 0.00 | 0.00 | 0.00 | 98 | 1018.7 |
| 20260905152504 | 69 | 170 | 2.6 | 7.8 | 0.00 | 0.00 | 0.00 | 98 | 1018.7 |
| 20260905152427 | 69 | 170 | 4.3 | 7.8 | 0.00 | 0.00 | 0.00 | 98 | 1018.8 |
| 20260905152331 | 69 | 175 | 4.3 | 7.8 | 0.00 | 0.00 | 0.00 | 98 | 1018.8 |
| 20260905152215 | 69 | 150 | 4.3 | 7.8 | 0.00 | 0.00 | 0.00 | 98 | 1018.8 |
| 20260905152120 | 68 | 140 | 5.2 | 7.8 | 0.00 | 0.00 | 0.00 | 98 | 1018.8 |
| 20260905152003 | 68 | 142 | 4.3 | 7.0 | 0.00 | 0.00 | 0.00 | 98 | 1018.7 |
| 20260905151912 | 68 | 159 | 3.5 | 7.0 | 0.00 | 0.00 | 0.00 | 98 | 1018.7 |
| 20260905151837 | 68 | 156 | 2.6 | 7.0 | 0.00 | 0.00 | 0.00 | 98 | 1018.8 |
| 20260905151720 | 68 | 152 | 3.5 | 7.0 | 0.00 | 0.00 | 0.00 | 98 | 1018.7 |
| 20260905151557 | 68 | 153 | 3.5 | 7.0 | 0.00 | 0.00 | 0.00 | 98 | 1018.8 |
| 20260905151502 | 68 | 155 | 3.5 | 7.0 | 0.00 | 0.00 | 0.00 | 98 | 1018.8 |
| 20260905151407 | 68 | 198 | 3.5 | 7.0 | 0.00 | 0.00 | 0.00 | 98 | 1018.7 |
| 20260905151311 | 68 | 151 | 1.7 | 7.0 | 0.00 | 0.00 | 0.00 | 98 | 1018.7 |
| 20260905151220 | 68 | 149 | 1.7 | 7.0 | 0.00 | 0.00 | 0.00 | 98 | 1018.8 |
| 20260905151103 | 68 | 149 | 3.5 | 7.0 | 0.00 | 0.00 | 0.00 | 98 | 1018.7 |
| 20260905151009 | 68 | 149 | 3.5 | 7.0 | 0.00 | 0.00 | 0.00 | 98 | 1018.7 |
| 20260905150913 | 68 | 146 | 2.6 | 7.0 | 0.00 | 0.00 | 0.00 | 98 | 1018.7 |
| 20260905150758 | 68 | 154 | 2.6 | 7.0 | 0.00 | 0.00 | 0.00 | 98 | 1018.7 |
| 20260905150702 | 68 | 154 | 4.3 | 7.0 | 0.00 | 0.00 | 0.00 | 98 | 1018.7 |
| 20260905150611 | 68 | 163 | 4.3 | 7.0 | 0.00 | 0.00 | 0.00 | 98 | 1018.7 |
| 20260905150516 | 68 | 139 | 2.6 | 7.0 | 0.00 | 0.00 | 0.00 | 98 | 1018.7 |
| 20260905150400 | 68 | 157 | 2.6 | 4.3 | 0.00 | 0.00 | 0.00 | 98 | 1018.7 |
| 20260905150306 | 68 | 156 | 2.6 | 4.3 | 0.00 | 0.00 | 0.00 | 98 | 1018.8 |
| 20260905150210 | 68 | 155 | 2.6 | 4.3 | 0.00 | 0.00 | 0.00 | 98 | 1018.8 |
| 20260905150114 | 68 | 150 | 2.6 | 3.5 | 0.00 | 0.00 | 0.00 | 98 | 1018.8 |
| 20260905150003 | 68 | 146 | 2.6 | 3.5 | 0.00 | 0.00 | 0.00 | 98 | 1018.8 |
| 20260905145928 | 68 | 146 | 2.6 | 5.2 | 0.00 | 0.00 | 0.00 | 98 | 1018.8 |
| 20260905145812 | 68 | 146 | 1.7 | 5.2 | 0.00 | 0.00 | 0.00 | 98 | 1018.8 |
| 20260905145715 | 67 | 146 | 1.7 | 5.2 | 0.00 | 0.00 | 0.00 | 98 | 1018.8 |
| 20260905145620 | 67 | 146 | 1.7 | 5.2 | 0.00 | 0.00 | 0.00 | 98 | 1018.8 |
| 20260905145504 | 67 | 148 | 1.7 | 5.2 | 0.00 | 0.00 | 0.00 | 98 | 1018.9 |
| 20260905145409 | 67 | 148 | 2.6 | 5.2 | 0.00 | 0.00 | 0.00 | 98 | 1018.9 |
| 20260905145258 | 67 | 148 | 2.6 | 5.2 | 0.00 | 0.00 | 0.00 | 98 | 1018.9 |
| 20260905145202 | 67 | 140 | 2.6 | 5.2 | 0.00 | 0.00 | 0.00 | 98 | 1018.9 |
| 20260905145107 | 67 | 122 | 2.6 | 5.2 | 0.00 | 0.00 | 0.00 | 98 | 1018.9 |
| 20260905145012 | 67 | 124 | 2.6 | 5.2 | 0.00 | 0.00 | 0.00 | 98 | 1018.9 |
| 20260905144937 | 67 | 124 | 2.6 | 4.3 | 0.00 | 0.00 | 0.00 | 98 | 1018.9 |
| 20260905144820 | 67 | 123 | 1.7 | 3.5 | 0.00 | 0.00 | 0.00 | 98 | 1018.9 |
| 20260905144723 | 67 | 123 | 1.7 | 3.5 | 0.00 | 0.00 | 0.00 | 98 | 1018.8 |
| 20260905144627 | 67 | 123 | 2.6 | 5.2 | 0.00 | 0.00 | 0.00 | 98 | 1018.9 |
| 20260905144514 | 67 | 123 | 1.7 | 5.2 | 0.00 | 0.00 | 0.00 | 98 | 1018.9 |
| 20260905144436 | 67 | 123 | 1.7 | 5.2 | 0.00 | 0.00 | 0.00 | 98 | 1018.9 |
| 20260905144319 | 67 | 122 | 1.7 | 5.2 | 0.00 | 0.00 | 0.00 | 98 | 1018.9 |
| 20260905144157 | 67 | 121 | 1.7 | 5.2 | 0.00 | 0.00 | 0.00 | 98 | 1018.9 |
| 20260905144122 | 67 | 122 | 1.7 | 5.2 | 0.00 | 0.00 | 0.00 | 98 | 1018.9 |
| 20260905144003 | 67 | 122 | 1.7 | 5.2 | 0.00 | 0.00 | 0.00 | 98 | 1018.9 |
| 20260905143908 | 67 | 121 | 2.6 | 5.2 | 0.00 | 0.00 | 0.00 | 98 | 1018.9 |
| 20260905143757 | 67 | 121 | 3.5 | 5.2 | 0.00 | 0.00 | 0.00 | 98 | 1018.9 |
| 20260905143722 | 67 | 113 | 2.6 | 5.2 | 0.00 | 0.00 | 0.00 | 98 | 1018.9 |
| 20260905143600 | 67 | 127 | 1.7 | 3.5 | 0.00 | 0.00 | 0.00 | 98 | 1018.9 |
| 20260905143504 | 67 | 124 | 1.7 | 5.2 | 0.00 | 0.00 | 0.00 | 98 | 1018.9 |
| 20260905143429 | 67 | 123 | 2.6 | 5.2 | 0.00 | 0.00 | 0.00 | 98 | 1018.9 |
| 20260905143313 | 67 | 122 | 2.6 | 5.2 | 0.00 | 0.00 | 0.00 | 98 | 1018.9 |
| 20260905143222 | 67 | 110 | 1.7 | 5.2 | 0.00 | 0.00 | 0.00 | 98 | 1018.9 |
| 20260905143106 | 67 | 110 | 1.7 | 5.2 | 0.00 | 0.00 | 0.00 | 98 | 1018.9 |
| 20260905143031 | 67 | 110 | 2.6 | 5.2 | 0.00 | 0.00 | 0.00 | 98 | 1018.8 |
| 20260905142915 | 67 | 110 | 2.6 | 5.2 | 0.00 | 0.00 | 0.00 | 98 | 1018.9 |
| 20260905142800 | 67 | 109 | 2.6 | 5.2 | 0.00 | 0.00 | 0.00 | 98 | 1018.9 |
| 20260905142705 | 67 | 109 | 2.6 | 5.2 | 0.00 | 0.00 | 0.00 | 98 | 1018.9 |
| 20260905142610 | 67 | 109 | 2.6 | 5.2 | 0.00 | 0.00 | 0.00 | 98 | 1018.9 |
| 20260905142520 | 67 | 108 | 2.6 | 5.2 | 0.00 | 0.00 | 0.00 | 98 | 1019.0 |
| 20260905142357 | 67 | 109 | 2.6 | 5.2 | 0.00 | 0.00 | 0.00 | 98 | 1019.0 |
| 20260905142305 | 67 | 109 | 2.6 | 5.2 | 0.00 | 0.00 | 0.00 | 98 | 1019.0 |
| 20260905142207 | 67 | 110 | 2.6 | 5.2 | 0.00 | 0.00 | 0.00 | 98 | 1019.0 |
| 20260905142112 | 67 | 108 | 2.6 | 3.5 | 0.00 | 0.00 | 0.00 | 98 | 1019.0 |
| 20260905142000 | 67 | 108 | 2.6 | 3.5 | 0.00 | 0.00 | 0.00 | 98 | 1019.0 |
| 20260905141925 | 67 | 108 | 2.6 | 3.5 | 0.00 | 0.00 | 0.00 | 98 | 1019.0 |
| 20260905141829 | 67 | 109 | 2.6 | 3.5 | 0.00 | 0.00 | 0.00 | 98 | 1019.0 |
| 20260905141713 | 67 | 109 | 2.6 | 3.5 | 0.00 | 0.00 | 0.00 | 98 | 1018.9 |
| 20260905141618 | 66 | 109 | 2.6 | 3.5 | 0.00 | 0.00 | 0.00 | 98 | 1019.0 |
| 20260905141502 | 66 | 109 | 1.7 | 3.5 | 0.00 | 0.00 | 0.00 | 98 | 1019.0 |
| 20260905141408 | 66 | 109 | 1.7 | 3.5 | 0.00 | 0.00 | 0.00 | 98 | 1019.0 |
| 20260905141332 | 66 | 109 | 1.7 | 3.5 | 0.00 | 0.00 | 0.00 | 98 | 1019.0 |
| 20260905141219 | 66 | 109 | 0.9 | 3.5 | 0.00 | 0.00 | 0.00 | 98 | 1019.0 |
| 20260905141122 | 66 | 109 | 0.9 | 3.5 | 0.00 | 0.00 | 0.00 | 98 | 1019.0 |
| 20260905141000 | 66 | 109 | 1.7 | 3.5 | 0.00 | 0.00 | 0.00 | 98 | 1019.1 |
| 20260905140904 | 66 | 109 | 1.7 | 3.5 | 0.00 | 0.00 | 0.00 | 98 | 1019.1 |
| 20260905140809 | 66 | 109 | 1.7 | 3.5 | 0.00 | 0.00 | 0.00 | 98 | 1019.1 |
| 20260905140714 | 66 | 109 | 1.7 | 3.5 | 0.00 | 0.00 | 0.00 | 98 | 1019.1 |
| 20260905140603 | 66 | 109 | 1.7 | 5.2 | 0.00 | 0.00 | 0.00 | 98 | 1019.1 |
| 20260905140528 | 66 | 109 | 1.7 | 5.2 | 0.00 | 0.00 | 0.00 | 98 | 1019.1 |
| 20260905140411 | 66 | 109 | 1.7 | 5.2 | 0.00 | 0.00 | 0.00 | 98 | 1019.1 |
| 20260905140336 | 66 | 109 | 2.6 | 5.2 | 0.00 | 0.00 | 0.00 | 98 | 1019.1 |
| 20260905140200 | 66 | 109 | 2.6 | 5.2 | 0.00 | 0.00 | 0.00 | 98 | 1019.0 |
| 20260905140105 | 66 | 109 | 1.7 | 5.2 | 0.00 | 0.00 | 0.00 | 98 | 1019.0 |
| 20260905140010 | 66 | 109 | 2.6 | 5.2 | 0.00 | 0.00 | 0.00 | 98 | 1019.0 |
| 20260905135859 | 66 | 109 | 2.6 | 5.2 | 0.00 | 0.00 | 0.00 | 98 | 1019.0 |
| 20260905135824 | 66 | 110 | 2.6 | 5.2 | 0.00 | 0.00 | 0.00 | 98 | 1018.8 |
| 20260905135729 | 66 | 109 | 2.6 | 5.2 | 0.00 | 0.00 | 0.00 | 98 | 1018.8 |
| 20260905135632 | 66 | 109 | 3.5 | 5.2 | 0.00 | 0.00 | 0.00 | 98 | 1019.0 |
| 20260905135515 | 66 | 109 | 2.6 | 5.2 | 0.00 | 0.00 | 0.00 | 98 | 1018.9 |
| 20260905135422 | 66 | 111 | 2.6 | 3.5 | 0.00 | 0.00 | 0.00 | 98 | 1018.9 |
| 20260905135259 | 66 | 111 | 2.6 | 3.5 | 0.00 | 0.00 | 0.00 | 98 | 1018.9 |
| 20260905135208 | 66 | 111 | 2.6 | 3.5 | 0.00 | 0.00 | 0.00 | 98 | 1018.9 |
| 20260905135133 | 66 | 111 | 2.6 | 3.5 | 0.00 | 0.00 | 0.00 | 98 | 1018.8 |
| 20260905135036 | 66 | 111 | 2.6 | 3.5 | 0.00 | 0.00 | 0.00 | 98 | 1018.8 |
| 20260905134900 | 66 | 112 | 2.6 | 3.5 | 0.00 | 0.00 | 0.00 | 98 | 1018.8 |
| 20260905134805 | 66 | 113 | 2.6 | 3.5 | 0.00 | 0.00 | 0.00 | 98 | 1018.8 |
| 20260905134710 | 66 | 112 | 2.6 | 3.5 | 0.00 | 0.00 | 0.00 | 98 | 1018.8 |
| 20260905134615 | 66 | 112 | 2.6 | 3.5 | 0.00 | 0.00 | 0.00 | 98 | 1018.9 |
| 20260905134524 | 66 | 113 | 1.7 | 3.5 | 0.00 | 0.00 | 0.00 | 98 | 1018.9 |
| 20260905134408 | 66 | 113 | 1.7 | 3.5 | 0.00 | 0.00 | 0.00 | 98 | 1018.9 |
| 20260905134314 | 66 | 113 | 1.7 | 3.5 | 0.00 | 0.00 | 0.00 | 98 | 1018.9 |
| 20260905134218 | 66 | 113 | 1.7 | 5.2 | 0.00 | 0.00 | 0.00 | 98 | 1018.7 |
| 20260905134102 | 66 | 113 | 1.7 | 5.2 | 0.00 | 0.00 | 0.00 | 98 | 1018.7 |
| 20260905134007 | 66 | 113 | 1.7 | 5.2 | 0.00 | 0.00 | 0.00 | 98 | 1018.7 |
| 20260905133932 | 66 | 113 | 1.7 | 5.2 | 0.00 | 0.00 | 0.00 | 98 | 1018.7 |
| 20260905133820 | 66 | 113 | 2.6 | 5.2 | 0.00 | 0.00 | 0.00 | 98 | 1018.7 |
| 20260905133657 | 66 | 113 | 2.6 | 5.2 | 0.00 | 0.00 | 0.00 | 98 | 1018.7 |
| 20260905133622 | 66 | 114 | 2.6 | 5.2 | 0.00 | 0.00 | 0.00 | 98 | 1018.7 |
| 20260905133459 | 66 | 98 | 2.6 | 5.2 | 0.00 | 0.00 | 0.00 | 98 | 1018.7 |
| 20260905133404 | 66 | 110 | 2.6 | 5.2 | 0.00 | 0.00 | 0.00 | 98 | 1018.7 |
| 20260905133309 | 66 | 113 | 2.6 | 3.5 | 0.00 | 0.00 | 0.00 | 98 | 1018.7 |
| 20260905133157 | 66 | 113 | 1.7 | 3.5 | 0.00 | 0.00 | 0.00 | 98 | 1018.7 |
| 20260905133122 | 66 | 114 | 1.7 | 3.5 | 0.00 | 0.00 | 0.00 | 98 | 1018.7 |
| 20260905133000 | 66 | 114 | 1.7 | 3.5 | 0.00 | 0.00 | 0.00 | 98 | 1018.6 |
| 20260905132903 | 66 | 113 | 2.6 | 3.5 | 0.00 | 0.00 | 0.00 | 98 | 1018.5 |
| 20260905132828 | 66 | 113 | 2.6 | 3.5 | 0.00 | 0.00 | 0.00 | 98 | 1018.5 |
| 20260905132732 | 66 | 115 | 2.6 | 3.5 | 0.00 | 0.00 | 0.00 | 98 | 1018.4 |
| 20260905132557 | 66 | 115 | 2.6 | 3.5 | 0.00 | 0.00 | 0.00 | 98 | 1018.4 |
| 20260905132505 | 66 | 115 | 2.6 | 3.5 | 0.00 | 0.00 | 0.00 | 98 | 1018.4 |
| 20260905132410 | 66 | 115 | 2.6 | 3.5 | 0.00 | 0.00 | 0.00 | 98 | 1018.4 |
| 20260905132334 | 66 | 115 | 2.6 | 3.5 | 0.00 | 0.00 | 0.00 | 98 | 1018.3 |
| 20260905132218 | 66 | 115 | 2.6 | 3.5 | 0.00 | 0.00 | 0.00 | 98 | 1018.3 |
| 20260905132143 | 66 | 115 | 2.6 | 3.5 | 0.00 | 0.00 | 0.00 | 98 | 1018.3 |
| 20260905131959 | 66 | 115 | 2.6 | 3.5 | 0.00 | 0.00 | 0.00 | 98 | 1018.2 |
| 20260905131904 | 66 | 116 | 1.7 | 3.5 | 0.00 | 0.00 | 0.00 | 98 | 1018.2 |
| 20260905131813 | 66 | 116 | 1.7 | 3.5 | 0.00 | 0.00 | 0.00 | 98 | 1018.2 |
| 20260905131658 | 66 | 116 | 1.7 | 3.5 | 0.00 | 0.00 | 0.00 | 98 | 1018.2 |
| 20260905131602 | 66 | 116 | 1.7 | 3.5 | 0.00 | 0.00 | 0.00 | 98 | 1018.2 |
| 20260905131507 | 66 | 116 | 2.6 | 5.2 | 0.00 | 0.00 | 0.00 | 98 | 1018.2 |
| 20260905131412 | 66 | 116 | 2.6 | 5.2 | 0.00 | 0.00 | 0.00 | 98 | 1018.2 |
| 20260905131301 | 66 | 117 | 2.6 | 5.2 | 0.00 | 0.00 | 0.00 | 98 | 1018.0 |
| 20260905131205 | 66 | 117 | 2.6 | 6.1 | 0.00 | 0.00 | 0.00 | 98 | 1018.0 |
| 20260905131110 | 66 | 117 | 2.6 | 6.1 | 0.00 | 0.00 | 0.00 | 98 | 1018.0 |
| 20260905131015 | 66 | 117 | 1.7 | 6.1 | 0.00 | 0.00 | 0.00 | 98 | 1018.0 |
| 20260905130900 | 66 | 117 | 2.6 | 6.1 | 0.00 | 0.00 | 0.00 | 98 | 1018.0 |
| 20260905130825 | 66 | 118 | 3.5 | 7.0 | 0.00 | 0.00 | 0.00 | 98 | 1018.0 |
| 20260905130708 | 66 | 113 | 3.5 | 7.8 | 0.00 | 0.00 | 0.00 | 98 | 1018.0 |
| 20260905130557 | 66 | 90 | 3.5 | 7.8 | 0.00 | 0.00 | 0.00 | 98 | 1017.9 |
| 20260905130502 | 66 | 99 | 4.3 | 7.8 | 0.00 | 0.00 | 0.00 | 98 | 1017.8 |
| 20260905130406 | 66 | 112 | 4.3 | 7.8 | 0.00 | 0.00 | 0.00 | 98 | 1017.7 |
| 20260905130310 | 66 | 109 | 4.3 | 7.8 | 0.00 | 0.00 | 0.00 | 98 | 1017.7 |
| 20260905130216 | 65 | 114 | 3.5 | 7.8 | 0.00 | 0.00 | 0.00 | 98 | 1017.7 |
| 20260905130104 | 65 | 120 | 4.3 | 7.8 | 0.00 | 0.00 | 0.00 | 98 | 1017.6 |
| 20260905130029 | 65 | 155 | 5.2 | 7.8 | 0.00 | 0.00 | 0.00 | 98 | 1017.6 |
| 20260905125913 | 65 | 111 | 5.2 | 7.8 | 0.00 | 0.00 | 0.00 | 98 | 1017.6 |
| 20260905125758 | 66 | 124 | 5.2 | 7.0 | 0.00 | 0.00 | 0.00 | 98 | 1017.5 |
| 20260905125702 | 65 | 109 | 4.3 | 7.0 | 0.00 | 0.00 | 0.00 | 98 | 1017.5 |
| 20260905125607 | 65 | 116 | 4.3 | 6.1 | 0.00 | 0.00 | 0.00 | 98 | 1017.5 |
| 20260905125512 | 65 | 123 | 4.3 | 6.1 | 0.00 | 0.00 | 0.00 | 98 | 1017.5 |
| 20260905125420 | 65 | 117 | 4.3 | 7.8 | 0.00 | 0.00 | 0.00 | 98 | 1017.6 |
| 20260905125258 | 65 | 117 | 4.3 | 7.8 | 0.00 | 0.00 | 0.00 | 98 | 1017.5 |
| 20260905125222 | 65 | 120 | 4.3 | 7.8 | 0.00 | 0.00 | 0.00 | 98 | 1017.5 |
| 20260905125106 | 65 | 105 | 3.5 | 7.8 | 0.00 | 0.00 | 0.00 | 98 | 1017.4 |
| 20260905125011 | 65 | 112 | 4.3 | 7.8 | 0.00 | 0.00 | 0.00 | 98 | 1017.4 |
| 20260905124915 | 65 | 108 | 4.3 | 7.8 | 0.00 | 0.00 | 0.00 | 98 | 1017.4 |
| 20260905124824 | 65 | 115 | 4.3 | 7.8 | 0.00 | 0.00 | 0.00 | 98 | 1017.3 |
| 20260905124707 | 65 | 107 | 4.3 | 7.8 | 0.00 | 0.00 | 0.00 | 98 | 1017.3 |
| 20260905124612 | 65 | 125 | 3.5 | 7.0 | 0.00 | 0.00 | 0.00 | 98 | 1017.3 |
| 20260905124456 | 65 | 134 | 3.5 | 7.0 | 0.00 | 0.00 | 0.00 | 98 | 1017.2 |
| 20260905124421 | 65 | 121 | 3.5 | 7.0 | 0.00 | 0.00 | 0.00 | 98 | 1017.2 |
| 20260905124259 | 65 | 132 | 3.5 | 7.0 | 0.00 | 0.00 | 0.00 | 97 | 1017.2 |
| 20260905124208 | 65 | 133 | 3.5 | 7.0 | 0.00 | 0.00 | 0.00 | 97 | 1017.2 |
| 20260905124113 | 65 | 130 | 3.5 | 7.0 | 0.00 | 0.00 | 0.00 | 97 | 1017.2 |
| 20260905124019 | 65 | 123 | 4.3 | 7.0 | 0.00 | 0.00 | 0.00 | 97 | 1017.2 |
| 20260905123902 | 65 | 108 | 3.5 | 7.0 | 0.00 | 0.00 | 0.00 | 98 | 1017.2 |
| 20260905123807 | 65 | 118 | 2.6 | 7.0 | 0.00 | 0.00 | 0.00 | 98 | 1017.2 |
| 20260905123732 | 65 | 123 | 2.6 | 7.0 | 0.00 | 0.00 | 0.00 | 98 | 1017.2 |
| 20260905123616 | 65 | 165 | 3.5 | 7.0 | 0.00 | 0.00 | 0.00 | 98 | 1017.3 |
| 20260905123504 | 65 | 175 | 3.5 | 7.0 | 0.00 | 0.00 | 0.00 | 98 | 1017.2 |
| 20260905123410 | 65 | 141 | 2.6 | 5.2 | 0.00 | 0.00 | 0.00 | 98 | 1017.2 |
| 20260905123314 | 65 | 132 | 1.7 | 3.5 | 0.00 | 0.00 | 0.00 | 98 | 1017.2 |
| 20260905123219 | 65 | 133 | 1.7 | 3.5 | 0.00 | 0.00 | 0.00 | 98 | 1017.3 |
| 20260905123103 | 65 | 133 | 1.7 | 3.5 | 0.00 | 0.00 | 0.00 | 98 | 1017.3 |
| 20260905123007 | 65 | 133 | 1.7 | 3.5 | 0.00 | 0.00 | 0.00 | 98 | 1017.3 |
| 20260905122856 | 65 | 148 | 1.7 | 4.3 | 0.00 | 0.00 | 0.00 | 98 | 1017.2 |
| 20260905122822 | 65 | 149 | 2.6 | 4.3 | 0.00 | 0.00 | 0.00 | 98 | 1017.2 |
| 20260905122700 | 65 | 150 | 2.6 | 4.3 | 0.00 | 0.00 | 0.00 | 98 | 1017.3 |
| 20260905122604 | 65 | 118 | 1.7 | 3.5 | 0.00 | 0.00 | 0.00 | 98 | 1017.3 |
| 20260905122509 | 65 | 129 | 1.7 | 3.5 | 0.00 | 0.00 | 0.00 | 98 | 1017.3 |
| 20260905122414 | 65 | 129 | 2.6 | 5.2 | 0.00 | 0.00 | 0.00 | 98 | 1017.3 |
| 20260905122306 | 65 | 129 | 2.6 | 5.2 | 0.00 | 0.00 | 0.00 | 98 | 1017.3 |
| 20260905122206 | 65 | 118 | 1.7 | 5.2 | 0.00 | 0.00 | 0.00 | 98 | 1017.4 |
| 20260905122130 | 65 | 117 | 2.6 | 5.2 | 0.00 | 0.00 | 0.00 | 98 | 1017.4 |
| 20260905122014 | 65 | 116 | 2.6 | 5.2 | 0.00 | 0.00 | 0.00 | 97 | 1017.5 |
| 20260905121919 | 65 | 112 | 2.6 | 5.2 | 0.00 | 0.00 | 0.00 | 97 | 1017.5 |
| 20260905121802 | 65 | 107 | 2.6 | 5.2 | 0.00 | 0.00 | 0.00 | 97 | 1017.6 |
| 20260905121707 | 65 | 106 | 2.6 | 5.2 | 0.00 | 0.00 | 0.00 | 98 | 1017.6 |
| 20260905121615 | 65 | 120 | 2.6 | 4.3 | 0.00 | 0.00 | 0.00 | 98 | 1017.5 |
| 20260905121500 | 65 | 121 | 2.6 | 4.3 | 0.00 | 0.00 | 0.00 | 98 | 1017.5 |
| 20260905121425 | 65 | 134 | 2.6 | 5.2 | 0.00 | 0.00 | 0.00 | 98 | 1017.5 |
| 20260905121309 | 65 | 135 | 2.6 | 6.1 | 0.00 | 0.00 | 0.00 | 98 | 1017.5 |
| 20260905121213 | 65 | 135 | 2.6 | 6.1 | 0.00 | 0.00 | 0.00 | 98 | 1017.5 |
| 20260905121058 | 65 | 136 | 2.6 | 6.1 | 0.00 | 0.00 | 0.00 | 98 | 1017.5 |
| 20260905121026 | 65 | 114 | 2.6 | 6.1 | 0.00 | 0.00 | 0.00 | 98 | 1017.5 |
| 20260905120910 | 65 | 114 | 2.6 | 6.1 | 0.00 | 0.00 | 0.00 | 98 | 1017.5 |
| 20260905120816 | 65 | 113 | 2.6 | 6.1 | 0.00 | 0.00 | 0.00 | 98 | 1017.4 |
| 20260905120700 | 65 | 110 | 2.6 | 6.1 | 0.00 | 0.00 | 0.00 | 98 | 1017.5 |
| 20260905120625 | 65 | 107 | 3.5 | 6.1 | 0.00 | 0.00 | 0.00 | 97 | 1017.5 |
| 20260905120509 | 65 | 109 | 3.5 | 6.1 | 0.00 | 0.00 | 0.00 | 97 | 1017.5 |
| 20260905120358 | 65 | 105 | 3.5 | 6.1 | 0.00 | 0.00 | 0.00 | 97 | 1017.5 |
| 20260905120322 | 65 | 108 | 3.5 | 6.1 | 0.00 | 0.00 | 0.00 | 97 | 1017.5 |
| 20260905120159 | 65 | 99 | 3.5 | 6.1 | 0.00 | 0.00 | 0.00 | 97 | 1017.6 |
| 20260905120104 | 65 | 109 | 3.5 | 6.1 | 0.00 | 0.00 | 0.00 | 97 | 1017.6 |
| 20260905120009 | 65 | 111 | 3.5 | 6.1 | 0.00 | 0.00 | 0.00 | 97 | 1017.6 |
| 20260905115914 | 65 | 102 | 3.5 | 6.1 | 0.00 | 0.00 | 0.00 | 97 | 1017.7 |
| 20260905115802 | 65 | 92 | 3.5 | 6.1 | 0.00 | 0.00 | 0.00 | 97 | 1017.7 |
| 20260905115727 | 65 | 100 | 3.5 | 7.0 | 0.00 | 0.00 | 0.00 | 97 | 1017.7 |
| 20260905115611 | 65 | 103 | 3.5 | 7.0 | 0.00 | 0.00 | 0.00 | 97 | 1017.7 |
| 20260905115536 | 65 | 96 | 3.5 | 7.0 | 0.00 | 0.00 | 0.00 | 97 | 1017.6 |
| 20260905115400 | 65 | 105 | 3.5 | 7.0 | 0.00 | 0.00 | 0.00 | 97 | 1017.6 |
| 20260905115326 | 65 | 103 | 3.5 | 7.0 | 0.00 | 0.00 | 0.00 | 97 | 1017.6 |
| 20260905115209 | 65 | 95 | 4.3 | 7.0 | 0.00 | 0.00 | 0.00 | 97 | 1017.6 |
| 20260905115058 | 65 | 92 | 4.3 | 7.0 | 0.00 | 0.00 | 0.00 | 97 | 1017.5 |
| 20260905115003 | 65 | 94 | 3.5 | 7.0 | 0.00 | 0.00 | 0.00 | 97 | 1017.6 |
| 20260905114906 | 65 | 84 | 3.5 | 7.0 | 0.00 | 0.00 | 0.00 | 97 | 1017.6 |
| 20260905114811 | 65 | 108 | 3.5 | 6.1 | 0.00 | 0.00 | 0.00 | 97 | 1017.5 |
| 20260905114736 | 65 | 94 | 3.5 | 6.1 | 0.00 | 0.00 | 0.00 | 97 | 1017.5 |
| 20260905114600 | 65 | 90 | 3.5 | 5.2 | 0.00 | 0.00 | 0.00 | 97 | 1017.5 |
| 20260905114505 | 65 | 71 | 2.6 | 5.2 | 0.00 | 0.00 | 0.00 | 97 | 1017.6 |
| 20260905114413 | 65 | 80 | 2.6 | 5.2 | 0.00 | 0.00 | 0.00 | 97 | 1017.6 |
| 20260905114258 | 65 | 103 | 2.6 | 5.2 | 0.00 | 0.00 | 0.00 | 97 | 1017.6 |
| 20260905114203 | 65 | 105 | 2.6 | 5.2 | 0.00 | 0.00 | 0.00 | 97 | 1017.6 |
| 20260905114107 | 65 | 105 | 3.5 | 5.2 | 0.00 | 0.00 | 0.00 | 97 | 1017.6 |
| 20260905114012 | 65 | 88 | 3.5 | 5.2 | 0.00 | 0.00 | 0.00 | 97 | 1017.6 |
| 20260905113901 | 65 | 78 | 2.6 | 5.2 | 0.00 | 0.00 | 0.00 | 97 | 1017.5 |
| 20260905113806 | 65 | 68 | 3.5 | 5.2 | 0.00 | 0.00 | 0.00 | 97 | 1017.5 |
| 20260905113710 | 65 | 84 | 3.5 | 5.2 | 0.00 | 0.00 | 0.00 | 97 | 1017.5 |
| 20260905113615 | 65 | 83 | 4.3 | 5.2 | 0.00 | 0.00 | 0.00 | 97 | 1017.4 |
| 20260905113520 | 65 | 77 | 4.3 | 6.1 | 0.00 | 0.00 | 0.00 | 97 | 1017.4 |
| 20260905113358 | 65 | 82 | 4.3 | 6.1 | 0.00 | 0.00 | 0.00 | 97 | 1017.3 |
| 20260905113306 | 65 | 92 | 4.3 | 6.1 | 0.00 | 0.00 | 0.00 | 97 | 1017.3 |
| 20260905113211 | 65 | 91 | 3.5 | 6.1 | 0.00 | 0.00 | 0.00 | 97 | 1017.3 |
| 20260905113056 | 65 | 96 | 4.3 | 6.1 | 0.00 | 0.00 | 0.00 | 97 | 1017.3 |
| 20260905113001 | 65 | 98 | 4.3 | 6.1 | 0.00 | 0.00 | 0.00 | 97 | 1017.3 |
| 20260905112906 | 65 | 107 | 3.5 | 6.1 | 0.00 | 0.00 | 0.00 | 97 | 1017.3 |
| 20260905112811 | 65 | 90 | 2.6 | 5.2 | 0.00 | 0.00 | 0.00 | 97 | 1017.3 |
| 20260905112700 | 65 | 103 | 2.6 | 5.2 | 0.00 | 0.00 | 0.00 | 97 | 1017.3 |
| 20260905112605 | 65 | 103 | 2.6 | 5.2 | 0.00 | 0.00 | 0.00 | 97 | 1017.4 |
| 20260905112510 | 65 | 103 | 1.7 | 5.2 | 0.00 | 0.00 | 0.00 | 97 | 1017.4 |
| 20260905112415 | 65 | 103 | 1.7 | 5.2 | 0.00 | 0.00 | 0.00 | 97 | 1017.3 |
| 20260905112321 | 65 | 71 | 2.6 | 5.2 | 0.00 | 0.00 | 0.00 | 97 | 1017.3 |
| 20260905112204 | 65 | 109 | 2.6 | 5.2 | 0.00 | 0.00 | 0.00 | 97 | 1017.3 |
| 20260905112112 | 65 | 88 | 2.6 | 5.2 | 0.00 | 0.00 | 0.00 | 97 | 1017.3 |
| 20260905112017 | 65 | 86 | 2.6 | 5.2 | 0.00 | 0.00 | 0.00 | 97 | 1017.2 |
| 20260905111921 | 65 | 85 | 2.6 | 5.2 | 0.00 | 0.00 | 0.00 | 97 | 1017.2 |
| 20260905111759 | 65 | 97 | 2.6 | 5.2 | 0.00 | 0.00 | 0.00 | 97 | 1017.2 |
| 20260905111704 | 65 | 98 | 2.6 | 5.2 | 0.00 | 0.00 | 0.00 | 97 | 1017.2 |
| 20260905111628 | 65 | 99 | 2.6 | 5.2 | 0.00 | 0.00 | 0.00 | 97 | 1017.2 |
| 20260905111512 | 65 | 99 | 2.6 | 5.2 | 0.00 | 0.00 | 0.00 | 97 | 1017.1 |
| 20260905111421 | 65 | 101 | 2.6 | 5.2 | 0.00 | 0.00 | 0.00 | 97 | 1017.1 |
| 20260905111305 | 65 | 105 | 2.6 | 5.2 | 0.00 | 0.00 | 0.00 | 97 | 1017.1 |
| 20260905111211 | 65 | 106 | 2.6 | 5.2 | 0.00 | 0.00 | 0.00 | 97 | 1017.1 |
| 20260905111115 | 65 | 106 | 2.6 | 5.2 | 0.00 | 0.00 | 0.00 | 97 | 1017.1 |
| 20260905111000 | 65 | 107 | 1.7 | 5.2 | 0.00 | 0.00 | 0.00 | 97 | 1017.1 |
| 20260905110905 | 65 | 97 | 2.6 | 5.2 | 0.00 | 0.00 | 0.00 | 97 | 1017.1 |
| 20260905110830 | 65 | 97 | 2.6 | 5.2 | 0.00 | 0.00 | 0.00 | 97 | 1017.1 |
| 20260905110718 | 65 | 97 | 3.5 | 5.2 | 0.00 | 0.00 | 0.00 | 97 | 1017.2 |
| 20260905110601 | 65 | 97 | 3.5 | 5.2 | 0.00 | 0.00 | 0.00 | 97 | 1017.2 |
| 20260905110506 | 65 | 97 | 3.5 | 5.2 | 0.00 | 0.00 | 0.00 | 97 | 1017.2 |
| 20260905110432 | 65 | 93 | 2.6 | 5.2 | 0.00 | 0.00 | 0.00 | 97 | 1017.2 |
| 20260905110315 | 65 | 95 | 2.6 | 3.5 | 0.00 | 0.00 | 0.00 | 97 | 1017.2 |
| 20260905110200 | 65 | 96 | 2.6 | 3.5 | 0.00 | 0.00 | 0.00 | 97 | 1017.1 |
| 20260905110109 | 65 | 96 | 1.7 | 3.5 | 0.00 | 0.00 | 0.00 | 97 | 1017.1 |
| 20260905110014 | 65 | 97 | 2.6 | 3.5 | 0.00 | 0.00 | 0.00 | 97 | 1017.1 |
| 20260905105858 | 65 | 97 | 2.6 | 3.5 | 0.00 | 0.00 | 0.00 | 97 | 1017.2 |
| 20260905105802 | 65 | 97 | 2.6 | 3.5 | 0.00 | 0.00 | 0.00 | 97 | 1017.2 |
| 20260905105707 | 65 | 117 | 2.6 | 3.5 | 0.00 | 0.00 | 0.00 | 97 | 1017.2 |
| 20260905105612 | 65 | 117 | 2.6 | 3.5 | 0.00 | 0.00 | 0.00 | 97 | 1017.1 |
| 20260905105501 | 65 | 117 | 2.6 | 3.5 | 0.00 | 0.00 | 0.00 | 97 | 1017.2 |
| 20260905105406 | 65 | 119 | 2.6 | 3.5 | 0.00 | 0.00 | 0.00 | 97 | 1017.2 |
| 20260905105331 | 65 | 120 | 2.6 | 3.5 | 0.00 | 0.00 | 0.00 | 97 | 1017.1 |
| 20260905105215 | 65 | 120 | 2.6 | 3.5 | 0.00 | 0.00 | 0.00 | 97 | 1017.1 |
| 20260905105140 | 65 | 120 | 2.6 | 3.5 | 0.00 | 0.00 | 0.00 | 97 | 1017.1 |
| 20260905104957 | 65 | 120 | 2.6 | 3.5 | 0.00 | 0.00 | 0.00 | 97 | 1017.2 |
| 20260905104902 | 65 | 121 | 1.7 | 3.5 | 0.00 | 0.00 | 0.00 | 97 | 1017.2 |
| 20260905104811 | 65 | 121 | 1.7 | 3.5 | 0.00 | 0.00 | 0.00 | 97 | 1017.2 |
| 20260905104656 | 65 | 121 | 1.7 | 3.5 | 0.00 | 0.00 | 0.00 | 97 | 1017.2 |
| 20260905104621 | 65 | 123 | 1.7 | 3.5 | 0.00 | 0.00 | 0.00 | 97 | 1017.2 |
| 20260905104459 | 65 | 123 | 1.7 | 3.5 | 0.00 | 0.00 | 0.00 | 97 | 1017.1 |
| 20260905104404 | 65 | 123 | 1.7 | 3.5 | 0.00 | 0.00 | 0.00 | 97 | 1017.1 |
| 20260905104329 | 65 | 123 | 1.7 | 3.5 | 0.00 | 0.00 | 0.00 | 97 | 1017.1 |
| 20260905104157 | 65 | 123 | 1.7 | 3.5 | 0.00 | 0.00 | 0.00 | 97 | 1017.0 |
| 20260905104122 | 65 | 123 | 1.7 | 3.5 | 0.00 | 0.00 | 0.00 | 97 | 1017.0 |
| 20260905104026 | 65 | 123 | 1.7 | 3.5 | 0.00 | 0.00 | 0.00 | 97 | 1017.0 |
| 20260905103910 | 65 | 123 | 2.6 | 3.5 | 0.00 | 0.00 | 0.00 | 97 | 1017.0 |
| 20260905103815 | 65 | 123 | 2.6 | 3.5 | 0.00 | 0.00 | 0.00 | 97 | 1016.9 |
| 20260905103656 | 65 | 127 | 1.7 | 2.6 | 0.00 | 0.00 | 0.00 | 97 | 1017.0 |
| 20260905103601 | 65 | 127 | 1.7 | 2.6 | 0.00 | 0.00 | 0.00 | 97 | 1016.9 |
| 20260905103510 | 65 | 127 | 1.7 | 2.6 | 0.00 | 0.00 | 0.00 | 97 | 1016.9 |
| 20260905103415 | 65 | 127 | 1.7 | 2.6 | 0.00 | 0.00 | 0.00 | 97 | 1017.0 |
| 20260905103319 | 65 | 127 | 1.7 | 2.6 | 0.00 | 0.00 | 0.00 | 97 | 1016.9 |
| 20260905103157 | 65 | 127 | 1.7 | 2.6 | 0.00 | 0.00 | 0.00 | 97 | 1017.0 |
| 20260905103102 | 65 | 127 | 1.7 | 2.6 | 0.00 | 0.00 | 0.00 | 97 | 1017.0 |
| 20260905103006 | 65 | 127 | 1.7 | 2.6 | 0.00 | 0.00 | 0.00 | 97 | 1017.0 |
| 20260905102916 | 65 | 127 | 1.7 | 2.6 | 0.00 | 0.00 | 0.00 | 97 | 1017.0 |
| 20260905102800 | 65 | 127 | 0.9 | 2.6 | 0.00 | 0.00 | 0.00 | 97 | 1017.1 |
| 20260905102705 | 65 | 127 | 0.9 | 2.6 | 0.00 | 0.00 | 0.00 | 97 | 1017.2 |
| 20260905102610 | 65 | 127 | 0.9 | 2.6 | 0.00 | 0.00 | 0.00 | 97 | 1017.2 |
| 20260905102534 | 65 | 127 | 0.9 | 2.6 | 0.00 | 0.00 | 0.00 | 97 | 1017.1 |
| 20260905102358 | 65 | 127 | 0.9 | 3.5 | 0.00 | 0.00 | 0.00 | 97 | 1017.0 |
| 20260905102306 | 65 | 127 | 1.7 | 3.5 | 0.00 | 0.00 | 0.00 | 97 | 1017.0 |
| 20260905102211 | 65 | 127 | 1.7 | 3.5 | 0.00 | 0.00 | 0.00 | 97 | 1017.0 |
| 20260905102056 | 65 | 127 | 1.7 | 3.5 | 0.00 | 0.00 | 0.00 | 97 | 1016.8 |
| 20260905102001 | 65 | 127 | 0.9 | 3.5 | 0.00 | 0.00 | 0.00 | 97 | 1016.8 |
| 20260905101926 | 65 | 127 | 0.9 | 3.5 | 0.00 | 0.00 | 0.00 | 97 | 1016.8 |
| 20260905101811 | 65 | 127 | 1.7 | 3.5 | 0.00 | 0.00 | 0.00 | 97 | 1016.8 |
| 20260905101659 | 65 | 127 | 2.6 | 3.5 | 0.00 | 0.00 | 0.00 | 97 | 1016.6 |
| 20260905101603 | 65 | 127 | 1.7 | 2.6 | 0.00 | 0.00 | 0.00 | 97 | 1016.6 |
| 20260905101508 | 65 | 128 | 1.7 | 2.6 | 0.00 | 0.00 | 0.00 | 97 | 1016.6 |
| 20260905101434 | 65 | 128 | 1.7 | 3.5 | 0.00 | 0.00 | 0.00 | 97 | 1016.6 |
| 20260905101317 | 65 | 128 | 1.7 | 3.5 | 0.00 | 0.00 | 0.00 | 97 | 1016.7 |
| 20260905101242 | 65 | 128 | 1.7 | 3.5 | 0.00 | 0.00 | 0.00 | 97 | 1016.6 |
| 20260905101059 | 65 | 128 | 1.7 | 3.5 | 0.00 | 0.00 | 0.00 | 97 | 1016.6 |
| 20260905101009 | 65 | 128 | 1.7 | 3.5 | 0.00 | 0.00 | 0.00 | 97 | 1016.6 |
| 20260905100913 | 65 | 128 | 1.7 | 3.5 | 0.00 | 0.00 | 0.00 | 97 | 1016.6 |
| 20260905100758 | 65 | 128 | 1.7 | 3.5 | 0.00 | 0.00 | 0.00 | 97 | 1016.5 |
| 20260905100722 | 65 | 128 | 1.7 | 3.5 | 0.00 | 0.00 | 0.00 | 97 | 1016.5 |
| 20260905100605 | 65 | 128 | 2.6 | 3.5 | 0.00 | 0.00 | 0.00 | 97 | 1016.5 |
| 20260905100509 | 65 | 128 | 2.6 | 3.5 | 0.00 | 0.00 | 0.00 | 97 | 1016.5 |
| 20260905100418 | 65 | 129 | 2.6 | 4.3 | 0.00 | 0.00 | 0.00 | 97 | 1016.4 |
| 20260905100323 | 65 | 129 | 2.6 | 4.3 | 0.00 | 0.00 | 0.00 | 97 | 1016.4 |
| 20260905100225 | 65 | 130 | 2.6 | 4.3 | 0.00 | 0.00 | 0.00 | 97 | 1016.4 |
| 20260905100108 | 65 | 131 | 2.6 | 4.3 | 0.00 | 0.00 | 0.00 | 97 | 1016.4 |
| 20260905100032 | 65 | 132 | 2.6 | 4.3 | 0.00 | 0.00 | 0.00 | 97 | 1016.4 |
| 20260905095856 | 65 | 134 | 2.6 | 4.3 | 0.00 | 0.00 | 0.00 | 97 | 1016.3 |
| 20260905095801 | 65 | 136 | 2.6 | 4.3 | 0.00 | 0.00 | 0.00 | 97 | 1016.3 |
| 20260905095706 | 65 | 136 | 1.7 | 4.3 | 0.00 | 0.00 | 0.00 | 97 | 1016.3 |